[[[{"header":{"parameterUnit":"kt","parameterCategory":2,"dx":1,"dy":1,"la1":29.587661999999998,"la2":31.0,"lo1":-88.76705300000003,"lo2":-86.6583820000003,"nx":115,"ny":88,"refTime":"2022-09-20T12:00:00:Z","depth":0,"parameterNumber":1,"parameterNumberName":"U-component_of_WINDS"},"data":[-6.1425,-6.1923,-6.2171,-6.2619,-6.3238,-6.3819,-6.4083,-6.4374,-6.4698,-6.4587,-6.4383,-6.4846,-6.5342,-6.5707,-6.6117,-6.2152,-5.5838,-5.586,-5.2571,-4.7816,-4.6239,-4.6404,-4.5804,-4.4059,-4.576,-4.4375,-4.2617,-4.3432,-4.1037,-4.1676,-4.0247,-3.5056,-3.4352,-3.1154,-2.5306,-2.2773,-2.3082,-2.2387,-2.1594,-1.8384,-1.8542,-2.1279,-1.9792,-1.8994,-1.738,-1.4025,-1.1248,-0.9954,-0.7115,-0.4718,-0.2283,0.0152,0.2128,0.395,0.5775,0.745,0.7757,0.715,0.6547,0.5788,0.426,0.5624,0.5523,0.4135,0.2001,0.2184,0.1249,0.0,-0.5369,-1.054,-1.2711,-1.37,-1.6412,-1.6947,-1.6623,-2.0426,-2.1102,-2.1598,-2.2343,-2.28,-2.0934,-0.784,0.5847,1.3325,2.1568,3.1178,4.0333,4.0492,4.1095,4.3272,4.4234,4.7364,5.0118,5.6784,5.9801,5.7121,5.9021,5.8896,5.8349,5.8078,5.7603,5.675,5.5843,5.4542,5.4204,5.439,5.4542,5.4939,5.5637,5.6474,5.5941,5.5638,5.6123,5.6027,5.5417,-6.207,-6.2347,-6.3366,-6.3924,-6.4188,-6.5553,-6.6015,-6.5814,-6.6495,-6.6505,-6.6246,-6.7256,-6.7296,-6.7144,-6.6926,-6.2378,-5.9693,-5.9863,-5.5247,-5.0727,-4.9223,-5.0732,-5.0312,-4.8462,-4.8846,-4.8193,-4.7646,-4.7601,-4.8066,-4.7467,-4.684,-4.387,-4.1906,-4.0303,-3.8195,-3.415,-2.9662,-2.8877,-2.5993,-2.1555,-2.4755,-3.0104,-3.3343,-3.2622,-2.9271,-2.3883,-1.9841,-1.5401,-0.8122,-0.5323,-0.3044,-0.076,0.1215,0.2125,0.4402,0.5927,0.6078,0.5627,0.5329,0.4574,0.2892,0.168,0.1706,-0.0156,-0.4068,-0.5335,-0.6104,-0.9342,-1.5251,-1.9531,-2.1183,-2.3043,-2.6793,-2.9113,-2.827,-2.8899,-2.5996,-2.3688,-2.3585,-2.3348,-1.5494,-0.4472,0.5111,1.1939,2.0689,3.0456,3.556,3.5383,3.6992,4.208,4.442,4.6262,4.7201,4.6483,4.7616,4.9572,5.3698,5.3816,5.4352,5.5142,5.5366,5.4353,5.3472,5.2559,5.2518,5.2813,5.3067,5.2969,5.4148,5.5148,5.4397,5.3601,5.4266,5.4805,5.4438,-6.2619,-6.3049,-6.3958,-6.4642,-6.5146,-6.6198,-6.666,-6.6751,-6.7312,-6.7593,-6.7818,-6.8271,-6.8399,-6.816,-6.8378,-6.6051,-6.5002,-6.4074,-6.1075,-6.0138,-6.049,-5.8473,-5.8997,-5.9639,-5.6977,-5.7555,-5.7441,-5.6826,-5.8608,-5.6833,-5.3551,-5.0997,-4.9558,-4.7031,-4.2234,-4.0316,-3.7936,-3.8352,-3.4933,-3.3021,-3.406,-3.6064,-3.9316,-3.4,-2.8135,-2.2927,-1.8952,-1.4356,-0.969,-0.7731,-0.6375,-0.4092,-0.2125,-0.1062,0.0455,0.2276,0.3341,0.3192,0.3504,0.2589,0.076,-0.0456,-0.0921,-0.4297,-0.82,-1.5648,-1.6555,-1.8327,-2.4273,-2.6107,-2.7743,-2.5924,-2.9044,-3.0466,-2.9776,-2.934,-2.7279,-2.535,-2.5185,-2.4555,-1.9134,-0.7589,0.4715,1.1548,1.9495,2.9252,3.9493,4.1154,4.1822,4.4856,4.3865,4.3672,4.2089,4.115,4.3845,4.7224,4.9281,4.9335,4.9681,5.0451,5.1063,5.1,5.114,5.0529,5.0375,5.0999,5.1205,5.0923,5.1773,5.2777,5.2278,5.1466,5.2578,5.3397,5.2364,-6.3469,-6.4054,-6.4562,-6.5217,-6.5835,-6.6531,-6.706,-6.7389,-6.7855,-6.8293,-6.8696,-6.8833,-6.8885,-6.8824,-6.9013,-6.8968,-6.8542,-6.7765,-6.9233,-6.7827,-6.6951,-6.5175,-6.7276,-6.5106,-6.5998,-6.7234,-6.7072,-6.524,-6.4607,-6.458,-6.3055,-5.8638,-5.7653,-5.5729,-5.1238,-4.7042,-4.6157,-4.6523,-4.626,-4.7906,-4.8026,-4.7063,-4.5842,-4.0949,-3.4672,-3.1131,-2.6632,-2.0289,-1.4802,-1.2771,-1.2225,-0.9359,-0.7262,-0.623,-0.4251,-0.1972,-0.0607,0.0,0.0304,-0.0304,-0.2425,-0.3485,-0.5478,-0.8792,-1.4419,-2.2969,-2.8101,-2.9539,-3.1238,-3.2304,-3.2403,-2.9259,-2.7529,-2.741,-2.721,-2.7248,-2.7148,-2.6828,-2.6829,-2.5634,-2.4188,-1.278,0.1904,1.158,1.9107,2.8059,3.8084,4.0294,3.8708,3.8782,3.6731,3.8521,3.6897,3.9774,4.4106,4.6936,4.5672,4.5471,4.6903,4.6818,4.651,4.8321,5.0265,4.9181,4.8772,4.9903,5.0507,4.9637,4.9369,4.9878,4.9744,4.9396,5.0325,5.113,5.0008,-6.4757,-6.52,-6.5486,-6.5835,-6.6185,-6.703,-6.7516,-6.7707,-6.8403,-6.8849,-6.8954,-6.9106,-6.9146,-6.9128,-6.9237,-6.9359,-6.9431,-6.9429,-6.9394,-6.8976,-6.8462,-6.8105,-6.79,-6.7373,-6.7114,-6.6973,-6.6841,-6.6624,-6.6567,-6.6278,-6.5917,-6.5673,-6.451,-6.2927,-5.9815,-5.593,-5.3796,-5.4438,-5.7534,-6.0013,-6.1633,-6.3331,-6.3806,-5.9508,-5.3293,-4.696,-4.2958,-3.4968,-2.3956,-2.1257,-1.735,-0.9969,-0.8765,-0.8137,-0.6843,-0.5135,-0.4477,-0.3608,-0.3182,-0.3483,-0.5744,-0.7899,-1.0387,-1.4537,-2.0892,-2.9037,-3.2847,-3.4785,-3.4693,-3.5569,-3.4356,-3.1448,-2.8022,-2.6654,-2.5303,-2.4217,-2.3191,-2.1846,-2.1146,-1.9325,-1.6645,-0.8396,0.5185,1.0005,1.7335,2.5442,3.0938,2.7597,2.7013,2.8419,3.0064,3.3548,3.4909,3.8093,4.221,4.3673,4.2318,4.2894,4.4537,4.4998,4.5212,4.6912,4.9155,4.8965,4.8553,4.9396,4.9556,4.8992,4.8527,4.8417,4.7976,4.7556,4.7728,4.8421,4.7787,-6.552,-6.6015,-6.6295,-6.6624,-6.703,-6.7671,-6.8122,-6.8416,-6.8894,-6.9201,-6.9223,-6.9382,-6.942,-6.9345,-6.9403,-6.9433,-6.9469,-6.9382,-6.918,-6.8908,-6.8246,-6.7969,-6.7597,-6.7161,-6.6804,-6.6567,-6.6379,-6.6283,-6.5936,-6.5936,-6.6136,-6.61,-6.5415,-6.5361,-6.4647,-6.2203,-6.0344,-6.1866,-6.3585,-6.5359,-6.5538,-6.5499,-6.2705,-5.8066,-5.4007,-4.8161,-4.3135,-3.837,-3.548,-3.6957,-3.2443,-2.5035,-2.0529,-2.3242,-2.3857,-1.5142,-1.2125,-0.8642,-0.7211,-0.7411,-0.8706,-1.1223,-1.5868,-2.2109,-2.9615,-3.4422,-3.7088,-3.8111,-3.8087,-3.7408,-3.5494,-3.322,-2.9519,-2.5923,-2.3485,-2.1104,-1.879,-1.6584,-1.4572,-1.2683,-0.7487,-0.0417,0.5304,0.9776,1.5501,2.1223,2.2356,2.1094,2.3019,2.4696,2.7951,3.1335,3.4007,3.6282,3.8515,4.0579,4.0354,4.0905,4.2249,4.3108,4.4103,4.527,4.6704,4.7453,4.806,4.8281,4.8364,4.7976,4.7556,4.722,4.6769,4.592,4.564,4.6074,4.5755,-6.6114,-6.6696,-6.6796,-6.7108,-6.7558,-6.8229,-6.8683,-6.901,-6.9315,-6.949,-6.9558,-6.9641,-6.9653,-6.9515,-6.9574,-6.9545,-6.9458,-6.9337,-6.9102,-6.8683,-6.8207,-6.7743,-6.7364,-6.706,-6.6751,-6.6521,-6.6379,-6.6283,-6.5886,-6.5415,-6.5644,-6.5451,-6.462,-6.4713,-6.469,-6.4399,-6.4239,-6.4686,-6.4991,-6.5575,-6.5575,-6.5486,-6.3249,-6.0492,-5.7344,-5.5476,-5.0241,-4.5242,-4.6238,-4.7708,-4.3086,-3.8921,-3.3607,-3.6662,-3.7646,-2.8069,-2.2719,-1.6262,-1.3319,-1.4126,-1.5857,-1.8096,-2.5939,-3.365,-3.7454,-4.0768,-4.2458,-4.0602,-3.9018,-3.5736,-3.3207,-2.8227,-2.3216,-2.0079,-1.753,-1.5253,-1.3362,-1.1212,-0.9871,-0.7946,-0.6142,0.0875,0.7254,1.204,1.5896,1.6661,1.833,2.0926,2.3162,2.525,2.8074,3.093,3.3333,3.4982,3.6898,3.7985,3.8388,3.8768,3.9334,4.004,4.1462,4.2961,4.4223,4.5161,4.5895,4.6491,4.6995,4.6907,4.6567,4.611,4.5252,4.4151,4.3416,4.3772,4.3654,-6.666,-6.7009,-6.6921,-6.7197,-6.7744,-6.8573,-6.9118,-6.9526,-6.9591,-6.9641,-6.9793,-6.9911,-6.9873,-6.9738,-6.9609,-6.9593,-6.9551,-6.9373,-6.8886,-6.838,-6.8122,-6.7708,-6.7316,-6.7053,-6.6841,-6.6751,-6.6567,-6.6331,-6.6247,-6.5608,-6.4642,-6.4028,-6.3693,-6.3879,-6.4063,-6.4063,-6.4149,-6.4597,-6.5052,-6.4996,-6.477,-6.4597,-6.3604,-6.2888,-6.1829,-6.1042,-5.8913,-5.5307,-5.6546,-5.4456,-4.9051,-4.5163,-4.254,-4.1058,-3.948,-3.7992,-3.7783,-3.182,-2.731,-2.5266,-2.6032,-2.8466,-3.7389,-4.1103,-4.3375,-4.4092,-4.3311,-4.0965,-3.6557,-3.35,-3.012,-2.3912,-1.799,-1.5846,-1.3264,-1.0436,-0.8344,-0.653,-0.5169,-0.4258,-0.2431,0.166,0.8081,1.4776,1.942,1.9722,2.0313,2.2611,2.4165,2.6112,2.8611,3.1331,3.2669,3.3985,3.4551,3.5378,3.6031,3.7514,3.7601,3.862,3.9252,4.0646,4.2624,4.4081,4.4175,4.4762,4.588,4.602,4.5558,4.4576,4.3582,4.2601,4.1607,4.1752,4.2238,-6.6921,-6.7187,-6.7437,-6.7781,-6.8261,-6.8611,-6.9044,-6.9458,-6.9629,-6.9745,-6.9799,-6.9938,-6.9943,-6.977,-6.9639,-6.9573,-6.954,-6.9085,-6.8366,-6.8053,-6.7884,-6.752,-6.7271,-6.7053,-6.6973,-6.6796,-6.6531,-6.6015,-6.5573,-6.5254,-6.4492,-6.3658,-6.3182,-6.3247,-6.3247,-6.3376,-6.3469,-6.3967,-6.4269,-6.4328,-6.4028,-6.3879,-6.3852,-6.379,-6.3755,-6.3887,-6.3313,-6.2471,-6.1557,-6.1608,-5.9661,-5.76,-5.7217,-5.5905,-5.3735,-4.9893,-4.7973,-4.4325,-3.8535,-3.5958,-3.6906,-3.8473,-4.0775,-4.413,-4.6579,-4.4169,-4.1814,-3.7801,-3.2184,-2.9097,-2.6392,-2.0961,-1.6955,-1.6624,-1.3264,-0.8486,-0.6078,-0.3194,-0.1828,-0.2438,-0.1066,0.3321,0.8696,1.5561,2.1454,2.2033,2.2467,2.3892,2.5305,2.7655,2.9943,3.1525,3.2841,3.3412,3.3794,3.3945,3.489,3.5979,3.7256,3.8515,3.9294,3.99,4.1752,4.3344,4.3844,4.4365,4.5093,4.4976,4.4459,4.3463,4.1995,4.0769,3.9943,4.0046,4.042,-6.6973,-6.7302,-6.763,-6.8164,-6.8806,-6.8848,-6.9112,-6.9474,-6.9629,-6.9736,-6.9835,-6.9954,-6.9922,-6.9705,-6.9579,-6.9426,-6.9269,-6.8597,-6.8085,-6.7707,-6.7523,-6.7239,-6.7102,-6.7053,-6.7053,-6.6885,-6.6614,-6.6015,-6.4981,-6.4664,-6.4199,-6.3498,-6.2853,-6.2551,-6.2551,-6.2754,-6.2954,-6.3342,-6.3595,-6.3532,-6.3312,-6.3282,-6.3217,-6.3151,-6.3151,-6.3526,-6.4056,-6.3912,-6.3844,-6.4385,-6.3658,-6.2889,-6.3101,-6.3111,-6.1452,-5.8624,-5.8109,-5.5322,-5.1173,-4.6765,-4.7066,-4.6917,-4.7264,-4.6412,-4.581,-4.1529,-3.7511,-3.3409,-2.9138,-2.5842,-2.3413,-1.8441,-1.5087,-1.4766,-1.1597,-0.6972,-0.3192,-0.0457,0.1372,0.0762,0.2126,0.6641,1.0958,1.7396,2.085,2.1888,2.2755,2.4192,2.5744,2.8089,3.0041,3.1289,3.2391,3.2778,3.3315,3.3734,3.455,3.5211,3.637,3.7898,3.9042,3.9796,4.1407,4.2865,4.3391,4.3915,4.3891,4.3868,4.3224,4.1995,4.0149,3.8684,3.8705,3.8958,3.9465,-6.7053,-6.7266,-6.7586,-6.8261,-6.9112,-6.9316,-6.9442,-6.9579,-6.9615,-6.9753,-6.9922,-6.9895,-6.9889,-6.97,-6.9352,-6.9164,-6.8871,-6.8254,-6.767,-6.7445,-6.7243,-6.7151,-6.7016,-6.6966,-6.6885,-6.6966,-6.6614,-6.6051,-6.5146,-6.4515,-6.3863,-6.3178,-6.2449,-6.2065,-6.2068,-6.2483,-6.2687,-6.2787,-6.3117,-6.2886,-6.2653,-6.2585,-6.2585,-6.2585,-6.2517,-6.3027,-6.3572,-6.3674,-6.3802,-6.4264,-6.3776,-6.364,-6.3742,-6.3768,-6.3312,-6.2273,-6.4115,-6.4878,-6.4573,-6.1111,-5.6293,-5.2784,-4.8625,-4.6847,-4.283,-3.8815,-3.498,-3.0511,-2.664,-2.2973,-2.0258,-1.7367,-1.3852,-1.1174,-0.7852,-0.3792,-0.0304,0.2741,0.4258,0.4711,0.7274,1.0275,1.4289,1.7865,2.0256,2.1888,2.3056,2.4478,2.6027,2.784,2.9385,3.064,3.1732,3.2444,3.3361,3.371,3.4171,3.4322,3.523,3.665,3.7919,3.919,4.0668,4.214,4.2768,4.2935,4.2791,4.2647,4.1407,4.0149,3.8195,3.7446,3.7724,3.8084,3.9272,-6.7518,-6.7593,-6.8224,-6.8683,-6.9074,-6.9204,-6.9346,-6.9563,-6.9676,-6.9775,-6.9824,-6.9752,-6.9685,-6.9535,-6.9161,-6.8892,-6.8637,-6.8011,-6.7485,-6.7202,-6.6987,-6.676,-6.6614,-6.6567,-6.666,-6.6379,-6.6185,-6.5624,-6.4572,-6.4188,-6.3589,-6.2819,-6.2207,-6.2135,-6.1997,-6.1608,-6.1139,-6.1139,-6.1325,-6.1285,-6.1391,-6.1675,-6.1994,-6.196,-6.1755,-6.2158,-6.2132,-6.2559,-6.244,-6.2166,-6.1801,-6.1439,-6.1133,-6.0866,-6.1012,-6.1269,-6.189,-6.2711,-6.2616,-6.0873,-5.789,-5.2986,-4.8904,-4.494,-4.0965,-3.62,-3.1828,-2.752,-2.3685,-1.9979,-1.6697,-1.3821,-1.0414,-0.8763,-0.5297,-0.1817,0.1822,0.5022,0.6537,0.8046,0.9229,1.0719,1.4437,1.7571,1.9662,2.1006,2.2467,2.4335,2.5886,2.7435,2.8985,3.0228,3.146,3.2414,3.3388,3.4567,3.5474,3.5494,3.5625,3.667,3.7554,3.8429,3.9818,4.1162,4.1774,4.1919,4.1675,4.1307,3.9943,3.845,3.7703,3.7059,3.7269,3.7763,3.8846,-6.789,-6.7995,-6.8811,-6.9241,-6.9279,-6.9316,-6.947,-6.9639,-6.9701,-6.9735,-6.9761,-6.9687,-6.9554,-6.9369,-6.9051,-6.8724,-6.85,-6.7745,-6.7283,-6.6987,-6.6804,-6.6485,-6.6379,-6.6379,-6.6343,-6.6051,-6.5799,-6.5146,-6.4079,-6.3898,-6.3213,-6.2449,-6.1608,-6.1747,-6.1425,-6.0725,-6.0158,-6.008,-6.0003,-6.0035,-6.0113,-6.0607,-6.0758,-6.0683,-6.0518,-6.0399,-6.0595,-6.11,-6.1002,-6.0736,-6.0544,-6.0465,-6.0371,-5.9822,-5.9703,-5.986,-6.1681,-6.2309,-6.2254,-6.0737,-5.8095,-5.2601,-4.6932,-4.211,-3.9494,-3.367,-2.8791,-2.479,-2.0968,-1.7111,-1.4218,-1.1192,-0.8162,-0.635,-0.3628,-0.0151,0.3185,0.6389,0.8367,0.941,1.0592,1.1915,1.4741,1.7434,1.8931,2.0278,2.231,2.4192,2.59,2.745,2.8985,3.0228,3.1578,3.2768,3.4189,3.5362,3.667,3.654,3.654,3.7297,3.8195,3.8831,3.8937,3.9943,4.069,4.0317,3.9943,3.9818,3.9063,3.7791,3.7039,3.6599,3.6917,3.7406,3.8378,-6.8057,-6.8403,-6.939,-6.9743,-6.9714,-6.9655,-6.9643,-6.9743,-6.9664,-6.9668,-6.9669,-6.9629,-6.9505,-6.9298,-6.8908,-6.8556,-6.8238,-6.7595,-6.7114,-6.676,-6.639,-6.6295,-6.6051,-6.5951,-6.5901,-6.552,-6.5486,-6.477,-6.3906,-6.3658,-6.3052,-6.231,-6.1352,-6.109,-6.0758,-6.0268,-5.961,-5.9323,-5.9355,-5.9355,-5.9323,-5.9483,-5.9483,-5.9242,-5.9112,-5.9397,-6.0582,-5.9474,-5.9455,-6.1904,-6.0391,-5.9626,-6.0325,-5.97,-5.9234,-5.9658,-6.1222,-6.1542,-6.083,-5.9633,-5.7799,-5.4033,-4.8464,-4.2117,-3.7161,-3.1066,-2.6786,-2.3452,-1.8235,-1.4351,-1.258,-1.0928,-0.8797,-0.621,-0.2421,0.1515,0.5312,0.822,0.9436,1.0777,1.2261,1.4031,1.6568,1.8051,1.9559,2.0435,2.2322,2.3631,2.5475,2.6903,2.8568,3.0365,3.1697,3.3145,3.4645,3.5601,3.65,3.667,3.6149,3.6909,3.7919,3.8174,3.8026,3.8916,3.9063,3.8577,3.8088,3.8067,3.7811,3.6909,3.6266,3.5954,3.611,3.6397,3.7334,-6.8954,-6.9148,-6.96,-6.9721,-6.9672,-6.9699,-6.9699,-6.9645,-6.9693,-6.9638,-6.9505,-6.9463,-6.9336,-6.9081,-6.8817,-6.8399,-6.7999,-6.7707,-6.7197,-6.6849,-6.6578,-6.6064,-6.5556,-6.5539,-6.5236,-6.4258,-6.4805,-6.4492,-6.3852,-6.341,-6.2754,-6.1675,-6.109,-6.0941,-6.0683,-5.9925,-5.9048,-5.8702,-5.8619,-5.865,-5.8784,-5.9161,-5.9242,-5.9032,-5.8742,-5.8561,-5.8537,-5.7715,-5.7828,-5.9671,-5.8961,-5.9242,-6.024,-5.956,-5.9126,-5.9435,-6.0206,-6.0481,-5.9277,-5.7779,-5.4215,-5.0388,-4.5569,-4.069,-3.4551,-2.637,-2.1077,-2.1209,-1.5933,-1.3165,-1.1079,-0.8495,-0.7589,-0.5154,-0.1212,0.3487,0.745,0.8674,0.9895,1.1235,1.3016,1.5244,1.6586,1.8384,1.9716,2.0738,2.1888,2.3188,2.4634,2.5928,2.787,3.0349,3.1697,3.3029,3.4608,3.5848,3.626,3.6429,3.5494,3.5606,3.624,3.661,3.6998,3.7148,3.7426,3.7188,3.7059,3.669,3.6319,3.595,3.5594,3.5286,3.5072,3.5158,3.5796,-6.9422,-6.9478,-6.9752,-6.9805,-6.9703,-6.9735,-6.9727,-6.9613,-6.9679,-6.9634,-6.9503,-6.9449,-6.9273,-6.8924,-6.8559,-6.8069,-6.7481,-6.7243,-6.6856,-6.6247,-6.6136,-6.5608,-6.4792,-6.4678,-6.4562,-6.3967,-6.4098,-6.4037,-6.341,-6.2888,-6.238,-6.1345,-6.0791,-6.0333,-5.9642,-5.8853,-5.8137,-5.7626,-5.7254,-5.711,-5.7167,-5.7366,-5.7594,-5.7508,-5.7172,-5.7006,-5.6779,-5.6205,-5.6459,-5.6546,-5.748,-5.8054,-5.8463,-5.8728,-5.8724,-5.8843,-5.944,-5.9352,-5.8443,-5.7737,-5.4508,-5.005,-4.3341,-3.8564,-3.3587,-2.6691,-2.1446,-1.9668,-1.5498,-1.2737,-1.0795,-0.8665,-0.7143,-0.44,-0.0909,0.3032,0.5766,0.7904,1.0197,1.1686,1.3165,1.4069,1.526,1.7048,1.8679,1.9851,2.1465,2.29,2.4205,2.5516,2.7591,2.992,3.1153,3.2509,3.4,3.5494,3.5756,3.506,3.4133,3.3734,3.4513,3.5192,3.5717,3.5998,3.5998,3.6018,3.6018,3.5776,3.54,3.5137,3.4937,3.4612,3.4276,3.4176,3.3833,-6.9609,-6.9625,-6.9878,-6.9933,-6.9813,-6.9771,-6.9715,-6.9611,-6.9587,-6.9593,-6.9541,-6.9468,-6.9236,-6.8836,-6.8325,-6.7559,-6.6957,-6.6695,-6.6366,-6.5732,-6.5663,-6.5107,-6.4209,-6.3906,-6.3844,-6.3469,-6.3595,-6.3213,-6.2517,-6.2034,-6.1497,-6.0715,-5.9786,-5.9144,-5.8472,-5.7539,-5.6366,-5.5882,-5.5388,-5.5138,-5.5138,-5.5231,-5.5481,-5.5544,-5.5484,-5.5484,-5.5576,-5.5361,-5.5531,-5.5191,-5.6158,-5.662,-5.6919,-5.7682,-5.8076,-5.8437,-5.9129,-5.9682,-5.8261,-5.6771,-5.3916,-4.8055,-4.0703,-3.5698,-3.1707,-2.6765,-2.2033,-1.9646,-1.6541,-1.3651,-1.0656,-0.9911,-0.9304,-0.5624,-0.0758,0.2425,0.5309,0.8674,0.9446,1.094,1.2574,1.3322,1.4077,1.5863,1.7648,1.9266,2.0884,2.2611,2.4062,2.536,2.7325,2.8413,2.9507,3.0863,3.2356,3.4266,3.4399,3.343,3.2491,3.1833,3.2626,3.3297,3.3982,3.4664,3.455,3.455,3.3996,3.3881,3.4378,3.403,3.35,3.3271,3.3192,3.2471,3.1594,-6.9757,-6.9726,-6.9929,-6.9923,-6.9791,-6.9755,-6.9691,-6.9611,-6.9603,-6.9593,-6.9559,-6.9411,-6.9074,-6.8603,-6.815,-6.7597,-6.6715,-6.6642,-6.6126,-6.5522,-6.5397,-6.4713,-6.3871,-6.3623,-6.3498,-6.292,-6.3052,-6.2788,-6.1642,-6.1032,-6.0323,-5.953,-5.8504,-5.7743,-5.7484,-5.6725,-5.6366,-5.5973,-5.5698,-5.5544,-5.5358,-5.5265,-5.5295,-5.5261,-5.5044,-5.4949,-5.4919,-5.47,-5.528,-5.6502,-5.7433,-5.8493,-6.0241,-6.04,-5.9428,-5.7816,-5.6822,-5.5846,-5.439,-5.2866,-4.9954,-4.586,-3.8277,-3.3188,-2.9523,-2.6375,-2.2045,-1.6983,-1.4846,-1.323,-0.9884,-0.8376,-0.6544,-0.3494,-0.0152,0.3487,0.6533,0.8371,0.9143,1.0191,1.183,1.2873,1.3472,1.5103,1.7923,1.9548,2.1454,2.3044,2.4647,2.58,2.6494,2.7325,2.8274,2.9645,3.1272,3.3181,3.1951,3.1255,3.0727,3.0195,3.0727,3.1391,3.2473,3.3297,3.3181,3.2274,3.1424,3.0973,3.1885,3.2271,3.1921,3.1789,3.1939,3.1361,3.0796,-7.0577,-6.984,-6.9933,-6.9773,-6.9601,-6.9679,-6.9704,-6.9521,-6.9555,-6.9576,-6.943,-6.9236,-6.8786,-6.8238,-6.7814,-6.7005,-6.6211,-6.6015,-6.5503,-6.4919,-6.4726,-6.4063,-6.3117,-6.2917,-6.2686,-6.2381,-6.2034,-6.1391,-6.0607,-5.9937,-5.9226,-5.842,-5.7999,-5.7429,-5.6814,-5.6276,-5.5729,-5.5078,-5.4795,-5.4605,-5.451,-5.4348,-5.4473,-5.4503,-5.4503,-5.4407,-5.4407,-5.4252,-5.5027,-5.6233,-5.7108,-5.8399,-5.9187,-5.9143,-5.8071,-5.669,-5.5802,-5.4776,-5.3146,-4.976,-4.6127,-4.2747,-3.8558,-3.3304,-2.8769,-2.6041,-2.3646,-1.9338,-1.7076,-1.4107,-1.0169,-0.8972,-0.6088,-0.2282,0.1673,0.4716,0.7003,0.8224,0.8835,0.9284,1.0482,1.153,1.2424,1.4947,1.7914,2.0122,2.2021,2.3619,2.5218,2.58,2.6226,2.7044,2.787,2.923,3.0727,3.047,2.8691,2.8953,2.8815,2.8676,2.9092,2.9629,3.0573,3.1391,3.0846,3.0041,2.9469,2.9661,3.0008,3.0335,3.0803,3.1024,3.0888,3.0597,3.0277,-7.1825,-7.0143,-7.0254,-6.9868,-6.9298,-6.9535,-6.9528,-6.9392,-6.9393,-6.9411,-6.9231,-6.8849,-6.8395,-6.7812,-6.7129,-6.6366,-6.5783,-6.5415,-6.4954,-6.4228,-6.4045,-6.3671,-6.2822,-6.2551,-6.2173,-6.1751,-6.1098,-6.0541,-5.9879,-5.8885,-5.8221,-5.7914,-5.7429,-5.6991,-5.6185,-5.5729,-5.5108,-5.4473,-5.4185,-5.3894,-5.3796,-5.3601,-5.363,-5.3502,-5.3796,-5.3699,-5.3699,-5.3659,-5.4099,-5.4719,-5.6053,-5.7121,-5.7667,-5.7475,-5.6499,-5.5384,-5.4322,-5.2523,-5.0823,-4.7753,-4.4525,-4.0921,-3.6333,-3.1447,-2.8535,-2.6239,-2.3827,-2.0983,-1.8375,-1.4963,-1.1674,-0.8362,-0.5788,-0.2438,0.1676,0.4723,0.5791,0.6855,0.7765,0.8376,0.8982,0.9884,1.1824,1.4054,1.7011,1.9662,2.1575,2.3344,2.4933,2.5644,2.5928,2.648,2.731,2.8537,2.9645,2.7731,2.6918,2.745,2.7591,2.745,2.7591,2.798,2.8119,2.8537,2.8398,2.8135,2.841,2.8634,2.896,2.9418,2.9988,3.0582,3.045,3.0292,2.9995,-7.3298,-7.177,-7.1657,-7.0687,-6.9354,-6.928,-6.9239,-6.9119,-6.8973,-6.8924,-6.8731,-6.8432,-6.7915,-6.7296,-6.692,-6.6459,-6.5886,-6.545,-6.4897,-6.4106,-6.3983,-6.3543,-6.299,-6.2516,-6.2171,-6.1927,-6.0875,-6.0268,-5.953,-5.844,-5.7366,-5.7167,-5.6337,-5.5881,-5.5727,-5.5231,-5.476,-5.4214,-5.3894,-5.3601,-5.3334,-5.3404,-5.3078,-5.2879,-5.3007,-5.3007,-5.2477,-5.262,-5.3297,-5.4283,-5.6561,-5.7245,-5.7053,-5.6839,-5.6376,-5.4222,-5.1582,-4.9372,-4.6785,-4.4115,-4.0943,-3.6278,-3.0896,-2.7214,-2.6451,-2.4411,-2.2574,-2.0559,-1.8051,-1.4038,-0.8202,-0.5788,-0.3047,-0.0609,0.0457,0.2892,0.5025,0.5487,0.6399,0.7314,0.8376,0.9284,1.1079,1.3158,1.6263,1.9077,2.0995,2.2768,2.4348,2.5218,2.536,2.5772,2.6056,2.7014,2.7155,2.5928,2.5928,2.6339,2.6494,2.6494,2.6636,2.7029,2.728,2.7029,2.6762,2.6636,2.6794,2.7502,2.8086,2.832,2.8909,2.9726,2.9844,2.9938,2.9995,-7.4819,-7.3102,-7.2179,-7.1723,-7.1334,-6.9923,-6.9532,-6.9842,-6.9259,-6.8705,-6.8319,-6.8127,-6.7634,-6.6957,-6.6633,-6.6259,-6.5886,-6.5522,-6.5011,-6.4373,-6.4045,-6.3607,-6.3123,-6.2619,-6.2031,-6.1391,-6.0421,-5.9338,-5.8523,-5.7366,-5.6605,-5.6337,-5.585,-5.5479,-5.5479,-5.5073,-5.4473,-5.3865,-5.3444,-5.3148,-5.2779,-5.285,-5.2621,-5.2979,-5.2607,-5.2405,-5.1635,-5.1504,-5.2102,-5.3342,-5.4112,-5.4023,-5.3653,-5.4316,-5.3709,-5.1837,-4.8912,-4.6055,-4.3254,-4.0859,-3.7471,-3.3321,-2.8695,-2.5923,-2.3593,-2.255,-2.0704,-1.8952,-1.6568,-1.3122,-0.7584,-0.4873,-0.3205,-0.1372,-0.0305,0.137,0.3502,0.4571,0.5487,0.701,0.7921,0.883,1.0325,1.241,1.507,1.7305,1.9224,2.2178,2.3631,2.4634,2.4777,2.4933,2.4933,2.5075,2.5075,2.5075,2.5231,2.5516,2.5644,2.58,2.58,2.6197,2.6592,2.6183,2.5928,2.58,2.5884,2.6533,2.7187,2.7668,2.8178,2.8786,2.9122,2.9502,2.9642,-7.629,-7.4493,-7.3169,-7.3009,-7.3174,-7.122,-7.0655,-7.1282,-6.9956,-6.9056,-6.8441,-6.7818,-6.732,-6.6751,-6.6331,-6.6037,-6.5936,-6.561,-6.5233,-6.4668,-6.4193,-6.3699,-6.335,-6.2687,-6.1997,-6.1212,-6.0003,-5.8803,-5.768,-5.696,-5.6034,-5.5911,-5.5727,-5.5511,-5.5231,-5.4635,-5.3903,-5.2864,-5.2493,-5.2291,-5.2016,-5.1987,-5.232,-5.255,-5.1737,-5.1194,-5.0909,-5.0356,-5.0363,-5.0627,-4.9921,-4.9164,-4.9887,-5.1077,-5.054,-4.8238,-4.5526,-4.2818,-4.0218,-3.699,-3.3898,-3.0335,-2.6805,-2.4042,-2.1274,-2.0827,-1.9391,-1.7334,-1.5392,-1.2675,-0.8326,-0.5778,-0.366,-0.2289,-0.0914,0.0913,0.2741,0.4115,0.5487,0.6858,0.7466,0.7769,0.9133,1.1517,1.345,1.5384,1.8041,2.1152,2.2611,2.3762,2.4205,2.4634,2.4634,2.4491,2.4634,2.4634,2.479,2.4933,2.5218,2.5502,2.536,2.5488,2.5772,2.563,2.5218,2.5218,2.536,2.5945,2.6277,2.6869,2.7479,2.7773,2.8274,2.9158,2.9438,-7.7772,-7.6297,-7.5741,-7.4754,-7.3658,-7.3132,-7.2765,-7.2641,-7.0983,-6.9957,-6.9207,-6.7735,-6.6929,-6.6521,-6.6234,-6.6087,-6.6037,-6.5715,-6.5397,-6.5011,-6.4527,-6.3949,-6.3671,-6.2822,-6.2171,-6.1642,-6.0158,-5.921,-5.8221,-5.6841,-5.6306,-5.6064,-5.5727,-5.5231,-5.448,-5.3806,-5.2921,-5.1914,-5.1504,-5.1166,-5.109,-5.1062,-5.1166,-5.1297,-5.0302,-4.9718,-4.9423,-4.9234,-4.8504,-4.5365,-4.3196,-4.431,-4.6408,-4.7717,-4.6874,-4.4074,-4.09,-3.7698,-3.4754,-3.2864,-2.993,-2.7084,-2.4113,-2.1637,-2.0827,-1.983,-1.8532,-1.6465,-1.5434,-1.2553,-0.9234,-0.532,-0.3203,-0.2137,-0.0762,0.137,0.3808,0.4726,0.5487,0.7014,0.7466,0.7921,0.8977,1.0482,1.2117,1.4046,1.7453,1.9965,2.143,2.3031,2.4062,2.4205,2.4205,2.4062,2.4062,2.4062,2.4348,2.4504,2.4919,2.4919,2.4777,2.4777,2.4933,2.5075,2.4933,2.479,2.4973,2.5109,2.5483,2.6052,2.6844,2.7135,2.7383,2.8374,2.8924,-7.8447,-7.7736,-7.6538,-7.6077,-7.6081,-7.4188,-7.3272,-7.2871,-7.1357,-6.9883,-6.8459,-6.7526,-6.6937,-6.6474,-6.6234,-6.6087,-6.6037,-6.5715,-6.5486,-6.5233,-6.4818,-6.4349,-6.3762,-6.2889,-6.189,-6.095,-5.9768,-5.872,-5.7539,-5.6814,-5.6155,-5.5697,-5.5108,-5.4385,-5.3553,-5.2793,-5.1812,-5.0909,-5.009,-4.9905,-5.0172,-4.9798,-4.9984,-5.0645,-5.0247,-4.9423,-4.8636,-4.7479,-4.593,-4.3983,-4.3258,-4.3229,-4.3668,-4.3806,-4.274,-4.0528,-3.7324,-3.456,-3.2354,-2.9898,-2.7642,-2.5261,-2.3049,-2.085,-1.9077,-1.8227,-1.6761,-1.4689,-1.273,-1.0766,-0.8344,-0.5778,-0.3201,-0.1372,0.0457,0.2437,0.4571,0.5639,0.6554,0.7162,0.7466,0.7617,0.8073,0.9727,1.1223,1.3158,1.642,1.8785,2.0402,2.2455,2.3918,2.4062,2.4062,2.4062,2.4062,2.4062,2.4205,2.4205,2.4348,2.4348,2.4205,2.4205,2.469,2.5048,2.465,2.4401,2.4704,2.4863,2.5129,2.5609,2.6258,2.6901,2.7334,2.8044,2.8288,-7.8659,-7.851,-7.7088,-7.7095,-7.7616,-7.5392,-7.3946,-7.3278,-7.169,-6.9827,-6.8032,-6.7327,-6.6723,-6.639,-6.6185,-6.6087,-6.5987,-6.568,-6.5486,-6.5323,-6.5046,-6.4373,-6.341,-6.2517,-6.1352,-6.0113,-5.9403,-5.8105,-5.6426,-5.6276,-5.5759,-5.4979,-5.4289,-5.3524,-5.2693,-5.1812,-5.0909,-4.988,-4.8828,-4.8719,-4.899,-4.8391,-4.8801,-4.9932,-4.9744,-4.9289,-4.85,-4.596,-4.3961,-4.2888,-4.2896,-4.2169,-4.0727,-3.9013,-3.7543,-3.5939,-3.3569,-3.1055,-2.9396,-2.7514,-2.5696,-2.3717,-2.221,-2.0264,-1.7214,-1.6992,-1.5526,-1.2758,-1.1247,-0.9722,-0.7752,-0.6237,-0.4113,-0.1066,0.1524,0.3808,0.5332,0.6703,0.7466,0.7466,0.7466,0.7617,0.8224,0.9582,1.1079,1.2281,1.54,1.8805,1.983,2.1575,2.3331,2.3488,2.3918,2.3918,2.3775,2.3775,2.3775,2.3775,2.3852,2.3891,2.4139,2.4295,2.478,2.5033,2.477,2.4558,2.4783,2.4441,2.4822,2.5115,2.557,2.5893,2.6519,2.7124,2.7349,-7.852,-7.8445,-7.7723,-7.748,-7.7475,-7.6608,-7.5292,-7.3985,-7.1851,-6.9966,-6.86,-6.6799,-6.61,-6.6234,-6.5987,-6.585,-6.5886,-6.5627,-6.5397,-6.5011,-6.4457,-6.3595,-6.2551,-6.1856,-6.0983,-5.9957,-5.9144,-5.7914,-5.6392,-5.576,-5.5018,-5.4289,-5.3455,-5.2593,-5.1709,-5.1325,-5.0278,-4.8881,-4.8223,-4.7642,-4.7108,-4.7082,-4.7307,-4.7195,-4.7865,-4.8002,-4.7531,-4.5352,-4.344,-4.1949,-3.9758,-3.834,-3.7079,-3.3867,-3.2023,-3.1665,-2.8521,-2.6496,-2.5041,-2.4701,-2.3878,-2.2103,-2.16,-2.0304,-1.7494,-1.7089,-1.6073,-1.269,-1.2032,-1.0644,-0.8055,-0.6991,-0.5326,-0.2439,0.1676,0.4723,0.6855,0.7162,0.7466,0.7466,0.7466,0.7769,0.883,1.0035,1.1386,1.2744,1.5128,1.7638,1.8952,2.0559,2.2166,2.3188,2.3775,2.3631,2.32,2.32,2.3188,2.3276,2.3502,2.38,2.442,2.4996,2.5564,2.5303,2.4918,2.4931,2.4666,2.4003,2.3756,2.3742,2.3952,2.4584,2.5146,2.5801,2.6305,-7.8419,-7.8023,-7.7679,-7.7385,-7.6957,-7.5628,-7.4006,-7.2178,-7.0341,-6.8457,-6.6898,-6.589,-6.5379,-6.5236,-6.5016,-6.5072,-6.5271,-6.5087,-6.469,-6.4098,-6.3567,-6.3017,-6.2278,-6.1822,-6.0767,-5.8951,-5.8189,-5.6986,-5.5238,-5.48,-5.4318,-5.3542,-5.2621,-5.1635,-5.0832,-5.0333,-4.9342,-4.7891,-4.7419,-4.6831,-4.6288,-4.574,-4.574,-4.6199,-4.6503,-4.6554,-4.625,-4.3959,-4.2512,-4.1607,-3.9147,-3.6181,-3.3527,-3.1221,-2.9199,-2.798,-2.5872,-2.4322,-2.3905,-2.29,-2.1704,-2.0995,-2.1357,-2.0249,-1.7153,-1.7163,-1.6099,-1.3174,-1.2269,-1.0946,-0.7904,-0.653,-0.4407,-0.1219,0.1828,0.396,0.5639,0.6706,0.7314,0.7466,0.7466,0.7925,0.8982,1.0186,1.1386,1.2901,1.5136,1.7353,1.7933,1.9976,2.1152,2.2178,2.29,2.29,2.2611,2.2467,2.2467,2.265,2.2918,2.3435,2.4568,2.5334,2.5645,2.536,2.5243,2.523,2.4044,2.3336,2.2298,2.1845,2.1463,2.2542,2.3717,2.4441,2.5309,-7.7911,-7.7558,-7.7225,-7.6855,-7.6322,-7.493,-7.3262,-7.1467,-6.9499,-6.7642,-6.6071,-6.5178,-6.4721,-6.4504,-6.4422,-6.4422,-6.4504,-6.4089,-6.3595,-6.3052,-6.2753,-6.2244,-6.1751,-6.1497,-6.0389,-5.8625,-5.7819,-5.6274,-5.4355,-5.4,-5.364,-5.2808,-5.1765,-5.0937,-5.0622,-5.0041,-4.9043,-4.7668,-4.7169,-4.6377,-4.5509,-4.4859,-4.4859,-4.5393,-4.5534,-4.5093,-4.401,-4.2018,-4.0893,-4.05,-3.826,-3.5397,-3.1916,-2.9321,-2.7531,-2.6183,-2.4023,-2.2706,-2.2599,-2.0995,-1.9581,-1.9378,-2.0082,-1.9014,-1.6132,-1.6361,-1.5434,-1.226,-1.1515,-1.0186,-0.7298,-0.5472,-0.3192,0.0457,0.274,0.4721,0.5943,0.6706,0.7314,0.7466,0.7466,0.7921,0.8982,1.0186,1.1386,1.2751,1.4689,1.6474,1.7057,1.8668,2.0132,2.0861,2.1442,2.1732,2.1587,2.1442,2.1297,2.1255,2.1737,2.2314,2.4233,2.5334,2.5516,2.5516,2.549,2.4967,2.3632,2.2397,2.12,2.0367,2.0015,2.0822,2.2165,2.3202,2.4298,-7.6957,-7.703,-7.6338,-7.6077,-7.5916,-7.4918,-7.3814,-7.1976,-6.9653,-6.788,-6.6658,-6.4916,-6.4211,-6.4323,-6.4402,-6.4098,-6.3595,-6.2886,-6.2381,-6.2209,-6.1863,-6.1358,-6.064,-6.0178,-5.9675,-5.9467,-5.7936,-5.5729,-5.3404,-5.3502,-5.3107,-5.2129,-5.1069,-5.0727,-5.1014,-5.0305,-4.9423,-4.7949,-4.7479,-4.6466,-4.4742,-4.4271,-4.4271,-4.4507,-4.4475,-4.3487,-4.1184,-3.993,-3.8787,-3.7811,-3.661,-3.4758,-3.1916,-2.8352,-2.6296,-2.5589,-2.2981,-2.1106,-2.0536,-1.8795,-1.782,-1.7506,-1.8011,-1.7458,-1.5518,-1.5598,-1.4362,-1.1012,-0.9948,-0.8518,-0.5794,-0.4726,-0.2895,0.1674,0.4414,0.6247,0.6858,0.7314,0.7466,0.7466,0.7466,0.7921,0.8977,1.018,1.1392,1.2601,1.4099,1.5285,1.6465,1.7205,1.7786,1.8805,1.9819,2.0122,2.0267,2.0278,1.9976,2.003,2.0686,2.2049,2.4233,2.5399,2.5606,2.5554,2.5529,2.5031,2.368,2.1274,2.0058,1.8644,1.903,1.925,2.0249,2.1248,2.2616,-7.6698,-7.6345,-7.6021,-7.5752,-7.5298,-7.3694,-7.2324,-7.0904,-6.808,-6.6267,-6.545,-6.4698,-6.4322,-6.4493,-6.4459,-6.3811,-6.238,-6.1252,-6.1024,-6.1458,-6.0541,-6.0003,-5.9595,-5.867,-5.8137,-5.7882,-5.6274,-5.4575,-5.2994,-5.2865,-5.2563,-5.2055,-5.1277,-5.0567,-5.0039,-4.9825,-4.8391,-4.6403,-4.6288,-4.5459,-4.3701,-4.2693,-4.2572,-4.3222,-4.1828,-4.0456,-3.9818,-3.8619,-3.7873,-3.7148,-3.4871,-3.259,-3.0507,-2.6815,-2.462,-2.4322,-2.2142,-2.0525,-2.01,-1.8365,-1.6742,-1.6107,-1.7073,-1.6869,-1.4584,-1.532,-1.4078,-1.1357,-1.0071,-0.8498,-0.5666,-0.3814,-0.2134,0.0457,0.274,0.4417,0.5639,0.6706,0.7314,0.7466,0.7466,0.7921,0.8982,1.018,1.1392,1.2601,1.38,1.4697,1.5434,1.6177,1.7205,1.7638,1.8365,1.8511,1.807,1.8227,1.7933,1.9171,2.0185,2.2381,2.4345,2.5298,2.5697,2.558,2.535,2.4865,2.3274,2.0548,1.8406,1.6608,1.6861,1.804,1.8684,1.9539,2.0647,-7.6345,-7.5735,-7.5533,-7.5145,-7.4503,-7.3142,-7.196,-7.0856,-6.7952,-6.6463,-6.5992,-6.5445,-6.4832,-6.4141,-6.3926,-6.2985,-6.1593,-6.0387,-6.0146,-6.0563,-5.9754,-5.9242,-5.9048,-5.7766,-5.7043,-5.6779,-5.5361,-5.3932,-5.2764,-5.2664,-5.249,-5.2157,-5.1457,-5.0909,-5.0384,-4.9718,-4.8254,-4.6149,-4.583,-4.4669,-4.2595,-4.1452,-4.1229,-4.1497,-3.9063,-3.7811,-3.8281,-3.646,-3.5397,-3.5397,-3.2572,-3.0129,-2.8598,-2.614,-2.4478,-2.3762,-2.1274,-1.9808,-1.9516,-1.7186,-1.5391,-1.4692,-1.5789,-1.5424,-1.4121,-1.3809,-1.2917,-1.0175,-0.8879,-0.7181,-0.445,-0.2593,-0.122,0.0152,0.1979,0.396,0.4876,0.6399,0.7466,0.7466,0.7466,0.7617,0.8527,0.9884,1.1235,1.2137,1.3494,1.4398,1.4838,1.5285,1.602,1.6317,1.69,1.7186,1.6029,1.6177,1.6631,1.8179,1.957,2.1109,2.2917,2.3769,2.4635,2.4307,2.4208,2.3553,2.2129,1.9654,1.8307,1.6518,1.6072,1.727,1.782,1.8823,1.9638,-7.5843,-7.511,-7.4857,-7.4413,-7.3592,-7.3254,-7.2656,-7.1571,-6.9457,-6.8453,-6.8072,-6.6896,-6.5291,-6.3466,-6.2635,-6.1978,-6.1229,-6.0113,-5.9689,-5.98,-5.9323,-5.8998,-5.872,-5.7594,-5.6867,-5.6334,-5.5112,-5.3932,-5.3036,-5.2836,-5.2764,-5.249,-5.1663,-5.1457,-5.1277,-5.0066,-4.8719,-4.7031,-4.6035,-4.4175,-4.143,-4.0937,-4.0068,-3.881,-3.639,-3.5494,-3.624,-3.343,-3.1697,-3.1697,-2.9612,-2.7825,-2.6437,-2.6155,-2.5177,-2.3619,-2.0547,-1.8648,-1.8051,-1.5557,-1.3647,-1.3363,-1.3809,-1.3517,-1.3172,-1.2033,-1.044,-0.8094,-0.634,-0.4551,-0.2771,-0.1376,-0.0305,-0.0,0.2741,0.4419,0.4878,0.6247,0.7314,0.7466,0.7466,0.7466,0.7466,0.9425,1.0777,1.1379,1.303,1.454,1.4689,1.454,1.4838,1.4838,1.4846,1.4689,1.4689,1.4987,1.5583,1.6788,1.7834,1.8277,2.016,2.188,2.2601,2.3089,2.2596,2.1669,2.0444,1.9119,1.7786,1.7205,1.677,1.6703,1.7438,1.8396,1.8634,-7.476,-7.3662,-7.4063,-7.3729,-7.28,-7.2366,-7.1693,-7.0903,-6.9271,-6.8158,-6.754,-6.6179,-6.4289,-6.2189,-6.1699,-6.092,-5.9772,-5.8579,-5.8337,-5.872,-5.7797,-5.7223,-5.6871,-5.5729,-5.5014,-5.47,-5.4252,-5.3767,-5.3502,-5.3136,-5.2736,-5.249,-5.2055,-5.1041,-4.9611,-4.918,-4.7616,-4.5277,-4.3701,-4.2359,-4.0915,-3.9042,-3.7534,-3.652,-3.4532,-3.3582,-3.3849,-3.1815,-3.0486,-3.009,-2.8274,-2.6874,-2.631,-2.5177,-2.3905,-2.2178,-1.9976,-1.7581,-1.5308,-1.5079,-1.4531,-1.3187,-1.3326,-1.3592,-1.3172,-1.1909,-1.0124,-0.813,-0.5175,-0.3209,-0.2355,-0.0924,-0.0609,-0.137,0.2284,0.4574,0.4419,0.6095,0.7466,0.7466,0.7466,0.7466,0.7769,0.9274,1.0777,1.1079,1.303,1.454,1.454,1.454,1.454,1.454,1.454,1.454,1.454,1.454,1.5285,1.6325,1.677,1.7491,1.9423,1.9894,2.0469,2.1098,2.0524,1.9622,1.8247,1.8375,1.7786,1.751,1.7214,1.6973,1.741,1.7317,1.7503,-7.4033,-7.294,-7.3288,-7.2764,-7.1811,-7.1385,-7.082,-6.995,-6.8353,-6.7426,-6.6726,-6.4739,-6.279,-6.0828,-6.0168,-5.9246,-5.8232,-5.7688,-5.7688,-5.7945,-5.7136,-5.6456,-5.5973,-5.4949,-5.4244,-5.3923,-5.3699,-5.3572,-5.3601,-5.3305,-5.2736,-5.2027,-5.154,-5.0411,-4.861,-4.759,-4.6099,-4.4199,-4.2238,-4.0646,-3.942,-3.7534,-3.6018,-3.5249,-3.4304,-3.3485,-3.2778,-3.1153,-2.9661,-2.8862,-2.7029,-2.59,-2.5616,-2.4777,-2.3475,-2.1744,-2.0559,-1.8618,-1.5342,-1.5244,-1.4619,-1.3466,-1.3611,-1.3275,-1.2431,-1.0842,-0.897,-0.707,-0.4448,-0.229,-0.1587,-0.0624,-0.0,0.0153,0.2741,0.4726,0.4419,0.6095,0.7466,0.7466,0.7466,0.7466,0.7617,0.8674,0.9727,1.1079,1.303,1.454,1.454,1.454,1.454,1.454,1.454,1.454,1.454,1.454,1.4987,1.5731,1.6029,1.6474,1.7776,1.8218,1.8511,1.9234,1.8679,1.7805,1.6168,1.7048,1.7795,1.8394,1.81,1.7805,1.809,1.7657,1.751,-7.3426,-7.2656,-7.2135,-7.1366,-7.0202,-7.0027,-6.945,-6.8553,-6.7146,-6.6386,-6.5606,-6.2916,-6.087,-5.9733,-5.8426,-5.7404,-5.6697,-5.7079,-5.7254,-5.711,-5.6933,-5.6366,-5.5606,-5.4854,-5.4147,-5.3826,-5.3728,-5.3572,-5.3572,-5.3502,-5.2679,-5.1194,-5.0517,-4.9558,-4.8281,-4.6213,-4.4689,-4.4172,-4.134,-3.9147,-3.7514,-3.6279,-3.5381,-3.5156,-3.4739,-3.3904,-3.2643,-3.0727,-2.9108,-2.7591,-2.6056,-2.4919,-2.4634,-2.4647,-2.3762,-2.1587,-2.1442,-2.0278,-1.6909,-1.5434,-1.4406,-1.398,-1.3663,-1.2861,-1.1016,-0.8952,-0.6996,-0.5278,-0.3497,-0.1651,-0.0319,0.0472,0.1398,0.2747,0.4419,0.5183,0.5338,0.6399,0.7466,0.7466,0.7466,0.7466,0.7466,0.7617,0.8371,1.0331,1.2594,1.4249,1.4548,1.454,1.454,1.454,1.454,1.454,1.454,1.454,1.4689,1.4689,1.4689,1.5285,1.6168,1.6752,1.7048,1.7619,1.7481,1.6613,1.6177,1.6465,1.7362,1.8394,1.8983,1.8983,1.8414,1.8267,1.8552,-7.24,-7.0903,-6.927,-6.7839,-6.6638,-6.6382,-6.6006,-6.5705,-6.5294,-6.4259,-6.2722,-6.0562,-5.918,-5.83,-5.7115,-5.6577,-5.6427,-5.5789,-5.5697,-5.6216,-5.585,-5.5448,-5.5073,-5.4599,-5.4244,-5.402,-5.3699,-5.3572,-5.3473,-5.2808,-5.1868,-5.109,-4.9691,-4.8417,-4.7195,-4.663,-4.5203,-4.2961,-4.0274,-3.8281,-3.7188,-3.6168,-3.5644,-3.5532,-3.3029,-3.1425,-3.088,-2.8552,-2.6777,-2.6211,-2.5488,-2.5062,-2.4933,-2.3344,-2.1732,-2.0256,-1.8952,-1.7205,-1.5285,-1.4846,-1.4249,-1.3651,-1.2861,-1.1812,-1.0324,-0.7782,-0.5283,-0.3505,-0.1822,-0.0656,0.0162,0.2043,0.4448,0.6112,0.6558,0.6703,0.6855,0.7162,0.7466,0.7466,0.7466,0.7314,0.7466,0.7466,0.8073,0.9587,1.1699,1.3501,1.4391,1.454,1.454,1.454,1.454,1.454,1.454,1.454,1.454,1.454,1.454,1.4838,1.4987,1.5136,1.5434,1.5714,1.5434,1.5434,1.5136,1.5583,1.6918,1.8542,1.9423,1.9569,1.914,1.9287,1.9997,-7.0476,-6.9175,-6.7265,-6.6095,-6.5435,-6.5051,-6.4722,-6.4375,-6.279,-6.1257,-5.9986,-5.8569,-5.7626,-5.7048,-5.5882,-5.5235,-5.5142,-5.4289,-5.4252,-5.4949,-5.4569,-5.4473,-5.4628,-5.4311,-5.4117,-5.3796,-5.3177,-5.2879,-5.2779,-5.1737,-5.0882,-5.0251,-4.8854,-4.7419,-4.597,-4.5368,-4.4057,-4.1896,-3.9221,-3.7371,-3.6064,-3.4182,-3.3085,-3.2724,-3.1102,-2.9629,-2.8626,-2.6836,-2.5282,-2.3975,-2.3709,-2.3405,-2.2798,-2.2432,-2.1094,-1.8618,-1.8365,-1.7195,-1.4689,-1.454,-1.4398,-1.395,-1.2593,-1.0835,-0.8367,-0.5385,-0.3392,-0.2455,-0.0327,0.1139,0.1608,0.3457,0.5549,0.7178,0.747,0.7466,0.7466,0.7466,0.7466,0.7314,0.7014,0.7014,0.7314,0.7014,0.7466,0.9582,1.0934,1.2594,1.4241,1.4092,1.395,1.4398,1.454,1.454,1.454,1.454,1.454,1.454,1.454,1.454,1.454,1.5285,1.5583,1.5583,1.5731,1.5871,1.6752,1.69,1.7205,1.8384,1.9129,1.9862,1.9423,1.9569,2.0581,-6.88,-6.7817,-6.5899,-6.4911,-6.4759,-6.4377,-6.4001,-6.3459,-5.9941,-5.8137,-5.7571,-5.681,-5.6305,-5.6003,-5.4516,-5.3748,-5.3386,-5.2764,-5.2864,-5.3611,-5.3288,-5.3513,-5.4214,-5.3894,-5.3699,-5.3404,-5.2348,-5.1868,-5.1504,-5.0462,-4.9584,-4.9045,-4.7976,-4.6542,-4.4976,-4.3844,-4.2485,-4.0714,-3.873,-3.6866,-3.5412,-3.289,-3.0797,-2.9424,-2.9521,-2.85,-2.6096,-2.5357,-2.4006,-2.1834,-2.1476,-2.0898,-1.9829,-2.0923,-2.0262,-1.7025,-1.7938,-1.7312,-1.4156,-1.4025,-1.3939,-1.377,-1.1987,-0.953,-0.6458,-0.3248,-0.1579,-0.1742,0.0482,0.258,0.3485,0.4401,0.5746,0.7182,0.7466,0.7466,0.7466,0.7466,0.7466,0.7466,0.671,0.6558,0.7166,0.671,0.7162,0.9727,1.0627,1.153,1.3194,1.3351,1.3351,1.4099,1.4249,1.4241,1.454,1.454,1.454,1.454,1.454,1.4689,1.4987,1.6029,1.677,1.7205,1.7205,1.7638,1.8658,1.8952,1.8658,1.8521,1.984,2.0884,2.0143,1.9997,2.0727,-6.9083,-6.7621,-6.4917,-6.286,-6.1463,-6.1418,-6.1152,-6.0645,-5.7609,0.0,0.0,-5.5546,-5.5268,-5.5082,-5.3455,-5.2892,-5.3386,-5.1987,-5.1783,-5.2464,-5.2089,-5.242,-5.3288,-5.2793,-5.2593,-5.2521,-5.2145,-5.1429,-5.0435,-4.9072,-4.817,-4.7891,-4.6567,-4.5583,-4.4976,-4.4718,-4.301,-3.9871,-3.9273,-3.8744,-3.8402,-3.7364,-3.4704,-3.0627,-3.014,-2.8109,-2.4455,-2.3765,-2.2434,-2.0362,-1.9183,-1.8502,-1.8092,-1.6552,-1.5559,-1.527,-1.4158,-1.2717,-1.1159,-1.1219,-1.1097,-1.0592,-0.9113,-0.7849,-0.7091,-0.3761,-0.1897,-0.1898,-0.0,0.2061,0.3316,0.4813,0.6278,0.7322,0.7466,0.7466,0.7466,0.7466,0.7466,0.7314,0.7162,0.7162,0.7314,0.6558,0.6862,0.8982,0.9878,1.0325,1.1386,1.2144,1.2594,1.2901,1.2287,1.2437,1.3942,1.4548,1.454,1.454,1.454,1.4987,1.6168,1.677,1.7353,1.8511,1.8795,1.8941,1.9224,1.938,1.9673,2.1442,2.2166,2.2335,2.2178,2.2178,2.2611,-6.784,-6.6349,-6.386,-6.2022,0.0,-5.9627,-5.8917,-5.8221,-5.6274,-5.5082,-5.4516,-5.365,-5.3259,-5.3189,-5.1607,-5.1118,-5.1429,-5.0172,-5.0145,-5.0931,-5.0462,-5.0826,-5.1829,-5.1345,-5.1166,-5.1166,-5.0567,-4.9959,-4.9315,-4.8002,-4.6545,-4.4983,-4.4236,-4.2757,-4.0678,-4.1114,-4.0415,-3.8724,-3.8481,-3.83,-3.8134,-3.5656,-3.2584,-2.922,-2.8742,0.0,0.0,0.0,0.0,0.0,0.0,0.0,0.0,-1.5506,0.0,-1.3305,-1.1984,-1.0642,-0.9045,-0.748,-0.7194,-0.8632,-0.8569,-0.7486,-0.503,-0.2524,-0.1132,-0.0991,0.1464,0.3321,0.3555,0.5069,0.5949,0.5791,0.625,0.6706,0.6558,0.7014,0.7466,0.7314,0.6706,0.625,0.671,0.5949,0.6554,0.8977,0.9878,1.047,1.1072,1.0922,1.0621,1.0331,1.0476,1.153,1.3344,1.4099,1.454,1.454,1.454,1.5285,1.6622,1.75,1.8658,1.9976,2.0413,2.0704,2.1274,2.1129,2.0995,2.1877,2.2755,2.3475,2.4062,2.4205,2.4491,-6.6846,-6.5347,-6.3233,-6.1717,-6.0525,-5.8147,-5.681,-5.6094,-5.4894,-5.3845,-5.2892,-5.1812,-5.1222,-5.1118,-4.9934,-4.9422,-4.9341,-4.8522,-4.8579,-4.9396,-4.8854,-4.9235,-5.0169,-5.0011,-4.9825,-4.9825,-4.9016,-4.8496,-4.8275,-4.721,-4.5458,-4.3047,-4.2889,-4.1064,-3.7549,0.0,0.0,0.0,-3.7877,-3.8107,-3.7871,-3.438,-3.0976,-2.8051,-2.8231,0.0,-2.4247,-2.341,-2.2555,-2.1126,-1.9409,0.0,0.0,0.0,0.0,0.0,0.0,0.0,0.0,0.0,0.0,0.0,-0.7783,-0.6499,-0.2259,-0.1024,-0.0483,-0.012,0.2261,0.3849,0.3916,0.441,0.4314,0.3902,0.4809,0.559,0.5946,0.6558,0.701,0.6858,0.5791,0.5183,0.5645,0.5185,0.5937,0.8967,0.9717,1.0013,1.0314,0.9254,0.8202,0.7757,0.9269,1.1091,1.2601,1.38,1.454,1.454,1.454,1.5277,1.7048,1.8511,1.9684,2.1732,2.2021,2.2467,2.3475,2.3188,2.2467,2.2178,2.32,2.4348,2.536,2.5644,2.5786,-6.767,-6.6095,-6.3487,-6.1904,-6.0646,-5.6216,-5.4266,-5.4075,-5.2363,-5.1607,-5.1401,-5.0727,-5.0411,-5.012,-4.9369,-4.8961,-4.8742,-4.808,-4.7969,-4.808,-4.7668,-4.806,-4.9153,-4.8908,-4.8798,-4.8825,-4.8606,-4.808,-4.7097,-4.6364,-4.578,-4.5392,-4.4933,-4.3301,-4.0764,-3.8794,-3.7497,-3.6608,-3.9443,-4.0761,-4.0557,-3.9585,-3.644,-3.0861,-3.1459,-2.9465,-2.4279,-2.4136,-2.281,-1.9689,-1.8283,-1.6574,-1.4697,-1.3371,-1.1526,0.0,-0.6635,0.0,0.0,0.0,0.0,0.0,0.0,0.0,0.0,-0.0825,-0.1255,-0.0305,-0.0503,0.0676,0.4231,0.1274,-0.0,0.2411,0.3279,0.4645,0.6832,0.6565,0.5949,0.5185,0.503,0.4878,0.487,0.4419,0.5171,0.8202,0.7417,0.6323,0.7131,0.7421,0.7119,0.5487,0.7613,1.004,1.215,1.38,1.454,1.454,1.454,1.5574,1.8365,1.9088,2.0245,2.2743,2.3488,2.3631,2.3775,2.3775,2.3788,2.4075,2.4205,2.4491,2.5075,2.536,2.5658,-6.7364,-6.516,-6.3151,-6.12,-5.9027,-5.431,-5.2363,-5.2493,-5.1194,-5.0517,-5.0227,-5.0041,-4.9611,-4.9043,-4.8496,-4.8275,-4.8191,-4.772,-4.747,-4.747,-4.7159,-4.7271,-4.7805,-4.7746,-4.7634,-4.7634,-4.7522,-4.721,-4.6668,-4.6185,-4.5218,-4.3741,-4.3468,-4.1052,-3.6699,-3.6869,-3.7729,-3.9114,-4.0667,-4.1658,-4.2048,-4.0274,-3.7469,-3.375,-3.3176,-3.0939,-2.6622,-2.6123,-2.4871,-2.258,-2.0746,-1.8826,-1.7102,-1.3433,-1.0594,0.0,0.0,0.0,0.0,0.0,0.0,0.0,0.0,0.0,0.0,0.0,-0.0327,-0.0,0.0346,0.076,0.1128,0.0476,0.0248,0.0987,0.2045,0.2856,0.3037,0.3988,0.4136,0.2597,0.2706,0.3071,0.3509,0.3217,0.4278,0.7274,0.3914,0.1538,0.28,0.3302,0.3655,0.3661,0.5389,0.7765,1.0633,1.3044,1.454,1.454,1.454,1.5574,1.8638,1.9224,2.0245,2.3188,2.3918,2.3918,2.3918,2.3918,2.4205,2.4647,2.4504,2.4361,2.4647,2.5062,2.5502,-6.6006,-6.3735,-5.9015,-5.6277,-5.4764,-5.0939,-4.9961,-5.1014,-5.0305,-4.9502,-4.8539,-4.8965,-4.7685,-4.5264,-4.4043,-4.4197,-4.5512,-4.5112,-4.5719,-4.6995,-4.6845,-4.6782,-4.6782,-4.6643,-4.6668,-4.6643,-4.591,-4.5795,-4.625,-4.4906,-4.2977,-4.0885,-4.0339,-3.7511,-3.2651,-3.4963,-3.7947,-4.11,-4.185,-4.2637,-4.3273,-4.0893,-3.845,-3.6194,-3.4985,-3.2877,-2.9612,-2.866,-2.7421,-2.5616,-2.3104,-2.0746,-1.861,-1.3286,0.0,0.0,0.0,0.0,0.0,0.0,0.0,0.0,0.0,0.095,0.1337,0.0,0.1053,0.0,0.125,0.0919,-0.0742,-0.033,0.0,0.0,0.1104,0.135,0.0446,0.194,0.2318,0.0602,0.0522,0.0824,0.1374,0.1381,0.2403,0.5193,0.1398,-0.1321,-0.0261,-0.0137,0.0423,0.1675,0.3149,0.4983,0.6949,1.0875,1.4056,1.4516,1.454,1.5714,1.8638,1.9224,2.0256,2.3175,2.3918,2.3918,2.3918,2.3918,2.4205,2.4634,2.4478,2.4361,2.4634,2.4919,2.536,-6.3665,-6.2381,-4.8055,-4.366,-4.6164,-4.4549,-4.6182,-4.9932,-4.9315,-4.7739,-4.5728,-4.725,-4.3885,-3.6724,-3.2771,0.0,-3.8983,-3.8646,-4.1381,-4.6529,-4.6529,-4.6439,-4.6439,-4.6185,-4.616,-4.6414,-4.4017,-4.3927,-4.564,-4.1451,-3.8482,-3.7143,-3.5616,-3.3672,-3.1644,-3.4575,-3.7492,-4.0169,-4.3136,-4.4664,-4.4718,-4.3344,-4.0941,-3.7326,-3.7461,-3.6051,-3.2643,-3.1697,-3.0041,-2.7191,-2.3662,-2.0221,-1.6691,0.0,0.0,0.0,0.0,0.0,0.0,0.0,0.0,0.0,0.0,0.0,0.0,0.0,0.0,0.2328,0.0741,0.0,0.0662,-0.2161,0.0,0.0,0.0,0.0538,0.2074,0.1894,0.1093,-0.0,0.0,0.0,-0.1644,-0.1808,-0.0803,0.24,0.1128,-0.0413,-0.0787,-0.0544,-0.0139,-0.0397,0.1319,0.2092,0.1684,0.7323,1.2506,1.387,1.454,1.5524,1.8295,1.9046,2.0391,2.3331,2.3918,2.3918,2.3918,2.3918,2.3905,2.4062,2.4491,2.5075,2.5062,2.5502,2.58,-5.3469,-4.6535,-3.882,-3.706,-3.9079,-3.7205,-3.949,-4.446,-4.2826,-4.1538,-4.0784,-4.0537,-3.6849,-3.0482,-2.863,0.0,0.0,0.0,-3.5333,-4.0845,-4.0895,-4.2767,-4.5945,-4.593,-4.593,-4.602,-4.414,-4.3556,-4.4434,-4.1536,-3.5105,-2.5453,0.0,-2.3956,-2.3076,-2.9457,-3.4372,-3.7696,-4.2231,-4.4554,-4.4578,-4.4652,-4.3201,-4.005,-3.8502,-3.62,-3.2912,-3.1272,-2.8512,-2.4558,-2.3562,-2.0012,0.0,0.0,0.0,0.0,0.0,0.0,0.0,0.0,0.0,0.0,0.0,0.1921,0.1907,0.0,0.0,0.0,0.1308,0.1191,0.1734,0.0238,0.0,0.0,0.0,0.0,0.0,0.0,0.0,-0.3517,-0.1679,-0.0,0.0591,-0.141,-0.2378,-0.1115,-0.2659,-0.3867,-0.3429,0.0,-0.1544,0.0781,0.1173,0.1837,0.4003,0.729,0.9718,1.0614,1.164,1.3434,1.5572,1.7851,1.9954,2.2021,2.3331,2.3918,2.3918,2.4335,2.4634,2.4919,2.5616,2.6324,2.6324,2.6762,2.6903,-4.1496,0.0,0.0,0.0,0.0,-3.0203,-3.276,-3.7792,-3.5848,-3.4643,-3.3995,-3.3408,0.0,0.0,0.0,0.0,0.0,0.0,-3.0251,-3.56,-3.7777,-4.0632,-4.4114,-4.4416,-4.4416,-4.4114,-4.1919,-4.0733,-4.0233,-3.7221,-2.9089,-1.6634,0.0,0.0,0.0,0.0,-3.0373,-3.4178,-4.0399,-4.3778,-4.3778,-4.4653,-4.4177,-4.2256,-3.9509,-3.659,-3.36,-3.0628,-2.7214,-2.3261,-2.0396,0.0,0.0,0.0,0.0,0.0,0.0,0.0,0.0,0.0,0.0,0.0,0.0,0.0,0.0,0.0,0.0,0.0,0.0,0.0,0.2147,0.1731,0.0846,0.0,0.0,0.0,0.0,0.0,0.0,0.0,0.0,0.0,0.3041,0.0429,-0.1673,0.0,0.0,-0.4263,-0.4282,-0.3358,-0.1841,0.049,-0.0,0.0,0.4535,0.6316,0.7473,0.8063,1.0155,1.2301,1.3596,1.577,1.7786,1.9454,2.1437,2.2723,2.2016,2.2115,2.2451,2.2878,2.3579,2.4177,2.4359,2.4555,2.4625,0.0,0.0,0.0,0.0,-2.4114,0.0,0.0,0.0,-2.9522,-2.7605,0.0,-2.6429,0.0,0.0,0.0,0.0,-1.8087,-2.1871,0.0,0.0,-3.8491,-4.1218,-4.0034,-4.0966,-4.0928,-3.9829,-3.6436,-3.4136,-3.2577,-2.6048,0.0,0.0,0.0,0.0,0.0,0.0,-2.5542,-2.9055,-3.7863,-4.2428,-4.2495,-4.2814,-4.3265,-4.3766,-4.0947,-3.7878,-3.4814,-3.0249,-2.6736,-2.4163,-1.3241,0.0,0.0,0.0,0.0,0.0,0.0,0.0,0.0,0.0,0.0,0.0,0.0,0.0,0.0,0.0,0.0,0.0,0.0,0.0,0.0,0.1175,0.0,0.0,0.0,0.0,0.0,0.0,0.0,0.0,0.0,-0.009,0.4636,0.3416,0.1859,0.0615,0.0,0.0,0.0,0.0,-0.0744,-0.2789,-0.2794,-0.1962,-0.1059,0.3051,0.6506,0.7685,0.0,0.0,1.4256,1.3349,1.3272,1.52,1.8393,1.9878,1.7072,1.663,1.6677,1.6989,1.7293,1.713,1.7466,1.8342,1.8038,0.0,0.0,0.0,0.0,0.0,0.0,0.0,0.0,0.0,-2.0816,-1.9427,-1.8979,0.0,0.0,0.0,0.0,0.0,0.0,0.0,0.0,-2.6469,-2.9459,-3.1773,-3.3494,-3.34,0.0,-2.9523,-2.5719,0.0,0.0,0.0,0.0,0.0,0.0,0.0,0.0,-2.4621,-2.7545,-3.7027,-4.2442,-4.3276,-4.3782,-4.3868,-4.3167,-4.1435,-3.733,-3.0511,-2.6487,-2.2397,0.0,0.0,0.0,0.0,0.0,0.0,0.0,0.0,0.0,0.0,0.0,0.0,0.0,0.0,0.0,0.0,0.0,0.0,0.0,0.0,0.0,0.0,0.0,0.2298,0.0,0.0,0.0,0.0,0.0,0.0,0.0,0.0,0.0,0.509,0.0523,-0.1598,0.1532,-0.0683,-0.2318,-0.1142,0.0,0.0,0.0,0.0,0.0,0.0,0.0,0.4554,0.5472,0.5844,0.6621,0.841,1.0491,1.2207,1.3021,0.0,0.0,1.3108,1.4195,1.5684,1.5552,1.6439,1.7255,1.7284,1.7286,1.7281,0.0,0.0,0.0,0.0,0.0,0.0,0.0,0.0,0.0,-1.415,-1.3527,0.0,0.0,0.0,0.0,0.0,0.0,0.0,0.0,0.0,0.0,0.0,-2.5173,-2.7314,0.0,0.0,0.0,0.0,0.0,0.0,0.0,0.0,0.0,0.0,0.0,0.0,-2.3371,-2.6169,-3.6068,-4.2083,-4.3697,-4.3933,-4.3739,-4.3542,-4.1302,-3.6737,-2.9614,0.0,0.0,0.0,0.0,0.0,0.0,0.0,0.0,0.0,0.0,0.0,0.0,0.0,0.0,0.0,0.0,0.0,0.0,0.0,0.0,0.0,0.0,0.0,0.0,0.0,0.3128,0.0,0.0,0.0,0.0,0.0,0.0,0.0,0.0,0.0,0.0,0.0224,-0.0772,0.2446,0.0209,-0.121,0.0341,-0.0358,-0.0373,0.0,0.0,0.0,0.0,0.0,0.0,0.0,0.0,0.0,0.0,0.0,0.0,0.0,0.0,1.1978,0.97,1.1074,1.2531,1.2338,0.0,0.0,0.0,0.0,0.0,0.0,0.0,0.0,0.0,0.0,0.0,0.0,0.0,0.0,0.0,-0.7882,0.0,0.0,-0.5842,0.0,0.0,0.0,0.0,0.0,0.0,0.0,0.0,0.0,0.0,0.0,0.0,0.0,0.0,0.0,0.0,0.0,0.0,0.0,0.0,0.0,0.0,-2.1741,-2.4215,-3.4993,-4.1548,-4.3741,-4.2853,-4.3193,-4.4841,-4.0515,-3.6272,-3.26,0.0,0.0,0.0,0.0,0.0,0.0,0.0,0.0,0.0,0.0,0.0,0.0,0.0,0.0,0.0,0.0,0.0,0.0,0.0,0.0,0.0,0.0,0.0,0.0,0.0,0.0,0.492,0.0542,-0.1584,0.0,0.0,0.0,0.0,0.0,0.0,0.0,0.0,0.0,0.3417,0.3771,0.3659,0.2536,-0.0118,-0.0833,0.2085,0.3706,0.4719,0.5169,0.5605,0.6181,0.0,0.0,0.0,0.0,0.0,0.0,0.0,0.0,0.0,0.0,0.0,0.0,0.0,0.0,0.0,0.0,0.0,0.0,0.0,0.0,0.0,0.0,0.0,0.0,0.0,0.0,0.0,0.0,0.0,0.0,0.0,0.0,0.0,0.0,0.0,0.0,0.0,0.0,0.0,0.0,0.0,0.0,0.0,0.0,0.0,0.0,0.0,0.0,0.0,0.0,0.0,0.0,0.0,0.0,-2.2098,-2.4153,-3.4857,-4.1268,-4.2829,-4.2029,-4.2341,-4.36,-3.8071,-3.3893,0.0,0.0,0.0,0.0,0.0,0.0,0.0,0.0,0.0,0.0,0.0,0.0,0.0,0.0,0.0,0.0,0.0,0.0,0.0,0.0,0.0,0.0,0.0,0.0,0.0,0.0,0.0,0.0,0.218,0.0686,0.0744,0.0,0.0,0.0,0.0,0.0,0.0,0.0,0.0,0.0,0.0,0.1508,0.1285,0.1211,0.1354,0.1954,0.4681,0.6735,0.7169,0.6918,0.663,0.6164,0.0,0.0,0.0,0.0,0.0,0.0,0.0,0.0,0.0,0.0,0.0,0.0,0.0,0.0,0.0,0.0,0.0,0.0,0.0,0.0,0.0,0.0,0.0,0.0,0.0,0.0,0.0,0.0,0.0,0.0,0.0,0.0,0.0,0.0,0.0,0.0,0.0,0.0,0.0,0.0,0.0,0.0,0.0,0.0,0.0,0.0,0.0,0.0,0.0,0.0,0.0,0.0,0.0,-2.2277,-2.503,-3.5288,-4.1774,-4.3824,-4.2159,-4.1919,-4.3423,-3.6888,-3.1848,0.0,0.0,0.0,0.0,0.0,0.0,0.0,0.0,0.0,0.0,0.0,0.0,0.0,0.0,0.0,0.0,0.0,0.0,0.0,0.0,0.0,0.0,0.0,0.0,0.0,0.0,0.0,0.0,0.2667,0.253,0.1487,0.0,0.0,0.0,0.0,0.0,0.0,0.0,0.0,0.0,0.0,0.0294,0.011,0.0458,0.0,0.0,0.4249,0.6585,0.7673,0.7371,0.675,0.5649,0.441,0.0,0.0,0.0,0.0,0.0,0.0,0.0,0.0,0.0,0.0,0.0,0.0,0.0,0.0,0.0,0.0,0.0,0.0,0.0,0.0,0.0,0.0,0.0,0.0,0.0,0.0,0.0,0.0,0.0,0.0,0.0,0.0,0.0,0.0,0.0,0.0,0.0,0.0,0.0,0.0,0.0,0.0,0.0,0.0,0.0,0.0,0.0,0.0,0.0,0.0,0.0,0.0,-2.2281,-2.6192,-3.5823,-4.2644,-4.598,-4.2885,-4.1973,-4.3366,-3.6699,-3.0282,0.0,0.0,0.0,0.0,0.0,0.0,0.0,0.0,0.0,0.0,0.0,0.0,0.0,0.0,0.0,0.0,0.0,0.0,0.0,0.0,0.0,0.0,0.0,0.0,0.0,0.0,0.0,0.0,0.0,0.0,0.0,0.0,0.0,0.0,0.0,0.0,0.0,0.0,0.0,0.0,0.0,0.036,-0.0781,-0.1214,-0.0748,0.0,0.2961,0.4838,0.6917,0.7173,0.6491,0.4869,0.0,0.0,0.0,0.0,0.0,0.0,0.0,0.0,0.0,0.0,0.0,0.0,0.0,0.0,0.0,0.0,0.0,0.0,0.0,0.0,0.0,0.0,0.0,0.0,0.0,0.0,0.0,0.0,0.0,0.0,0.0,0.0,0.0,0.0,0.0,0.0,0.0,0.0,0.0,0.0,0.0,0.0,0.0,0.0,0.0,0.0,0.0,0.0,0.0,0.0,0.0,0.0,0.0,0.0,-2.3443,-3.4065,-4.0449,-4.2306,-4.1227,-4.1745,-4.3745,-3.6156,0.0,0.0,0.0,0.0,0.0,0.0,0.0,0.0,0.0,0.0,0.0,0.0,0.0,0.0,0.0,0.0,0.0,0.0,0.0,0.0,0.0,0.0,0.0,0.0,0.0,0.0,0.0,-0.0603,0.0,0.0,0.0,0.0,0.0,0.0,0.0,0.0,0.0,0.0,0.0,0.0,0.0,0.0,0.3031,-0.0522,0.2869,0.4983,0.0,0.0,0.5004,0.7615,0.6914,0.5164,0.0,0.0,0.0,0.0,0.0,0.0,0.0,0.0,0.0,0.0,0.0,0.0,0.0,0.0,0.0,0.0,0.0,0.0,0.0,0.0,0.0,0.0,0.0,0.0,0.0,0.0,0.0,0.0,0.0,0.0,0.0,0.0,0.0,0.0,0.0,0.0,0.0,0.0,0.0,0.0,0.0,0.0,0.0,0.0,0.0,0.0,0.0,0.0,0.0,0.0,0.0,0.0,0.0,0.0,-1.9836,-2.3339,-3.2165,-3.8405,-4.1683,-4.1507,-4.1896,-4.3152,-3.5749,-2.973,0.0,0.0,0.0,0.0,0.0,0.0,0.0,0.0,0.0,0.0,0.0,0.0,0.0,0.0,0.0,0.0,0.0,0.0,0.0,0.0,0.0,0.0,0.0,0.0,0.0,0.0,0.0,0.0,0.0,0.0,0.0,0.0,0.0,0.0,0.0,0.0,0.0,0.0,0.0,0.0,0.0,0.0,0.048,0.4321,0.0,0.0,0.0,0.6474,0.8137,0.0,0.0,0.0,0.0,0.0,0.0,0.0,0.0,0.0,0.0,0.0,0.0,0.0,0.0,0.0,0.0,0.0,0.0,0.0,0.0,0.0,0.0,0.0,0.0,0.0,0.0,0.0,0.0,0.0,0.0,0.0,0.0,0.0,0.0,0.0,0.0,0.0,0.0,0.0,0.0,0.0,0.0,0.0,0.0,0.0,0.0,0.0,0.0,0.0,0.0,0.0,0.0,0.0,0.0,0.0,0.0,0.0,-2.3969,-3.0299,-3.6461,-4.2322,-4.2526,-4.2405,-4.2192,-3.5958,-3.0057,0.0,0.0,0.0,0.0,0.0,0.0,0.0,0.0,0.0,0.0,0.0,0.0,0.0,0.0,0.0,0.0,0.0,0.0,0.0,0.0,0.0,0.0,0.0,0.0,0.0,0.0,0.0,0.0,0.0,0.0,0.0,0.0,0.0,0.0,0.0,0.0,0.0,0.0,0.0,0.0,0.0,0.1295,0.2131,0.4404,0.4695,0.0,0.0,0.7672,0.7371,0.5654,0.0,0.0,0.0,0.0,0.0,0.0,0.0,0.0,0.0,0.0,0.0,0.0,0.0,0.0,0.0,0.0,0.0,0.0,0.0,0.0,0.0,0.0,0.0,0.0,0.0,0.0,0.0,0.0,0.0,0.0,0.0,0.0,0.0,0.0,0.0,0.0,0.0,0.0,0.0,0.0,0.0,0.0,0.0,0.0,0.0,0.0,0.0,0.0,0.0,0.0,0.0,0.0,0.0,0.0,0.0,0.0,-2.2795,-2.935,-3.5466,-4.1027,-4.1307,-4.2064,-4.351,-3.9894,-3.4071,0.0,0.0,0.0,0.0,0.0,0.0,0.0,0.0,0.0,0.0,0.0,0.0,0.0,0.0,0.0,0.0,0.0,0.0,0.0,0.0,0.0,0.0,0.0,0.0,0.0,0.0,0.0,0.0,0.0,0.0,0.0,0.0,0.0,0.0,0.0,0.0,0.0,0.0,0.0,0.0,0.0,0.629,0.5184,0.4884,0.0,0.0,0.0,0.0,0.1393,0.1687,0.0,0.0,0.0,0.0,0.0,0.0,0.0,0.0,0.0,0.0,0.0,0.0,0.0,0.0,0.0,0.0,0.0,0.0,0.0,0.0,0.0,0.0,0.0,0.0,0.0,0.0,0.0,0.0,0.0,0.0,0.0,0.0,0.0,0.0,0.0,0.0,0.0,0.0,0.0,0.0,0.0,0.0,0.0,0.0,0.0,0.0,0.0,0.0,0.0,0.0,0.0,0.0,0.0,0.0,0.0,0.0,-2.3037,-2.7702,-3.3589,-4.0759,-4.1575,-4.2549,-4.401,-4.0146,-3.4427,0.0,0.0,0.0,0.0,0.0,0.0,0.0,0.0,0.0,0.0,0.0,0.0,0.0,0.0,0.0,0.0,0.0,0.0,0.0,0.0,0.0,0.0,0.0,0.0,0.0,0.0,0.0,0.0,0.0,0.0,0.0,0.0,0.0,0.0,0.0,0.0,0.0,0.0,0.0,0.0,0.4458,0.5988,0.5157,0.0,0.0,0.0,0.0,0.0,0.0,0.0196,0.0258,0.0,0.0,0.0,0.0,0.0,0.0,0.0,0.0,0.0,0.0,0.0,0.0,0.0,0.0,0.0,0.0,0.0,0.0,0.0,0.0,0.0,0.0,0.0,0.0,0.0,0.0,0.0,0.0,0.0,0.0,0.0,0.0,0.0,0.0,0.0,0.0,0.0,0.0,0.0,0.0,0.0,0.0,0.0,0.0,0.0,0.0,0.0,0.0,0.0,0.0,0.0,0.0,0.0,0.0,0.0,-2.2954,-2.5821,-3.1513,-4.0004,-4.1615,-4.2814,-4.3749,-3.9518,-3.3978,-2.7144,0.0,0.0,0.0,0.0,0.0,0.0,0.0,0.0,0.0,0.0,0.0,0.0,0.0,0.0,0.0,0.0,0.0,0.0,0.0,0.0,0.0,0.0,0.0,0.0,0.0,0.0,0.0,0.0,0.0,0.0,0.0,0.0,0.0,0.0,0.0,0.0,0.0,0.0,0.0,0.3506,0.4057,0.0,0.0,0.0,0.0,0.0,0.0,0.0,0.0,-0.0124,0.0,0.0,0.0,0.0,0.0,0.0,0.0,0.0,0.0,0.0,0.0,0.0,0.0,0.0,0.0,0.0,0.0,0.0,0.0,0.0,0.0,0.0,0.0,0.0,0.0,0.0,0.0,0.0,0.0,0.0,0.0,0.0,0.0,0.0,0.0,0.0,0.0,0.0,0.0,0.0,0.0,0.0,0.0,0.0,0.0,0.0,0.0,0.0,0.0,0.0,0.0,0.0,0.0,0.0,0.0,0.0,-2.3726,-2.9819,-3.6879,-3.9706,-4.1743,-4.3222,-4.1038,-3.551,-2.6417,0.0,0.0,0.0,0.0,0.0,0.0,0.0,0.0,0.0,0.0,0.0,0.0,0.0,0.0,0.0,0.0,0.0,0.0,0.0,0.0,0.0,0.0,0.0,0.0,0.0,0.0,0.0,0.0,0.0,0.0,0.0,0.0,0.0,0.0,0.0,0.0,0.0,0.0,0.2529,0.3432,0.0,0.0,0.0,0.0,0.0,0.0,0.0,0.0,0.0712,0.0,0.0,0.0,0.0,0.0,0.0,0.0,0.0,0.0,0.0,0.0,0.0,0.0,0.0,0.0,0.0,0.0,0.0,0.0,0.0,0.0,0.0,0.0,0.0,0.0,0.0,0.0,0.0,0.0,0.0,0.0,0.0,0.0,0.0,0.0,0.0,0.0,0.0,0.0,0.0,0.0,0.0,0.0,0.0,0.0,0.0,0.0,0.0,0.0,0.0,0.0,0.0,0.0,0.0,0.0,0.0,0.0,0.0,-2.926,-3.5853,-3.9145,-4.1471,-4.2519,-3.7818,-3.2008,0.0,0.0,0.0,0.0,0.0,0.0,0.0,0.0,0.0,0.0,0.0,0.0,0.0,0.0,0.0,0.0,0.0,0.0,0.0,0.0,0.0,0.0,0.0,0.0,0.0,0.0,0.0,0.0,0.0,0.0,0.0,0.0,0.0,0.0,0.0,0.0,0.0,0.0,0.0,0.0,0.0,0.0,0.0,0.0,0.0,0.0,0.0,0.0,0.0,0.0,0.0,0.0,0.0,0.0,0.0,0.0,0.0,0.0,0.0,0.0,0.0,0.0,0.0,0.0,0.0,0.0,0.0,0.0,0.0,0.0,0.0,0.0,0.0,0.0,0.0,0.0,0.0,0.0,0.0,0.0,0.0,0.0,0.0,0.0,0.0,0.0,0.0,0.0,0.0,0.0,0.0,0.0,0.0,0.0,0.0,0.0,0.0,0.0,0.0,0.0,0.0,0.0,0.0,0.0,0.0,0.0,0.0,0.0,-2.8348,-3.4559,-3.8383,-4.1031,-4.2366,-3.46,-2.8266,0.0,0.0,0.0,0.0,0.0,0.0,0.0,0.0,0.0,0.0,0.0,0.0,0.0,0.0,0.0,0.0,0.0,0.0,0.0,0.0,0.0,0.0,0.0,0.0,0.0,0.0,0.0,0.0,0.0,0.0,0.0,0.0,0.0,0.0,0.0,0.0,0.0,0.0,0.0,0.0,0.0,0.0,0.0,0.0,0.0,0.0,0.0,0.0,0.2307,0.0,0.0,0.0,0.0,0.0,0.0,0.0,0.0,0.0,0.0,0.0,0.0,0.0,0.0,0.0,0.0,0.0,0.0,0.0,0.0,0.0,0.0,0.0,0.0,0.0,0.0,0.0,0.0,0.0,0.0,0.0,0.0,0.0,0.0,0.0,0.0,0.0,0.0,0.0,0.0,0.0,0.0,0.0,0.0,0.0,0.0,0.0,0.0,0.0,0.0,0.0,0.0,0.0,0.0,0.0,0.0,0.0,0.0,0.0,-2.5716,-3.162,-3.611,-3.9595,-4.1691,-3.422,-2.7317,0.0,0.0,0.0,0.0,0.0,0.0,0.0,0.0,0.0,0.0,0.0,0.0,0.0,0.0,0.0,0.0,0.0,0.0,0.0,0.0,0.0,0.0,0.0,0.0,0.0,0.0,0.0,0.0,0.0,0.0,0.0,0.0,0.0,0.0,0.0,0.0,0.0,0.0,0.0,0.0,0.0,0.0,0.0,0.0,0.0,0.0,0.0,0.0,0.0,0.0,0.0,0.0,0.0,0.0,0.0,0.0,0.0,0.0,0.0,0.0,0.0,0.0,0.0,0.0,0.0,0.0,0.0,0.0,0.0,0.0,0.0,0.0,0.0,0.0,0.0,0.0,0.0,0.0,0.0,0.0,0.0,0.0,0.0,0.0,0.0,0.0,0.0,0.0,0.0,0.0,0.0,0.0,0.0,0.0,0.0,0.0,0.0,0.0,0.0,0.0,0.0,0.0,0.0,0.0,0.0,0.0,0.0,0.0,-2.2985,-2.916,-3.4188,-3.5973,-3.4502,-2.752,-2.2741,0.0,0.0,0.0,0.0,0.0,0.0,0.0,0.0,0.0,0.0,0.0,0.0,0.0,0.0,0.0,0.0,0.0,0.0,0.0,0.0,0.0,0.0,0.0,0.0,0.0,0.0,0.0,0.0,0.0,0.0,0.0,0.0,0.0,0.0,0.0,0.0,0.0,0.0,0.0,0.0,0.0,0.0,0.0,0.0,0.0,0.0,0.0,0.0,0.0,0.0,0.0,0.0,0.0,0.0,0.0,0.0,0.0,0.0,0.0,0.0,0.0,0.0,0.0,0.0,0.0,0.0,0.0,0.0,0.0,0.0,0.0,0.0,0.0,0.0,0.0,0.0,0.0,0.0,0.0,0.0,0.0,0.0,0.0,0.0,0.0,0.0,0.0,0.0,0.0,0.0,0.0,0.0,0.0,0.0,0.0,0.0,0.0,0.0,0.0,0.0,0.0,0.0,0.0,0.0,0.0,0.0,0.0,0.0,0.0,-2.5564,-3.0397,-3.1072,-2.7186,-2.207,-1.8914,0.0,0.0,0.0,0.0,0.0,0.0,0.0,0.0,0.0,0.0,0.0,0.0,0.0,0.0,0.0,0.0,0.0,0.0,0.0,0.0,0.0,0.0,0.0,0.0,0.0,0.0,0.0,0.0,0.0,0.0,0.0,0.0,0.0,0.0,0.0,0.0,0.0,0.0,0.0,0.0,0.0,0.0,0.0,0.0,0.0,0.0,0.0,0.0,0.0,0.0,0.0,0.0,0.0,0.0,0.0,0.0,0.0,0.0,0.0,0.0,0.0,0.0,0.0,0.0,0.0,0.0,0.0,0.0,0.0,0.0,0.0,0.0,0.0,0.0,0.0,0.0,0.0,0.0,0.0,0.0,0.0,0.0,0.0,0.0,0.0,0.0,0.0,0.0,0.0,0.0,0.0,0.0,0.0,0.0,0.0,0.0,0.0,0.0,0.0,0.0,0.0,0.0,0.0,0.0,0.0,0.0,0.0,0.0,0.0,-2.0036,-2.3601,-2.4429,-2.236,-2.04,-1.7011,0.0,0.0,0.0,0.0,0.0,0.0,0.0,0.0,0.0,0.0,0.0,0.0,0.0,0.0,0.0,0.0,0.0,0.0,0.0,0.0,0.0,0.0,0.0,0.0,0.0,0.0,0.0,0.0,0.0,0.0,0.0,0.0,0.0,0.0,0.0,0.0,0.0,0.0,0.0,0.0,0.0,0.0,0.0,0.0,0.0,0.0,0.0,0.0,0.0,0.0,0.0,0.0,0.0,0.0,0.0,0.0,0.0,0.0,0.0,0.0,0.0,0.0,0.0,0.0,0.0,0.0,0.0,0.0,0.0,0.0,0.0,0.0,0.0,0.0,0.0,0.0,0.0,0.0,0.0,0.0,0.0,0.0,0.0,0.0,0.0,0.0,0.0,0.0,0.0,0.0,0.0,0.0,0.0,0.0,0.0,0.0,0.0,0.0,0.0,0.0,0.0,0.0,0.0,0.0,0.0,0.0,0.0,0.0,0.0,-1.1922,-1.5397,-1.7121,-1.672,-1.5208,-1.3981,-1.2929,0.0,0.0,0.0,0.0,0.0,0.0,0.0,0.0,0.0,0.0,0.0,0.0,0.0,0.0,0.0,0.0,0.0,0.0,0.0,0.0,0.0,0.0,0.0,0.0,0.0,0.0,0.0,0.0,0.0,0.0,0.0,0.0,0.0,0.0,0.0,0.0,0.0,0.0,0.0,0.0,0.0,0.0,0.0,0.0,0.0,0.0,0.0,0.0,0.0,0.0,0.0,0.0,0.0,0.0,0.0,0.0,0.0,0.0,0.0,0.0,0.0,0.0,0.0,0.0,0.0,0.0,0.0,0.0,0.0,0.0,0.0,0.0,0.0,0.0,0.0,0.0,0.0,0.0,0.0,0.0,0.0,0.0,0.0,0.0,0.0,0.0,0.0,0.0,0.0,0.0,0.0,0.0,0.0,0.0,0.0,0.0,0.0,0.0,0.0,0.0,0.0,0.0,0.0,0.0,0.0,0.0,0.0,0.0,-0.8552,-1.2006,-1.3613,-1.2921,-1.2383,-1.1829,0.0,0.0,0.0,0.0,0.0,0.0,0.0,0.0,0.0,0.0,0.0,0.0,0.0,0.0,0.0,0.0,0.0,0.0,0.0,0.0,0.0,0.0,0.0,0.0,0.0,0.0,0.0,0.0,0.0,0.0,0.0,0.0,0.0,0.0,0.0,0.0,0.0,0.0,0.0,0.0,0.0,0.0,0.0,0.0,0.0,0.0,0.0,0.0,0.0,0.0,0.0,0.0,0.0,0.0,0.0,0.0,0.0,0.0,0.0,0.0,0.0,0.0,0.0,0.0,0.0,0.0,0.0,0.0,0.0,0.0,0.0,0.0,0.0,0.0,0.0,0.0,0.0,0.0,0.0,0.0,0.0,0.0,0.0,0.0,0.0,0.0,0.0,0.0,0.0,0.0,0.0,0.0,0.0,0.0,0.0,0.0,0.0,0.0,0.0,0.0,0.0,0.0,0.0,0.0,0.0,0.0,0.0,0.0,-0.8173,-1.1463,-1.4442,-1.4474,-1.1538,-1.2759,-1.093,0.0,0.0,0.0,0.0,0.0,0.0,0.0,0.0,0.0,0.0,0.0,0.0,0.0,0.0,0.0,0.0,0.0,0.0,0.0,0.0,0.0,0.0,0.0,0.0,0.0,0.0,0.0,0.0,0.0,0.0,0.0,0.0,0.0,0.0,0.0,0.0,0.0,0.0,0.0,0.0,0.0,0.0,0.0,0.0,0.0,0.0,0.0,0.0,0.0,0.0,0.0,0.0,0.0,0.0,0.0,0.0,0.0,0.0,0.0,0.0,0.0,0.0,0.0,0.0,0.0,0.0,0.0,0.0,0.0,0.0,0.0,0.0,0.0,0.0,0.0,0.0,0.0,0.0,0.0,0.0,0.0,0.0,0.0,0.0,0.0,0.0,0.0,0.0,0.0,0.0,0.0,0.0,0.0,0.0,0.0,0.0,0.0,0.0,0.0,0.0,0.0,0.0,0.0,0.0,0.0,0.0,0.0,0.0,0.0,-0.8654,0.0,-1.2227,0.0,-1.3118,-1.146,0.0,0.0,0.0,0.0,0.0,0.0,0.0,0.0,0.0,0.0,0.0,0.0,0.0,0.0,0.0,0.0,0.0,0.0,0.0,0.0,0.0,0.0,0.0,0.0,0.0,0.0,0.0,0.0,0.0,0.0,0.0,0.0,0.0,0.0,0.0,0.0,0.0,0.0,0.0,0.0,0.0,0.0,0.0,0.0,0.0,0.0,0.0,0.0,0.0,0.0,0.0,0.0,0.0,0.0,0.0,0.0,0.0,0.0,0.0,0.0,0.0,0.0,0.0,0.0,0.0,0.0,0.0,0.0,0.0,0.0,0.0,0.0,0.0,0.0,0.0,0.0,0.0,0.0,0.0,0.0,0.0,0.0,0.0,0.0,0.0,0.0,0.0,0.0,0.0,0.0,0.0,0.0,0.0,0.0,0.0,0.0,0.0,0.0,0.0,0.0,0.0,0.0,0.0,0.0,0.0,0.0,0.0,0.0,0.0,-0.9785,-0.9139,-1.1039,-1.5469,-1.3458,-1.2145,0.0,0.0,0.0,0.0,0.0,0.0,0.0,0.0,0.0,0.0,0.0,0.0,0.0,0.0,0.0,0.0,0.0,0.0,0.0,0.0,0.0,0.0,0.0,0.0,0.0,0.0,0.0,0.0,0.0,0.0,0.0,0.0,0.0,0.0,0.0,0.0,0.0,0.0,0.0,0.0,0.0,0.0,0.0,0.0,0.0,0.0,0.0,0.0,0.0,0.0,0.0,0.0,0.0,0.0,0.0,0.0,0.0,0.0,0.0,0.0,0.0,0.0,0.0,0.0,0.0,0.0,0.0,0.0,0.0,0.0,0.0,0.0,0.0,0.0,0.0,0.0,0.0,0.0,0.0,0.0,0.0,0.0,0.0,0.0,0.0,0.0,0.0,0.0,0.0,0.0,0.0,0.0,0.0,0.0,0.0,0.0,0.0,0.0,0.0,0.0,0.0,0.0,0.0,0.0,0.0,0.0,0.0,0.0,0.0,0.0,-1.1964,-1.1127,-1.2019,-1.3755,-1.3046,0.0,0.0,0.0,0.0,0.0,0.0,0.0,0.0,0.0,0.0,0.0,0.0,0.0,0.0,0.0,0.0,0.0,0.0,0.0,0.0,0.0,0.0,0.0,0.0,0.0,0.0,0.0,0.0,0.0,0.0,0.0,0.0,0.0,0.0,0.0,0.0,0.0,0.0,0.0,0.0,0.0,0.0,0.0,0.0,0.0,0.0,0.0,0.0,0.0,0.0,0.0,0.0,0.0,0.0,0.0,0.0,0.0,0.0,0.0,0.0,0.0,0.0,0.0,0.0,0.0,0.0,0.0,0.0,0.0,0.0,0.0,0.0,0.0,0.0,0.0,0.0,0.0,0.0,0.0,0.0,0.0,0.0,0.0,0.0,0.0,0.0,0.0,0.0,0.0,0.0,0.0,0.0,0.0,0.0,0.0,0.0,0.0,0.0,0.0,0.0,0.0,0.0,0.0,0.0,0.0,0.0,0.0,0.0,0.0,0.0,-1.3364,-1.2857,-1.0734,-1.2206,-1.321,-1.3484,0.0,0.0,0.0,0.0,0.0,0.0,0.0,0.0,0.0,0.0,0.0,0.0,0.0,0.0,0.0,0.0,0.0,0.0,0.0,0.0,0.0,0.0,0.0,0.0,0.0,0.0,0.0,0.0,0.0,0.0,0.0,0.0,0.0,0.0,0.0,0.0,0.0,0.0,0.0,0.0,0.0,0.0,0.0,0.0,0.0,0.0,0.0,0.0,0.0,0.0,0.0,0.0,0.0,0.0,0.0,0.0,0.0,0.0,0.0,0.0,0.0,0.0,0.0,0.0,0.0,0.0,0.0,0.0,0.0,0.0,0.0,0.0,0.0,0.0,0.0,0.0,0.0,0.0,0.0,0.0,0.0,0.0,0.0,0.0,0.0,0.0,0.0,0.0,0.0,0.0,0.0,0.0,0.0,0.0,0.0,0.0,0.0,0.0,0.0,0.0,0.0,0.0,0.0,0.0,0.0,0.0,0.0,0.0,0.0,0.0,-1.2836,-1.0849,-1.1682,-1.2525,0.0,0.0,0.0,0.0,0.0,0.0,0.0,0.0,0.0,0.0,0.0,0.0,0.0,0.0,0.0,0.0,0.0,0.0,0.0,0.0,0.0,0.0,0.0,0.0,0.0,0.0,0.0,0.0,0.0,0.0,0.0,0.0,0.0,0.0,0.0,0.0,0.0,0.0,0.0,0.0,0.0,0.0,0.0,0.0,0.0,0.0,0.0,0.0,0.0,0.0,0.0,0.0,0.0,0.0,0.0,0.0,0.0,0.0,0.0,0.0,0.0,0.0,0.0,0.0,0.0,0.0,0.0,0.0,0.0,0.0,0.0,0.0,0.0,0.0,0.0,0.0,0.0,0.0,0.0,0.0,0.0,0.0,0.0,0.0,0.0,0.0,0.0,0.0,0.0,0.0,0.0,0.0,0.0,0.0,0.0,0.0,0.0,0.0,0.0,0.0,0.0,0.0,0.0,0.0,0.0,0.0,0.0,0.0,0.0,0.0,0.0,-1.1924,-1.1891,-1.2226,0.0,-1.0552,0.0,0.0,0.0,0.0,0.0,0.0,0.0,0.0,0.0,0.0,0.0,0.0,0.0,0.0,0.0,0.0,0.0,0.0,0.0,0.0,0.0,0.0,0.0,0.0,0.0,0.0,0.0,0.0,0.0,0.0,0.0,0.0,0.0,0.0,0.0,0.0,0.0,0.0,0.0,0.0,0.0,0.0,0.0,0.0,0.0,0.0,0.0,0.0,0.0,0.0,0.0,0.0,0.0,0.0,0.0,0.0,0.0,0.0,0.0,0.0,0.0,0.0,0.0,0.0,0.0,0.0,0.0,0.0,0.0,0.0,0.0,0.0,0.0,0.0,0.0,0.0,0.0,0.0,0.0,0.0,0.0,0.0,0.0,0.0,0.0,0.0,0.0,0.0,0.0,0.0,0.0,0.0,0.0,0.0,0.0,0.0,0.0,0.0,0.0,0.0,0.0,0.0,0.0,0.0,0.0,0.0,0.0,0.0,0.0,0.0,0.0,0.0,-1.446,-1.4389,-1.0033,0.0,0.0,0.0,0.0,0.0,0.0,0.0,0.0,0.0,0.0,0.0,0.0,0.0,0.0,0.0,0.0,0.0,0.0,0.0,0.0,0.0,0.0,0.0,0.0,0.0,0.0,0.0,0.0,0.0,0.0,0.0,0.0,0.0,0.0,0.0,0.0,0.0,0.0,0.0,0.0,0.0,0.0,0.0,0.0,0.0,0.0,0.0,0.0,0.0,0.0,0.0,0.0,0.0,0.0,0.0,0.0,0.0,0.0,0.0,0.0,0.0,0.0,0.0,0.0,0.0,0.0,0.0,0.0,0.0,0.0,0.0,0.0,0.0,0.0,0.0,0.0,0.0,0.0,0.0,0.0,0.0,0.0,0.0,0.0,0.0,0.0,0.0,0.0,0.0,0.0,0.0,0.0,0.0,0.0,0.0,0.0,0.0,0.0,0.0,0.0,0.0,0.0,0.0,0.0,0.0,0.0,0.0,0.0,0.0,0.0,-1.3066,-1.0383,-1.3245,-1.2955,-0.8987,0.0,0.0,0.0,0.0,0.0,0.0,0.0,0.0,0.0,0.0,0.0,0.0,0.0,0.0,0.0,0.0,0.0,0.0,0.0,0.0,0.0,0.0,0.0,0.0,0.0,0.0,0.0,0.0,0.0,0.0,0.0,0.0,0.0,0.0,0.0,0.0,0.0,0.0,0.0,0.0,0.0,0.0,0.0,0.0,0.0,0.0,0.0,0.0,0.0,0.0,0.0,0.0,0.0,0.0,0.0,0.0,0.0,0.0,0.0,0.0,0.0,0.0,0.0,0.0,0.0,0.0,0.0,0.0,0.0,0.0,0.0,0.0,0.0,0.0,0.0,0.0,0.0,0.0,0.0,0.0,0.0,0.0,0.0,0.0,0.0,0.0,0.0,0.0,0.0,0.0,0.0,0.0,0.0,0.0,0.0,0.0,0.0,0.0,0.0,0.0,0.0,0.0,0.0,0.0,0.0,0.0,0.0,0.0,0.0,0.0,0.0,0.0,0.0,0.0,-0.8615,0.0,0.0,0.0,0.0,0.0,0.0,0.0,0.0,0.0,0.0,0.0,0.0,0.0,0.0,0.0,0.0,0.0,0.0,0.0,0.0,0.0,0.0,0.0,0.0,0.0,0.0,0.0,0.0,0.0,0.0,0.0,0.0,0.0,0.0,0.0,0.0,0.0,0.0,0.0,0.0,0.0,0.0,0.0,0.0,0.0,0.0,0.0,0.0,0.0,0.0,0.0,0.0,0.0,0.0,0.0,0.0,0.0,0.0,0.0,0.0,0.0,0.0,0.0,0.0,0.0,0.0,0.0,0.0,0.0,0.0,0.0,0.0,0.0,0.0,0.0,0.0,0.0,0.0,0.0,0.0,0.0,0.0,0.0,0.0,0.0,0.0,0.0,0.0,0.0,0.0,0.0,0.0,0.0,0.0,0.0,0.0,0.0,0.0,0.0,0.0,0.0,0.0,0.0,0.0,0.0,0.0,0.0,0.0,0.0,0.0,0.0,0.0,0.0,0.0,0.0,0.0,0.0,0.0,0.0,0.0,0.0,0.0,0.0,0.0,0.0,0.0,0.0,0.0,0.0,0.0,0.0,0.0,0.0,0.0,0.0,0.0,0.0,0.0,0.0,0.0,0.0,0.0,0.0,0.0,0.0,0.0,0.0,0.0,0.0,0.0,0.0,0.0,0.0,0.0,0.0,0.0,0.0,0.0,0.0,0.0,0.0,0.0,0.0,0.0,0.0,0.0,0.0,0.0,0.0,0.0,0.0,0.0,0.0,0.0,0.0,0.0,0.0,0.0,0.0,0.0,0.0,0.0,0.0,0.0,0.0,0.0,0.0,0.0,0.0,0.0,0.0,0.0,0.0,0.0,0.0,0.0,0.0,0.0,0.0,0.0,0.0,0.0,0.0,0.0,0.0,0.0,0.0,0.0,0.0,0.0,0.0,0.0,0.0,0.0,0.0,0.0,0.0,0.0,0.0,0.0,0.0,0.0,0.0,0.0,0.0,0.0,0.0,0.0,0.0,0.0,0.0,0.0,0.0,0.0,0.0,0.0,0.0,0.0,0.0,0.0,0.0,0.0,0.0,0.0,0.0,0.0,0.0,0.0,0.0,0.0,0.0,0.0,0.0,0.0,0.0,0.0,0.0,0.0,0.0,0.0,0.0,0.0,0.0,0.0,0.0,0.0,0.0,0.0,0.0,0.0,0.0,0.0,0.0,0.0,0.0,0.0,0.0,0.0,0.0,0.0,0.0,0.0,0.0,0.0,0.0,0.0,0.0,0.0,0.0,0.0,0.0,0.0,0.0,0.0,0.0,0.0,0.0,0.0,0.0,0.0,0.0,0.0,0.0,0.0,0.0,0.0,0.0,0.0,0.0,0.0,0.0,0.0,0.0,0.0,0.0,0.0,0.0,0.0,0.0,0.0,0.0,0.0,0.0,0.0,0.0,0.0,0.0,0.0,0.0,0.0,0.0,0.0,0.0,0.0,0.0,0.0,0.0,0.0,0.0,0.0,0.0,0.0,0.0,0.0,0.0,0.0,0.0,0.0,0.0,0.0,0.0,0.0,0.0,0.0,0.0,0.0,0.0,0.0,0.0,0.0,0.0,0.0,0.0,0.0,0.0,0.0,0.0,0.0,0.0,0.0,0.0,0.0,0.0,0.0,0.0,0.0,0.0,0.0,0.0,0.0,0.0,0.0,0.0,0.0,0.0,0.0,0.0,0.0,0.0,0.0,0.0,0.0,0.0,0.0,0.0,0.0,0.0,0.0,0.0,0.0,0.0,0.0,0.0,0.0,0.0,0.0,0.0,0.0,0.0,0.0,0.0,0.0,0.0,0.0,0.0,0.0,0.0,0.0,0.0,0.0,0.0,0.0,0.0,0.0,0.0,0.0,0.0,0.0,0.0,0.0,0.0,0.0,0.0,0.0,0.0,0.0,0.0,0.0,0.0,0.0,0.0,0.0,0.0,0.0,0.0,0.0,0.0,0.0,0.0,0.0,0.0,0.0,0.0,0.0,0.0,0.0,0.0,0.0,0.0,0.0,0.0,0.0,0.0,0.0,0.0,0.0,0.0,0.0,0.0,0.0,0.0,0.0,0.0,0.0,0.0,0.0,0.0,0.0,0.0,0.0,0.0,0.0,0.0,0.0,0.0,0.0,0.0,0.0,0.0,0.0,0.0,0.0,0.0,0.0,0.0,0.0,0.0,0.0,0.0,0.0,0.0,0.0,0.0,0.0,0.0,0.0,0.0,0.0,0.0,0.0,0.0,0.0,0.0,0.0,0.0,0.0,0.0,0.0,0.0,0.0,0.0,0.0,0.0,0.0,0.0,0.0,0.0,0.0,0.0,0.0,0.0,0.0,0.0,0.0,0.0,0.0,0.0,0.0,0.0,0.0,0.0,0.0,0.0,0.0,0.0,0.0,0.0,0.0,0.0,0.0,0.0,0.0,0.0,0.0,0.0,0.0,0.0,0.0,0.0,0.0,0.0,0.0,0.0,0.0,0.0,0.0,0.0,0.0,0.0,0.0,0.0,0.0,0.0,0.0,0.0,0.0,0.0,0.0,0.0,0.0,0.0,0.0,0.0,0.0,0.0,0.0,0.0,0.0,0.0,0.0,0.0,0.0,0.0,0.0,0.0,0.0,0.0,0.0,0.0,0.0,0.0,0.0,0.0,0.0,0.0,0.0,0.0,0.0,0.0,0.0,0.0,0.0,0.0,0.0,0.0,0.0,0.0,0.0,0.0,0.0,0.0,0.0,0.0,0.0,0.0,0.0,0.0,0.0,0.0,0.0,0.0,0.0,0.0,0.0,0.0,0.0,0.0,0.0,0.0,0.0,0.0,0.0,0.0,0.0,0.0,0.0,0.0,0.0,0.0,0.0,0.0,0.0,0.0,0.0,0.0,0.0,0.0,0.0,0.0,0.0,0.0,0.0,0.0,0.0,0.0,0.0,0.0,0.0,0.0,0.0,0.0,0.0,0.0,0.0,0.0,0.0,0.0,0.0,0.0,0.0,0.0,0.0,0.0,0.0,0.0,0.0,0.0,0.0,0.0,0.0,0.0,0.0,0.0,0.0,0.0,0.0,0.0,0.0,0.0,0.0,0.0,0.0,0.0,0.0,0.0,0.0,0.0,0.0,0.0,0.0,0.0,0.0,0.0,0.0,0.0,0.0,0.0,0.0,0.0,0.0,0.0,0.0,0.0,0.0,0.0,0.0,0.0,0.0,0.0,0.0,0.0,0.0,0.0,0.0,0.0,0.0,0.0,0.0,0.0,0.0,0.0,0.0,0.0,0.0,0.0,0.0,0.0,0.0,0.0,0.0,0.0,0.0,0.0,0.0,0.0,0.0,0.0,0.0,0.0,0.0,0.0,0.0,0.0,0.0,0.0,0.0,0.0,0.0,0.0,0.0,0.0,0.0,0.0,0.0,0.0,0.0,0.0,0.0,0.0,0.0,0.0,0.0,0.0,0.0,0.0,0.0,0.0,0.0,0.0,0.0,0.0,0.0,0.0,0.0,0.0,0.0,0.0,0.0,0.0,0.0,0.0,0.0,0.0,0.0,0.0,0.0,0.0,0.0,0.0,0.0,0.0,0.0,0.0,0.0,0.0,0.0,0.0,0.0,0.0,0.0,0.0,0.0,0.0,0.0,0.0,0.0,0.0,0.0,0.0,0.0,0.0,0.0,0.0,0.0,0.0,0.0,0.0,0.0,0.0,0.0,0.0,0.0,0.0,0.0,0.0,0.0,0.0,0.0,0.0,0.0,0.0,0.0,0.0,0.0,0.0,0.0,0.0,0.0,0.0,0.0,0.0,0.0,0.0,0.0,0.0,0.0,0.0,0.0,0.0,0.0,0.0,0.0,0.0,0.0,0.0,0.0,0.0,0.0,0.0,0.0,0.0,0.0,0.0,0.0,0.0,0.0,0.0,0.0,0.0,0.0,0.0,0.0,0.0,0.0,0.0,0.0,0.0,0.0,0.0,0.0,0.0,0.0,0.0,0.0,0.0,0.0,0.0,0.0,0.0,0.0,0.0,0.0,0.0,0.0,0.0,0.0,0.0,0.0,0.0,0.0,0.0,0.0,0.0,0.0,0.0,0.0,0.0,0.0,0.0,0.0,0.0,0.0,0.0,0.0,0.0,0.0,0.0,0.0,0.0,0.0,0.0,0.0,0.0,0.0,0.0,0.0,0.0,0.0,0.0,0.0,0.0,0.0,0.0,0.0,0.0,0.0,0.0,0.0,0.0,0.0,0.0,0.0,0.0,0.0,0.0,0.0,0.0,0.0,0.0,0.0,0.0,0.0,0.0,0.0,0.0,0.0,0.0,0.0,0.0,0.0,0.0,0.0,0.0,0.0,0.0,0.0,0.0,0.0]}],[{"header":{"parameterUnit":"kt","parameterCategory":2,"dx":1,"dy":1,"la1":29.587661999999998,"la2":31.0,"lo1":-88.76705300000003,"lo2":-86.6583820000003,"nx":115,"ny":88,"refTime":"2022-09-20T12:00:00:Z","depth":0,"parameterNumber":2,"parameterNumberName":"V-component_of_WINDS"},"data":[3.3351,3.2579,3.202,3.088,2.9321,2.7749,2.7037,2.6336,2.5322,2.5604,2.6012,2.4406,2.2818,2.1985,2.0846,2.4014,2.9223,2.877,2.9592,3.1349,3.2982,3.1006,3.0605,3.2751,2.6286,2.706,2.8881,2.5456,3.0644,2.8911,3.0744,4.0506,4.1303,4.6625,5.7512,6.1728,6.0923,6.2353,6.2712,6.7434,6.743,6.0933,6.1831,6.1644,6.267,6.4593,6.6328,6.7609,6.915,6.9659,6.9743,6.9705,6.9634,6.9555,6.9503,6.942,6.9425,6.949,6.9587,6.9655,6.9651,6.9516,7.0171,7.0115,7.055,7.1494,7.1554,7.2059,6.2946,6.2982,5.9167,5.762,5.1272,4.688,4.4167,2.9171,1.9678,1.7489,1.6011,1.589,1.6063,1.8696,2.182,2.1534,2.3129,2.6747,2.9035,2.0632,1.755,1.7045,1.5664,0.6973,-0.186,-1.1682,-2.2507,-3.0372,-2.9588,-3.0171,-3.2012,-3.4553,-3.7051,-3.9553,-4.0759,-4.2422,-4.2731,-4.2494,-4.2422,-4.2156,-4.1358,-4.0469,-4.1394,-4.1927,-4.134,-4.0893,-4.0633,3.1968,3.1425,2.9044,2.7795,2.7081,2.3698,2.2731,2.3306,2.1285,2.1129,2.1685,1.8021,1.7875,1.8148,1.7933,2.1631,2.3213,2.1346,2.5616,2.783,2.5487,2.1665,2.1098,2.247,1.9364,1.8741,1.8888,1.8272,1.6551,1.7984,1.9163,2.4694,2.7345,2.8881,3.2911,3.9984,4.8168,5.027,5.5113,6.3047,5.5929,4.4631,3.8021,3.7693,4.161,4.8967,5.4513,6.0094,6.8618,6.9577,6.9714,6.9701,6.9618,6.9559,6.949,6.9491,6.9477,6.9554,6.9653,6.9783,6.9721,6.9988,7.1089,7.1565,7.164,7.1785,7.1571,6.5435,5.1076,4.4125,3.8611,3.3685,2.4876,1.8104,1.6487,1.0733,0.7948,0.5578,0.5175,0.5016,0.5716,0.6692,0.6845,0.5006,0.7428,1.1767,0.9279,-0.0309,-0.6439,-0.4609,-0.7135,-1.5367,-2.176,-3.1501,-4.3062,-4.4635,-4.0464,-4.037,-3.9128,-4.0431,-4.1721,-4.2848,-4.3883,-4.5089,-4.5253,-4.4908,-4.4726,-4.4842,-4.3653,-4.2508,-4.3464,-4.4382,-4.3748,-4.3011,-4.3108,3.088,2.9904,2.781,2.6281,2.5007,2.231,2.1018,2.0727,1.8825,1.7638,1.6595,1.4979,1.4383,1.4955,1.3137,1.3739,1.2194,1.26,1.41,1.1146,0.5958,0.7568,0.4255,0.0781,0.3111,0.0377,0.0251,0.0992,-0.32,0.0372,0.622,1.0607,1.1328,1.4716,2.3652,2.7065,3.1691,3.2611,3.7297,4.0236,3.7994,3.4524,2.8434,3.5985,4.4377,5.1798,5.7473,6.4092,6.8951,6.9198,6.9375,6.9394,6.9559,6.9507,6.9476,6.9516,6.9549,6.9632,6.9769,6.9771,6.9701,6.9665,7.0344,7.0257,7.0597,5.7397,5.7261,5.0014,3.565,2.5432,1.9881,1.2925,0.4211,-0.2866,-0.5384,-0.8691,-1.2003,-1.7341,-2.2184,-2.2599,-2.2602,-2.0711,-1.6579,-1.8571,-1.8339,-1.4505,-1.4374,-2.3403,-2.4146,-2.3351,-3.1145,-3.83,-4.1723,-4.9919,-5.2022,-4.9763,-4.8217,-4.827,-4.7145,-4.7047,-4.6382,-4.6733,-4.6861,-4.7741,-4.8013,-4.735,-4.7127,-4.7487,-4.6616,-4.5476,-4.6049,-4.6954,-4.5706,-4.4805,-4.572,2.9092,2.7685,2.6578,2.5034,2.3475,2.1297,1.9705,1.8689,1.6604,1.4516,1.2887,1.2137,1.1837,1.1517,0.9239,0.6641,0.4342,0.3996,-0.1511,-0.3555,-0.7332,-0.6419,-1.1107,-1.1187,-1.5389,-1.8962,-1.9391,-1.6266,-1.566,-1.6551,-1.4123,-0.5388,-0.4411,-0.219,0.6064,1.3489,1.5444,1.6019,1.5254,1.1391,1.1863,1.4613,1.6912,2.3761,3.2902,3.7266,4.4987,5.4996,6.286,6.5704,6.6773,6.8767,6.9096,6.9464,6.9499,6.9525,6.955,6.9629,6.9666,6.9628,6.9435,6.939,6.9604,6.911,6.1234,4.5819,3.4548,2.7666,1.9143,0.9646,0.1132,-0.642,-1.3876,-1.9823,-2.5153,-3.013,-3.5062,-4.4649,-5.5007,-5.6575,-5.7332,-5.2726,-4.5899,-4.4376,-4.5012,-4.3208,-4.0484,-4.1363,-4.1874,-4.2323,-4.9189,-4.9976,-5.5481,-5.4494,-5.21,-5.0554,-5.1851,-5.2078,-5.074,-5.087,-5.1203,-4.9603,-4.7909,-4.9396,-5.0066,-4.8613,-4.7929,-4.8992,-4.9369,-4.8801,-4.8883,-4.9181,-4.8176,-4.7264,-4.8504,2.5999,2.4865,2.4322,2.3475,2.2467,1.9537,1.7933,1.7195,1.3606,1.1367,1.0459,0.9405,0.9103,0.8948,0.621,0.3332,0.106,-0.1212,-0.4092,-0.6946,-1.161,-1.3547,-1.4898,-1.7581,-1.9245,-1.9997,-2.0435,-2.1006,-2.1308,-2.1216,-2.11,-2.0864,-1.8956,-1.6274,-1.1221,-0.4525,-0.0352,-0.0713,-0.681,-1.1801,-1.3523,-1.6379,-1.7545,-1.0359,-0.1047,0.8916,1.6383,2.9734,4.7787,5.3282,5.8571,6.5726,6.5476,6.5098,6.6506,6.7117,6.8305,6.8851,6.9404,6.9352,6.9125,6.9332,6.9502,6.4246,4.8337,3.0332,1.7557,0.9239,-0.6352,-1.6966,-2.2311,-2.907,-3.4759,-4.027,-4.4048,-4.7528,-5.0888,-5.5459,-6.2744,-6.321,-6.3222,-6.0699,-5.511,-5.6024,-5.5401,-5.3945,-5.3858,-5.8847,-5.9619,-5.8919,-5.9971,-5.8401,-5.897,-5.701,-5.4515,-5.3692,-5.515,-5.4655,-5.3077,-5.2686,-5.2703,-5.1196,-4.9155,-4.961,-5.0278,-4.9181,-4.8912,-4.9637,-5.0251,-5.0356,-5.0777,-5.1222,-5.0958,-5.0141,-5.0799,2.4009,2.2731,2.2021,2.1006,1.9537,1.7029,1.4947,1.3144,1.0604,0.9264,0.8806,0.7445,0.745,0.7441,0.3941,0.0909,-0.1061,-0.3636,-0.6814,-0.9991,-1.342,-1.4758,-1.6541,-1.8941,-2.0424,-2.1308,-2.1888,-2.2178,-2.3188,-2.3188,-2.2611,-2.2599,-2.4295,-2.4113,-2.2734,-1.8721,-1.5185,-1.6867,-1.9137,-2.2186,-2.177,-2.1282,-1.6071,-0.8032,-0.3185,0.6769,1.5913,2.2153,3.1115,3.4463,3.5874,4.1872,4.304,4.3712,4.4632,5.6512,6.0956,6.5646,6.7193,6.7668,6.8432,6.6178,5.8203,4.7959,2.885,1.1267,-0.0566,-1.0749,-2.8312,-4.2282,-4.6889,-5.14,-5.5811,-5.9976,-6.1988,-6.3999,-6.4993,-6.5904,-6.6417,-6.6803,-6.5711,-6.3705,-6.3828,-6.541,-6.5192,-6.2077,-6.313,-6.6397,-6.5915,-6.5183,-6.3524,-6.1499,-6.0106,-5.9207,-5.7915,-5.6629,-5.6836,-5.63,-5.506,-5.4438,-5.3979,-5.3004,-5.1643,-5.111,-5.0645,-5.0435,-5.0302,-5.0777,-5.1222,-5.1532,-5.1942,-5.2593,-5.2735,-5.2307,-5.2636,2.2443,2.1029,2.0581,1.9402,1.7472,1.4814,1.2111,0.9545,0.8051,0.715,0.6851,0.5481,0.5329,0.6082,0.1518,-0.1062,-0.364,-0.6371,-0.9712,-1.2111,-1.4187,-1.642,-1.8208,-1.9705,-2.0727,-2.1454,-2.1888,-2.2178,-2.3331,-2.462,-2.3892,-2.4308,-2.6437,-2.631,-2.6466,-2.6675,-2.5142,-2.4508,-2.3015,-2.4192,-2.4192,-2.4322,-2.0094,-1.5222,-1.1406,-0.7057,0.2523,0.9926,1.4579,1.8313,2.0782,2.3386,2.4082,2.508,2.6853,4.0273,4.7631,5.766,6.0706,6.1186,5.97,5.4877,3.5214,1.7986,0.2045,-1.3839,-2.7049,-3.3173,-4.4102,-4.987,-5.4189,-5.7873,-6.1684,-6.4169,-6.5423,-6.6731,-6.7174,-6.7912,-6.8082,-6.841,-6.8481,-6.6814,-6.6234,-6.7423,-6.6854,-6.6824,-6.6661,-6.637,-6.5865,-6.493,-6.3428,-6.1364,-6.0135,-5.9984,-5.9049,-5.8491,-5.8273,-5.8021,-5.75,-5.6918,-5.6033,-5.4988,-5.4126,-5.3346,-5.2564,-5.2089,-5.1737,-5.1868,-5.2174,-5.2578,-5.3218,-5.4038,-5.4581,-5.4296,-5.4391,2.1018,2.0008,2.03,1.8952,1.6577,1.3329,0.9868,0.6389,0.6088,0.5481,0.4422,0.29,0.2898,0.2435,-0.1671,-0.3952,-0.5169,-0.8211,-1.1373,-1.3912,-1.4947,-1.6882,-1.8668,-1.9862,-2.0435,-2.0727,-2.1308,-2.2033,-2.2166,-2.3879,-2.6281,-2.784,-2.8691,-2.8274,-2.7855,-2.7855,-2.7561,-2.6592,-2.5461,-2.5603,-2.6169,-2.6592,-2.4575,-2.3357,-2.2047,-1.9393,-1.4962,-0.8019,-0.3335,0.2616,1.0987,1.6886,2.0863,2.3111,2.3488,2.374,2.2256,3.3239,4.1066,4.3762,4.269,3.1893,0.7607,-0.9301,-2.2579,-3.3528,-4.2376,-4.9037,-5.319,-5.7156,-6.0411,-6.3532,-6.6557,-6.7295,-6.8238,-6.8804,-6.9204,-6.9398,-6.9551,-6.9613,-6.9624,-6.9153,-6.8279,-6.7344,-6.6629,-6.658,-6.6441,-6.6136,-6.5503,-6.4629,-6.3146,-6.116,-6.08,-6.0685,-6.0452,-6.006,-5.967,-5.8885,-5.8739,-5.8073,-5.7649,-5.6721,-5.5298,-5.4193,-5.4067,-5.3582,-5.2779,-5.2707,-5.3107,-5.3835,-5.4546,-5.5268,-5.5973,-5.5912,-5.5546,2.03,1.9266,1.8227,1.6586,1.4665,1.3337,1.0627,0.7454,0.5633,0.4571,0.3658,0.2137,0.1984,0.1218,-0.1976,-0.4865,-0.532,-0.9556,-1.3599,-1.5087,-1.5828,-1.7619,-1.8972,-1.9862,-1.9997,-2.0581,-2.1297,-2.2731,-2.3866,-2.4723,-2.6549,-2.8676,-2.9799,-2.9661,-2.9661,-2.9385,-2.9092,-2.798,-2.728,-2.714,-2.784,-2.8274,-2.8429,-2.8568,-2.8552,-2.8444,-2.6712,-2.4137,-2.0746,-1.8982,-1.5707,-1.277,-1.0863,-0.7857,-0.3287,0.3817,0.6742,1.4082,2.2473,2.5886,1.6047,0.6784,-0.8296,-2.4462,-3.8397,-4.6748,-5.3041,-5.6841,-5.9897,-6.2044,-6.3324,-6.5483,-6.7376,-6.7302,-6.8238,-6.911,-6.9477,-6.967,-6.9795,-6.9814,-6.9773,-6.9132,-6.8357,-6.74,-6.6521,-6.6331,-6.6185,-6.5644,-6.5072,-6.3984,-6.2778,-6.1871,-6.1441,-6.1218,-6.0965,-6.0925,-6.0432,-5.9879,-5.9048,-5.8189,-5.7711,-5.7248,-5.5912,-5.4735,-5.4385,-5.4059,-5.3502,-5.3601,-5.3932,-5.4641,-5.5729,-5.6632,-5.7311,-5.7192,-5.6929,1.9997,1.914,1.7648,1.5112,1.2287,1.183,1.0175,0.7302,0.5633,0.4113,0.2896,0.1526,0.122,-0.0152,-0.3494,-0.6227,-0.7433,-1.1941,-1.4938,-1.6568,-1.7305,-1.8805,-1.9559,-1.9862,-1.9862,-2.0289,-2.1163,-2.2731,-2.5433,-2.6126,-2.7251,-2.8938,-3.0486,-3.1187,-3.1187,-3.0777,-3.0365,-2.9369,-2.8815,-2.8953,-2.9523,-2.9677,-2.9815,-2.9953,-2.9953,-2.9961,-2.9361,-2.9127,-2.8259,-2.8162,-2.5881,-2.5249,-2.5334,-2.297,-1.9228,-1.4074,-1.0639,-0.4962,-0.067,-0.0918,-1.0112,-1.9075,-2.9248,-3.6424,-4.7438,-5.4367,-5.7486,-5.9963,-6.2486,-6.396,-6.5212,-6.7064,-6.8053,-6.8006,-6.8387,-6.9241,-6.9632,-6.9817,-6.9843,-6.9815,-6.9596,-6.8968,-6.8223,-6.7264,-6.6633,-6.6379,-6.6087,-6.5575,-6.494,-6.3836,-6.2983,-6.2415,-6.1893,-6.1646,-6.1358,-6.1172,-6.0758,-6.0378,-5.9642,-5.8638,-5.7882,-5.7366,-5.6215,-5.5112,-5.4795,-5.4473,-5.4444,-5.4414,-5.483,-5.5729,-5.7074,-5.8168,-5.82,-5.803,-5.7963,1.9862,1.9129,1.811,1.4665,1.0175,0.8972,0.7605,0.5782,0.5326,0.3808,0.122,0.0152,-0.0915,-0.2434,-0.5763,-0.8033,-0.9986,-1.3577,-1.6559,-1.7757,-1.8648,-1.9255,-1.9851,-2.0154,-2.0289,-2.0154,-2.1163,-2.2743,-2.5007,-2.6394,-2.7934,-2.9629,-3.1306,-3.2309,-3.2138,-3.1323,-3.0914,-3.0623,-2.9936,-3.0332,-3.0897,-3.1204,-3.1204,-3.1204,-3.117,-3.1253,-3.135,-3.1401,-3.2334,-3.3098,-3.1451,-3.1039,-3.1434,-2.8893,-2.7201,-2.5954,-2.6067,-2.6708,-2.8581,-3.546,-3.6907,-3.9595,-4.0983,-4.6036,-5.2421,-5.6476,-5.8795,-6.1869,-6.392,-6.5328,-6.626,-6.7154,-6.8082,-6.8611,-6.8917,-6.945,-6.959,-6.9765,-6.9613,-6.9546,-6.921,-6.8751,-6.7953,-6.7259,-6.6776,-6.6379,-6.6023,-6.5468,-6.4827,-6.4028,-6.3376,-6.2821,-6.2277,-6.1994,-6.1765,-6.1445,-6.1016,-6.0974,-6.041,-5.9515,-5.867,-5.7829,-5.6752,-5.5668,-5.5235,-5.5202,-5.5265,-5.5328,-5.6215,-5.7074,-5.8535,-5.9062,-5.893,-5.8925,-5.9053,1.7776,1.7638,1.4657,1.2111,1.0169,0.8957,0.6677,0.3798,0.3042,0.0913,-0.2133,-0.3045,-0.3652,-0.4862,-0.7727,-0.9836,-1.1486,-1.4922,-1.7453,-1.8795,-1.9684,-2.057,-2.1163,-2.1308,-2.1018,-2.1888,-2.2467,-2.3723,-2.6253,-2.7081,-2.8645,-3.047,-3.1867,-3.2173,-3.2274,-3.293,-3.3716,-3.3716,-3.3297,-3.3448,-3.3333,-3.2966,-3.2444,-3.2427,-3.2491,-3.2703,-3.356,-3.3967,-3.4968,-3.5531,-3.5861,-3.5651,-3.5118,-3.4437,-3.3472,-3.2921,-3.2562,-3.2298,-3.4887,-4.01,-4.5229,-4.7709,-5.0202,-5.2386,-5.5361,-5.8499,-6.0817,-6.367,-6.5073,-6.6384,-6.7597,-6.7934,-6.8654,-6.8884,-6.9237,-6.9377,-6.9567,-6.9638,-6.9474,-6.9277,-6.8938,-6.8645,-6.7922,-6.7336,-6.6914,-6.6624,-6.6185,-6.5522,-6.4884,-6.4244,-6.3601,-6.302,-6.2415,-6.2267,-6.2138,-6.1098,-6.0223,-6.0256,-6.0178,-5.9548,-5.8949,-5.8337,-5.7398,-5.6395,-5.5943,-5.5882,-5.6064,-5.6336,-5.7311,-5.8368,-5.8899,-5.9306,-5.9354,-5.985,-6.0105,1.6299,1.5854,1.1361,0.8962,0.8353,0.698,0.4706,0.1976,0.076,-0.1065,-0.3656,-0.4873,-0.5627,-0.6832,-0.9244,-1.1192,-1.2696,-1.6734,-1.8501,-1.9684,-2.0424,-2.1442,-2.1888,-2.1888,-2.1877,-2.2743,-2.3462,-2.5007,-2.7531,-2.7949,-2.9645,-3.1306,-3.293,-3.2831,-3.3351,-3.4532,-3.5436,-3.5567,-3.5698,-3.5717,-3.5586,-3.4815,-3.455,-3.4683,-3.4589,-3.54,-3.6409,-3.6894,-3.7566,-3.8137,-3.8016,-3.7783,-3.7359,-3.6659,-3.6051,-3.579,-3.5612,-3.5432,-3.7037,-4.2331,-4.7466,-5.0575,-5.2814,-5.4879,-5.693,-6.0122,-6.2813,-6.4579,-6.5999,-6.7376,-6.8356,-6.8724,-6.8958,-6.911,-6.923,-6.9363,-6.948,-6.9526,-6.9392,-6.9143,-6.8819,-6.8448,-6.7895,-6.7411,-6.7124,-6.6849,-6.6198,-6.5575,-6.4919,-6.4279,-6.3601,-6.302,-6.2312,-6.1953,-6.1049,-6.0333,-5.9548,-5.9627,-5.9627,-5.9112,-5.8535,-5.8115,-5.7999,-5.7311,-5.6783,-5.7048,-5.7311,-5.7398,-5.7914,-5.8752,-5.9274,-5.9725,-6.0242,-6.0744,-6.2018,1.5244,1.3606,0.8059,0.5642,0.5028,0.3498,0.1824,0.0,-0.0608,-0.2281,-0.4566,-0.5633,-0.6999,-0.8509,-1.076,-1.3016,-1.5128,-1.7481,-1.9245,-2.057,-2.1732,-2.2021,-2.2743,-2.3031,-2.3175,-2.4009,-2.4322,-2.6169,-2.8119,-2.8676,-3.0074,-3.1749,-3.3485,-3.4037,-3.455,-3.5324,-3.635,-3.6889,-3.6909,-3.6909,-3.6889,-3.663,-3.663,-3.7018,-3.7297,-3.784,-3.8595,-3.8072,-3.8243,-3.9627,-3.9032,-3.8537,-3.9551,-3.9327,-3.9206,-3.9114,-3.9003,-3.9207,-4.0645,-4.5141,-4.8714,-5.0387,-5.2658,-5.5638,-5.8614,-6.1635,-6.3488,-6.4875,-6.6884,-6.825,-6.8715,-6.8997,-6.9148,-6.9237,-6.9321,-6.9423,-6.9426,-6.9448,-6.9332,-6.902,-6.8657,-6.8201,-6.7707,-6.7366,-6.7102,-6.6841,-6.6234,-6.5819,-6.5087,-6.4551,-6.379,-6.2954,-6.2209,-6.1364,-6.031,-5.984,-5.9563,-5.9548,-5.9865,-5.9355,-5.867,-5.8504,-5.8555,-5.7967,-5.7914,-5.8284,-5.865,-5.8619,-5.8784,-5.9355,-6.006,-6.0734,-6.1303,-6.2411,-6.4018,1.0459,0.8797,0.502,0.2892,0.2129,0.0912,-0.0912,-0.2889,-0.35,-0.5022,-0.6999,-0.7761,-0.8821,-1.0633,-1.2444,-1.4383,-1.6168,-1.7195,-1.8952,-2.0278,-2.1152,-2.2587,-2.4023,-2.4179,-2.4879,-2.7111,-2.6183,-2.7044,-2.8429,-2.9401,-3.0777,-3.2966,-3.4037,-3.4304,-3.4683,-3.5829,-3.7256,-3.7939,-3.8067,-3.8088,-3.7811,-3.7148,-3.7018,-3.7067,-3.7243,-3.7667,-3.8745,-3.8747,-3.993,-4.1203,-4.1094,-4.1289,-4.218,-4.268,-4.2958,-4.2984,-4.3342,-4.3741,-4.6105,-4.8914,-5.2127,-5.3564,-5.5034,-5.7575,-6.0452,-6.3662,-6.5844,-6.5762,-6.7665,-6.8528,-6.8973,-6.9185,-6.9291,-6.9362,-6.9429,-6.9428,-6.942,-6.9393,-6.9306,-6.8986,-6.8556,-6.8057,-6.7781,-6.7434,-6.7096,-6.6787,-6.6379,-6.5936,-6.545,-6.4989,-6.4098,-6.292,-6.2209,-6.1469,-6.0551,-5.9957,-5.9754,-5.9739,-6.0256,-6.0146,-5.9721,-5.9451,-5.921,-5.9161,-5.903,-5.9225,-5.9306,-5.958,-5.9851,-6.0427,-6.1033,-6.1737,-6.2948,-6.4418,-6.5929,0.6685,0.5621,0.3045,0.1371,0.0456,-0.1065,-0.274,-0.4258,-0.5484,-0.6858,-0.8073,-0.8527,-0.9582,-1.1379,-1.3793,-1.5871,-1.7766,-1.8648,-2.0122,-2.2166,-2.2611,-2.3879,-2.6013,-2.6296,-2.6578,-2.798,-2.787,-2.801,-2.9401,-3.0503,-3.1613,-3.3655,-3.4569,-3.5362,-3.637,-3.7493,-3.8662,-3.942,-4.009,-4.0361,-4.0215,-3.9796,-3.9399,-3.9524,-3.9477,-3.9916,-4.05,-4.0648,-4.1587,-4.2804,-4.3709,-4.4145,-4.486,-4.5883,-4.6502,-4.6596,-4.7493,-4.8926,-5.0358,-5.3372,-5.4271,-5.486,-5.6996,-5.9383,-6.0906,-6.3652,-6.6004,-6.6398,-6.7804,-6.8724,-6.9133,-6.9317,-6.9414,-6.9452,-6.9433,-6.9449,-6.939,-6.937,-6.9262,-6.8911,-6.8528,-6.8387,-6.8131,-6.7745,-6.7353,-6.7016,-6.6557,-6.6037,-6.561,-6.5193,-6.4219,-6.3083,-6.2483,-6.1789,-6.1024,-6.0256,-6.0101,-6.0421,-6.095,-6.1172,-6.0692,-6.0345,-6.0035,-5.9911,-5.9911,-5.9944,-5.9944,-6.0133,-6.0399,-6.1166,-6.2066,-6.3418,-6.4805,-6.6357,-6.8231,0.3648,0.3344,0.1525,0.0153,-0.0914,-0.2589,-0.3806,-0.4868,-0.6547,-0.7622,-0.8077,-0.8376,-0.9576,-1.1674,-1.4367,-1.7315,-1.9516,-2.0391,-2.1563,-2.3762,-2.4062,-2.5319,-2.7421,-2.8119,-2.8259,-2.9092,-2.8815,-2.9645,-3.117,-3.2121,-3.3217,-3.4702,-3.6279,-3.7317,-3.8154,-3.9546,-4.1329,-4.1919,-4.2693,-4.3078,-4.3078,-4.2958,-4.2572,-4.2428,-4.2382,-4.2382,-4.2261,-4.248,-4.3191,-4.4295,-4.5273,-4.585,-4.6505,-4.755,-4.8087,-4.9253,-5.0725,-5.3035,-5.4092,-5.5545,-5.6076,-5.6765,-5.8401,-6.0003,-6.1564,-6.3827,-6.5851,-6.6325,-6.7597,-6.8626,-6.9231,-6.9419,-6.9502,-6.9516,-6.9473,-6.9435,-6.9388,-6.9393,-6.9407,-6.9072,-6.8677,-6.8536,-6.8424,-6.8032,-6.763,-6.7187,-6.6742,-6.6136,-6.5663,-6.5213,-6.4373,-6.3817,-6.3277,-6.2585,-6.1826,-6.0875,-6.08,-6.1252,-6.1755,-6.214,-6.1684,-6.1325,-6.0991,-6.065,-6.0758,-6.0758,-6.1331,-6.1438,-6.1074,-6.2352,-6.4697,-6.6008,-6.6939,-6.8848,-7.0962,0.1827,0.1521,-0.0763,-0.2594,-0.381,-0.4419,-0.5332,-0.6703,-0.7162,-0.7622,-0.7925,-0.8523,-1.0169,-1.256,-1.4641,-1.7167,-2.0715,-2.0693,-2.2286,-2.4335,-2.4777,-2.631,-2.8104,-2.866,-2.8938,-3.0349,-3.0074,-3.0794,-3.2948,-3.383,-3.5003,-3.648,-3.8174,-3.9316,-3.9693,-4.0836,-4.1329,-4.1797,-4.2162,-4.2428,-4.267,-4.2791,-4.2814,-4.2981,-4.3198,-4.3318,-4.3295,-4.351,-4.4367,-4.5754,-4.6716,-4.7578,-4.9219,-5.0457,-5.1888,-5.3679,-5.5112,-5.6582,-5.7566,-5.8201,-5.8489,-5.8698,-5.9794,-6.1124,-6.2599,-6.4071,-6.5887,-6.7487,-6.8377,-6.8863,-6.9231,-6.9468,-6.955,-6.9579,-6.9515,-6.9428,-6.9436,-6.943,-6.9447,-6.9224,-6.8848,-6.8622,-6.8507,-6.8127,-6.7479,-6.7066,-6.6521,-6.5987,-6.5486,-6.5081,-6.4761,-6.4373,-6.3879,-6.3213,-6.2381,-6.143,-6.2036,-6.2347,-6.2652,-6.2952,-6.2652,-6.2279,-6.1722,-6.1325,-6.143,-6.1997,-6.3027,-6.3503,-6.3603,-6.4726,-6.7302,-6.8956,-6.9681,-7.1273,-7.2551,-0.0462,-0.1524,-0.2289,-0.4115,-0.6395,-0.5484,-0.6098,-0.7921,-0.7617,-0.7773,-0.8679,-0.9576,-1.1511,-1.4038,-1.6124,-1.9213,-2.2154,-2.2731,-2.4165,-2.59,-2.648,-2.7855,-2.9936,-3.0179,-3.0743,-3.1442,-3.2121,-3.3333,-3.4815,-3.5659,-3.6829,-3.8302,-3.8937,-3.984,-4.0712,-4.1452,-4.2185,-4.3031,-4.3391,-4.363,-4.3749,-4.401,-4.3915,-4.3939,-4.3939,-4.4058,-4.4058,-4.4129,-4.516,-4.6977,-4.7707,-4.9003,-5.0774,-5.2556,-5.4628,-5.5953,-5.6785,-5.7722,-5.8767,-6.0633,-6.0935,-6.1049,-6.2308,-6.3301,-6.3866,-6.4453,-6.541,-6.689,-6.7855,-6.8573,-6.9074,-6.9316,-6.9591,-6.9706,-6.9685,-6.9621,-6.9543,-6.9486,-6.9449,-6.9352,-6.9104,-6.8899,-6.8705,-6.8122,-6.7442,-6.6856,-6.6295,-6.5783,-6.5268,-6.5081,-6.4911,-6.4492,-6.4098,-6.3405,-6.2652,-6.2819,-6.3693,-6.3532,-6.3595,-6.3658,-6.3469,-6.3178,-6.2684,-6.2279,-6.255,-6.2983,-6.3923,-6.4712,-6.5847,-6.695,-6.8779,-7.0509,-7.1893,-7.2965,-7.355,-0.2508,-0.429,-0.3682,-0.5499,-0.8509,-0.6695,-0.7154,-0.8982,-0.8674,-0.883,-0.9884,-1.1367,-1.345,-1.5968,-1.8774,-2.1563,-2.3619,-2.462,-2.5914,-2.7761,-2.818,-2.9016,-3.081,-3.1187,-3.185,-3.2661,-3.3867,-3.4777,-3.5979,-3.7514,-3.8536,-3.9063,-3.984,-4.0464,-4.1575,-4.2185,-4.3055,-4.3915,-4.4271,-4.4624,-4.4742,-4.4976,-4.5001,-4.5093,-4.4742,-4.4859,-4.4859,-4.5025,-4.5798,-4.7987,-4.8941,-5.0315,-5.2381,-5.4541,-5.6253,-5.7351,-5.8254,-5.9628,-6.0837,-6.2799,-6.3001,-6.3013,-6.3893,-6.4835,-6.4469,-6.4537,-6.5465,-6.6551,-6.7397,-6.8197,-6.8836,-6.9354,-6.9655,-6.9814,-6.9837,-6.9735,-6.9692,-6.9596,-6.95,-6.9468,-6.9392,-6.9231,-6.881,-6.8312,-6.7597,-6.6914,-6.6402,-6.5921,-6.5378,-6.5102,-6.4989,-6.4726,-6.4338,-6.3721,-6.3213,-6.4158,-6.4586,-6.4279,-6.4219,-6.4279,-6.4219,-6.3967,-6.3906,-6.3721,-6.3783,-6.3941,-6.4566,-6.5463,-6.6604,-6.8061,-6.98,-7.1611,-7.2615,-7.3585,-7.4239,-0.4323,-0.5019,-0.6427,-0.7741,-0.8977,-0.866,-0.9269,-1.0638,-1.1079,-1.1379,-1.2274,-1.3457,-1.5524,-1.7875,-1.9505,-2.1274,-2.3331,-2.4634,-2.6056,-2.8041,-2.832,-2.9294,-3.0552,-3.1511,-3.202,-3.2409,-3.4266,-3.5324,-3.648,-3.8133,-3.9796,-4.0215,-4.1497,-4.2109,-4.2376,-4.2958,-4.3558,-4.4295,-4.4624,-4.4976,-4.5351,-4.521,-4.5534,-4.5765,-4.5674,-4.5674,-4.6224,-4.635,-4.7361,-5.062,-5.0261,-5.1998,-5.4378,-5.5855,-5.6376,-5.8657,-6.0395,-6.2069,-6.3806,-6.4488,-6.4891,-6.5448,-6.5141,-6.4503,-6.4655,-6.5291,-6.6028,-6.6723,-6.7366,-6.8238,-6.9297,-6.9655,-6.979,-6.9816,-6.9817,-6.9721,-6.9676,-6.9717,-6.9639,-6.9587,-6.9468,-6.9352,-6.8973,-6.849,-6.7742,-6.7083,-6.6587,-6.6123,-6.5557,-6.5268,-6.5213,-6.5011,-6.4897,-6.4422,-6.4363,-6.4989,-6.4989,-6.4783,-6.4761,-6.4761,-6.4703,-6.4457,-6.4269,-6.4457,-6.4609,-6.4703,-6.5089,-6.5988,-6.7389,-6.9223,-7.0664,-7.1765,-7.2948,-7.4098,-7.4239,-0.6875,-0.8006,-0.8064,-0.9602,-1.1458,-1.0138,-1.0702,-1.2315,-1.1901,-1.2424,-1.421,-1.5103,-1.702,-1.9516,-2.085,-2.2009,-2.3331,-2.4335,-2.5772,-2.7325,-2.818,-2.9155,-3.0277,-3.1221,-3.2291,-3.3333,-3.506,-3.672,-3.8005,-3.9796,-4.0937,-4.1497,-4.2277,-4.2763,-4.2763,-4.3222,-4.3915,-4.46,-4.5044,-4.5393,-4.588,-4.574,-4.5945,-4.5649,-4.6135,-4.6364,-4.7108,-4.7195,-4.9227,-5.1063,-5.1576,-5.3088,-5.6538,-5.774,-5.8871,-6.0426,-6.2045,-6.368,-6.566,-6.5706,-6.5561,-6.6832,-6.6389,-6.5808,-6.5712,-6.5957,-6.6678,-6.7197,-6.7707,-6.8304,-6.9253,-6.9687,-6.9897,-6.9843,-6.9818,-6.9767,-6.9731,-6.9745,-6.9717,-6.9619,-6.9521,-6.9411,-6.9089,-6.863,-6.7978,-6.7523,-6.7041,-6.6283,-6.5819,-6.545,-6.5397,-6.5378,-6.5378,-6.5323,-6.5323,-6.5323,-6.5304,-6.5193,-6.5102,-6.5081,-6.5081,-6.484,-6.4597,-6.4805,-6.4989,-6.5081,-6.5293,-6.6506,-6.7716,-6.8914,-7.0182,-7.1697,-7.2994,-7.3946,-7.4299,-0.9198,-1.0635,-0.9958,-1.1563,-1.3727,-1.1918,-1.2299,-1.4502,-1.2966,-1.4207,-1.6116,-1.7066,-1.8511,-2.0727,-2.2033,-2.29,-2.3188,-2.4205,-2.5204,-2.6621,-2.7746,-2.8862,-2.9709,-3.1084,-3.2274,-3.3582,-3.5698,-3.7642,-3.9273,-4.0442,-4.1842,-4.2132,-4.2376,-4.2595,-4.2958,-4.3653,-4.4434,-4.555,-4.6035,-4.6263,-4.663,-4.6605,-4.6288,-4.6085,-4.6995,-4.7531,-4.7891,-4.8417,-5.0363,-5.2655,-5.3533,-5.4842,-5.7897,-5.9277,-6.0232,-6.1465,-6.2375,-6.4082,-6.6278,-6.6051,-6.5817,-6.695,-6.6765,-6.6962,-6.6459,-6.6561,-6.7072,-6.7633,-6.8023,-6.8388,-6.9053,-6.9541,-6.9837,-6.9933,-6.9851,-6.9775,-6.9765,-6.9773,-6.9717,-6.9634,-6.9571,-6.9538,-6.9372,-6.8824,-6.8395,-6.7986,-6.733,-6.6578,-6.6136,-6.5732,-6.561,-6.545,-6.545,-6.5504,-6.545,-6.545,-6.5432,-6.5378,-6.5268,-6.5158,-6.5213,-6.5122,-6.5011,-6.5067,-6.5268,-6.5268,-6.5213,-6.6289,-6.7138,-6.821,-6.9316,-7.0506,-7.1778,-7.3552,-7.4257,-1.0757,-1.0893,-1.3185,-1.4362,-1.4819,-1.4547,-1.4639,-1.5606,-1.5899,-1.6957,-1.8221,-1.9423,-2.0143,-2.1454,-2.2322,-2.2755,-2.29,-2.3918,-2.4777,-2.5772,-2.7058,-2.8305,-2.9016,-3.081,-3.202,-3.2948,-3.5436,-3.6998,-3.8536,-4.0544,-4.1475,-4.1865,-4.2376,-4.2958,-4.3725,-4.4552,-4.56,-4.6743,-4.7195,-4.7505,-4.7642,-4.7616,-4.7505,-4.7419,-4.8364,-4.9072,-4.9423,-4.9665,-5.1113,-5.6523,-5.6295,-5.697,-5.8605,-5.9454,-6.0266,-6.1223,-6.2981,-6.4641,-6.6056,-6.5915,-6.5674,-6.6201,-6.625,-6.6102,-6.6561,-6.6944,-6.7393,-6.7928,-6.8208,-6.8565,-6.8976,-6.954,-6.9859,-6.9938,-6.9853,-6.9767,-6.9753,-6.9773,-6.9717,-6.9656,-6.9571,-6.9521,-6.9354,-6.9104,-6.8721,-6.8275,-6.7485,-6.6864,-6.6449,-6.5951,-6.5663,-6.561,-6.561,-6.5663,-6.5663,-6.5663,-6.5557,-6.554,-6.5342,-6.5342,-6.5397,-6.5397,-6.5378,-6.5323,-6.5378,-6.5432,-6.5484,-6.5839,-6.6387,-6.7429,-6.8587,-6.933,-7.0415,-7.2962,-7.4378,-1.3128,-1.3008,-1.4531,-1.5305,-1.5479,-1.5262,-1.5742,-1.6155,-1.631,-1.71,-1.8664,-1.9044,-1.9986,-2.1599,-2.2322,-2.2755,-2.29,-2.3918,-2.4647,-2.5204,-2.6353,-2.748,-2.8723,-3.0673,-3.2562,-3.4133,-3.609,-3.777,-3.9546,-4.0712,-4.1743,-4.2353,-4.3055,-4.3844,-4.4738,-4.569,-4.6856,-4.7891,-4.8583,-4.8828,-4.8663,-4.8937,-4.8692,-4.806,-4.8312,-4.9208,-5.0145,-5.1138,-5.2836,-5.5294,-5.663,-5.7367,-5.8745,-6.0293,-6.1609,-6.2408,-6.3364,-6.4998,-6.6336,-6.5605,-6.5517,-6.6675,-6.6467,-6.6633,-6.7083,-6.7437,-6.7855,-6.8373,-6.8687,-6.8945,-6.9204,-6.9541,-6.9821,-6.9881,-6.9855,-6.9776,-6.9745,-6.9705,-6.9663,-6.9603,-6.9571,-6.9555,-6.9503,-6.9215,-6.8911,-6.849,-6.7743,-6.7166,-6.6732,-6.6149,-6.5715,-6.5663,-6.5663,-6.5663,-6.5663,-6.5663,-6.561,-6.561,-6.5557,-6.5557,-6.561,-6.561,-6.6037,-6.6552,-6.5931,-6.57,-6.6073,-6.65,-6.6765,-6.7151,-6.796,-6.9176,-7.1207,-7.3537,-7.4175,-1.4756,-1.4728,-1.5859,-1.6563,-1.6852,-1.7232,-1.7582,-1.7762,-1.7542,-1.8547,-1.9347,-1.9465,-2.0559,-2.1732,-2.2467,-2.2755,-2.3044,-2.3905,-2.4647,-2.5075,-2.5786,-2.7325,-2.9401,-3.134,-3.3485,-3.5586,-3.676,-3.8641,-4.1184,-4.1452,-4.2208,-4.3342,-4.3962,-4.4713,-4.5805,-4.6856,-4.7891,-4.9016,-4.9905,-5.0011,-4.9852,-5.0329,-4.9878,-4.8854,-4.8883,-4.9289,-5.0223,-5.2407,-5.4046,-5.5142,-5.6667,-5.7775,-5.8708,-6.0945,-6.2482,-6.32,-6.3805,-6.5108,-6.6413,-6.5612,-6.5653,-6.7441,-6.7352,-6.7329,-6.7781,-6.815,-6.8616,-6.8836,-6.9061,-6.9177,-6.9387,-6.954,-6.9736,-6.9811,-6.984,-6.9753,-6.9691,-6.9611,-6.9571,-6.9571,-6.9571,-6.9555,-6.9486,-6.9273,-6.8973,-6.8769,-6.806,-6.7239,-6.6944,-6.6402,-6.5886,-6.587,-6.5715,-6.5715,-6.5767,-6.5767,-6.5767,-6.5767,-6.5981,-6.6089,-6.6322,-6.675,-6.7624,-6.7854,-6.7142,-6.7017,-6.7177,-6.6697,-6.7284,-6.7622,-6.7938,-6.7896,-7.046,-7.3031,-7.3636,-1.5085,-1.5071,-1.7765,-1.8959,-1.9137,-2.0527,-2.088,-2.104,-2.1967,-2.1893,-2.1301,-2.2189,-2.2599,-2.2322,-2.3044,-2.3319,-2.3331,-2.4049,-2.4777,-2.5772,-2.7029,-2.8815,-3.1017,-3.2544,-3.4152,-3.5848,-3.7317,-3.9063,-4.0972,-4.2018,-4.2985,-4.3962,-4.4854,-4.592,-4.6969,-4.7445,-4.8553,-4.9959,-5.0595,-5.109,-5.1635,-5.1607,-5.1401,-5.1504,-5.0882,-5.0805,-5.1194,-5.2633,-5.4125,-5.5669,-5.7578,-5.8758,-5.9338,-6.1098,-6.2511,-6.2821,-6.406,-6.517,-6.5662,-6.5628,-6.6053,-6.7028,-6.7989,-6.8545,-6.8258,-6.9182,-6.962,-6.9312,-6.9121,-6.9156,-6.9353,-6.943,-6.9615,-6.9852,-6.9837,-6.9735,-6.9596,-6.9603,-6.9571,-6.9571,-6.9571,-6.9538,-6.9411,-6.9209,-6.8961,-6.8762,-6.8238,-6.7593,-6.7197,-6.6723,-6.6247,-6.5936,-6.5767,-6.5819,-6.5972,-6.5972,-6.5936,-6.6187,-6.6832,-6.721,-6.7552,-6.8676,-6.9762,-6.9049,-6.8462,-6.8498,-6.8231,-6.6855,-6.6621,-6.7512,-6.7639,-6.7089,-6.8622,-7.1373,-7.2765,-1.5599,-1.6762,-1.8291,-1.9653,-2.0981,-2.1508,-2.1921,-2.2067,-2.2347,-2.2739,-2.3198,-2.3657,-2.4282,-2.4879,-2.5447,-2.5305,-2.4892,-2.5475,-2.6466,-2.787,-2.8969,-3.0058,-3.1561,-3.2526,-3.438,-3.7196,-3.8515,-4.0274,-4.2577,-4.3201,-4.3986,-4.4927,-4.5945,-4.7108,-4.8028,-4.8606,-4.9558,-5.0909,-5.1297,-5.1783,-5.232,-5.285,-5.285,-5.2449,-5.2332,-5.2389,-5.2506,-5.3803,-5.4905,-5.5973,-5.7766,-5.9624,-6.1112,-6.2279,-6.3336,-6.3967,-6.4848,-6.5486,-6.568,-6.6037,-6.6799,-6.8138,-6.8781,-6.9472,-7.0769,-7.0141,-7.0432,-7.0226,-6.9581,-6.9109,-6.937,-6.9398,-6.9565,-6.9846,-6.9795,-6.9744,-6.9705,-6.9649,-6.9587,-6.9571,-6.9571,-6.9559,-6.9392,-6.9187,-6.8961,-6.8771,-6.8275,-6.7706,-6.7516,-6.69,-6.6578,-6.6283,-6.6037,-6.6037,-6.6136,-6.6185,-6.6185,-6.6725,-6.7516,-6.8061,-6.8427,-6.9604,-7.046,-6.9675,-6.9354,-6.9318,-6.9337,-6.7774,-6.6643,-6.7232,-6.8072,-6.8362,-6.9369,-7.1489,-7.2474,-1.7451,-1.8799,-1.9972,-2.1494,-2.2789,-2.3446,-2.3804,-2.3913,-2.427,-2.462,-2.5032,-2.5346,-2.5985,-2.6718,-2.7014,-2.7014,-2.6718,-2.77,-2.8815,-3.0074,-3.0607,-3.1544,-3.2661,-3.3217,-3.5041,-3.7709,-3.9,-4.1262,-4.382,-4.4317,-4.4811,-4.5905,-4.702,-4.7917,-4.8249,-4.8961,-4.9907,-5.1118,-5.1476,-5.219,-5.3049,-5.3699,-5.3699,-5.3148,-5.3078,-5.3502,-5.4348,-5.576,-5.6543,-5.6779,-5.8357,-6.0092,-6.1969,-6.3238,-6.4079,-6.4805,-6.5556,-6.5943,-6.61,-6.6587,-6.7728,-6.9286,-7.0034,-7.096,-7.2021,-7.1579,-7.1086,-7.043,-6.9748,-6.9187,-6.9436,-6.9528,-6.9632,-6.9779,-6.9727,-6.9697,-6.968,-6.9649,-6.9587,-6.9571,-6.9571,-6.9521,-6.9392,-6.9187,-6.8961,-6.8799,-6.8373,-6.7965,-6.7781,-6.7316,-6.6893,-6.6669,-6.6485,-6.639,-6.6438,-6.6485,-6.6531,-6.6903,-6.7905,-6.8676,-6.8909,-6.9604,-7.0103,-7.0103,-7.0032,-7.0019,-7.012,-6.9448,-6.8274,-6.821,-6.8116,-6.9183,-7.0836,-7.1941,-7.2619,-2.0981,-2.1001,-2.3521,-2.4352,-2.485,-2.6714,-2.7415,-2.7449,-2.8673,-2.829,-2.7271,-2.789,-2.8086,-2.7635,-2.7836,-2.787,-2.8815,-3.0332,-3.1442,-3.1697,-3.2204,-3.3315,-3.4834,-3.5625,-3.639,-3.68,-3.8895,-4.1995,-4.521,-4.5093,-4.5558,-4.6731,-4.7831,-4.8138,-4.7779,-4.8579,-4.9423,-5.0749,-5.1138,-5.206,-5.3796,-5.4185,-5.4185,-5.3991,-5.3475,-5.4184,-5.6426,-5.7828,-5.8601,-5.8784,-5.9451,-6.0508,-6.1969,-6.3679,-6.4678,-6.4961,-6.5808,-6.6433,-6.6651,-6.7202,-6.8291,-7.0213,-7.1574,-7.2023,-7.2233,-7.2604,-7.2201,-7.0521,-6.9682,-6.9374,-6.973,-6.9773,-6.9797,-6.9761,-6.9679,-6.9653,-6.9634,-6.9587,-6.9571,-6.9571,-6.9571,-6.9521,-6.9354,-6.9149,-6.8999,-6.8827,-6.8535,-6.8242,-6.7928,-6.7744,-6.7555,-6.7239,-6.6907,-6.6856,-6.6812,-6.6849,-6.69,-6.7082,-6.8193,-6.8882,-6.8909,-6.9782,-7.0353,-7.021,-7.0139,-7.0197,-7.0264,-6.9045,-6.8262,-6.8386,-6.8043,-6.8257,-6.9472,-7.0601,-7.1729,-2.1631,-2.2977,-2.4152,-2.5346,-2.6664,-2.7736,-2.8854,-2.9915,-3.0133,-3.055,-3.1043,-3.1207,-3.1372,-3.1108,-3.1091,-3.1122,-3.1613,-3.343,-3.4,-3.3369,-3.4777,-3.5698,-3.652,-3.7919,-3.8662,-3.9042,-4.1262,-4.3606,-4.5864,-4.5955,-4.63,-4.687,-4.7608,-4.8197,-4.8745,-4.8963,-5.0329,-5.2219,-5.232,-5.2992,-5.4694,-5.5388,-5.5481,-5.5073,-5.576,-5.6717,-5.7398,-5.8348,-5.888,-5.9161,-6.0399,-6.1617,-6.2548,-6.4341,-6.5415,-6.5486,-6.6175,-6.6614,-6.6784,-6.736,-6.9072,-7.191,-7.2506,-7.38,-7.591,-7.53,-7.4151,-7.2734,-7.1658,-7.0485,-7.0046,-6.9867,-6.9862,-6.9779,-6.9727,-6.9717,-6.9705,-6.9649,-6.9587,-6.9571,-6.9571,-6.9521,-6.9392,-6.9149,-6.8999,-6.8827,-6.8596,-6.841,-6.8208,-6.8036,-6.7744,-6.7593,-6.736,-6.732,-6.744,-6.7437,-6.7516,-6.7412,-6.8145,-6.8375,-6.8749,-6.998,-7.0603,-7.0282,-7.0123,-7.0216,-6.9559,-6.8274,-6.8097,-6.8518,-6.8261,-6.7919,-6.8532,-6.928,-7.0265,-2.2977,-2.5157,-2.564,-2.698,-2.8599,-2.9366,-3.0731,-3.2291,-3.2411,-3.2956,-3.3806,-3.3707,-3.357,-3.3746,-3.399,-3.4376,-3.4848,-3.5571,-3.5606,-3.4966,-3.626,-3.7018,-3.7256,-3.9147,-4.0127,-4.05,-4.248,-4.4459,-4.607,-4.6185,-4.6439,-4.6757,-4.7358,-4.7891,-4.8443,-4.9072,-5.0407,-5.2392,-5.2722,-5.3709,-5.5511,-5.6276,-5.6487,-5.6337,-5.7914,-5.8784,-5.8388,-5.9498,-6.0092,-6.0092,-6.1583,-6.2815,-6.3485,-6.47,-6.5468,-6.5732,-6.6459,-6.6871,-6.6957,-6.7671,-6.9424,-7.2212,-7.2718,-7.4154,-7.619,-7.6363,-7.5171,-7.356,-7.2313,-7.1318,-7.0247,-6.9885,-6.9884,-6.9819,-6.9753,-6.9744,-6.9724,-6.9639,-6.9571,-6.9571,-6.9571,-6.9555,-6.9449,-6.9231,-6.8986,-6.8833,-6.8619,-6.8473,-6.834,-6.8242,-6.8034,-6.7964,-6.7782,-6.7671,-6.8071,-6.8036,-6.7965,-6.7843,-6.7692,-6.7984,-6.7997,-6.903,-6.9089,-6.8641,-6.932,-6.9385,-6.8616,-6.743,-6.773,-6.8149,-6.8256,-6.8002,-6.8291,-6.8455,-6.9055,-2.5193,-2.7523,-2.7988,-2.8938,-3.0671,-3.1662,-3.292,-3.4522,-3.52,-3.5824,-3.5814,-3.5196,-3.4899,-3.4999,-3.6162,-3.7056,-3.7705,-3.6837,-3.622,-3.6109,-3.6889,-3.7405,-3.777,-3.9399,-4.0376,-4.1117,-4.2865,-4.4459,-4.5699,-4.593,-4.607,-4.6439,-4.7133,-4.7358,-4.7608,-4.8772,-5.0011,-5.1551,-5.2493,-5.4067,-5.6245,-5.6605,-5.7223,-5.8084,-5.9675,-6.0256,-5.9721,-6.1252,-6.2209,-6.2209,-6.3144,-6.3993,-6.462,-6.4735,-6.5162,-6.5783,-6.6687,-6.7243,-6.7366,-6.8063,-6.9401,-7.1234,-7.2734,-7.3831,-7.4703,-7.5971,-7.5478,-7.2443,-7.2465,-7.1839,-7.0524,-7.0071,-6.9818,-6.9781,-6.9765,-6.9755,-6.9762,-6.9653,-6.9587,-6.9571,-6.9571,-6.9571,-6.9571,-6.9256,-6.902,-6.8924,-6.8631,-6.8404,-6.8373,-6.8404,-6.834,-6.834,-6.8377,-6.8373,-6.8373,-6.8308,-6.8174,-6.7966,-6.7738,-6.762,-6.7519,-6.734,-6.7062,-6.7056,-6.8024,-6.8206,-6.7394,-6.7229,-6.7555,-6.7744,-6.7892,-6.826,-6.8664,-6.806,-6.8349,-2.8138,-3.07,-2.9923,-3.054,-3.2413,-3.3553,-3.4967,-3.6127,-3.606,-3.6623,-3.7438,-3.6683,-3.6559,-3.7367,-3.7809,-3.7699,-3.7531,-3.8406,-3.8429,-3.777,-3.9168,-4.0068,-4.0566,-4.2185,-4.3175,-4.351,-4.4129,-4.4718,-4.5093,-4.5583,-4.6045,-4.6439,-4.687,-4.7805,-4.918,-4.9611,-5.1062,-5.3247,-5.4451,-5.5453,-5.6574,-5.7882,-5.8917,-5.9595,-6.0725,-6.1212,-6.1065,-6.2106,-6.2853,-6.3086,-6.3879,-6.4481,-6.4713,-6.5162,-6.568,-6.6283,-6.69,-6.7373,-6.7653,-6.8016,-6.9105,-7.1151,-7.2785,-7.4242,-7.5667,-7.7374,-7.69,-7.4235,-7.4004,-7.3507,-7.1944,-7.061,-6.9816,-6.9767,-6.9781,-6.9783,-6.9755,-6.9667,-6.9571,-6.9571,-6.9571,-6.9571,-6.9538,-6.9277,-6.902,-6.8973,-6.8631,-6.8404,-6.8404,-6.8404,-6.8404,-6.8404,-6.8404,-6.8404,-6.8404,-6.8404,-6.8242,-6.8,-6.7892,-6.7632,-6.7181,-6.7162,-6.695,-6.6913,-6.7131,-6.7321,-6.751,-6.7397,-6.7555,-6.7705,-6.7781,-6.8076,-6.8554,-6.8186,-6.8295,-3.0099,-3.2285,-3.1487,-3.2587,-3.4637,-3.5591,-3.6867,-3.8177,-3.7694,-3.7954,-3.8719,-3.7755,-3.7915,-3.9126,-3.8887,-3.8843,-3.8726,-3.9463,-3.9463,-3.9085,-4.0193,-4.1206,-4.1797,-4.3318,-4.4319,-4.4649,-4.4859,-4.4952,-4.4976,-4.5326,-4.6045,-4.6845,-4.7435,-4.8469,-5.0117,-5.1034,-5.2335,-5.4097,-5.5546,-5.6721,-5.7626,-5.8917,-5.9944,-6.0443,-6.0941,-6.1352,-6.1646,-6.2483,-6.3247,-6.3699,-6.4457,-6.4919,-6.5031,-6.5397,-6.5835,-6.6427,-6.6723,-6.7133,-6.7801,-6.8057,-6.8776,-7.0094,-7.1689,-7.3412,-7.5292,-7.7147,-7.7234,-7.5144,-7.5421,-7.4947,-7.2725,-7.1487,-7.054,-6.9933,-6.9765,-6.9773,-6.9755,-6.9667,-6.9571,-6.9571,-6.9571,-6.9571,-6.9555,-6.9393,-6.9215,-6.8973,-6.8631,-6.8404,-6.8404,-6.8404,-6.8404,-6.8404,-6.8404,-6.8404,-6.8404,-6.8404,-6.8308,-6.814,-6.8071,-6.7965,-6.7518,-6.74,-6.732,-6.7078,-6.7353,-6.7628,-6.7999,-6.7745,-6.7591,-6.747,-6.755,-6.7628,-6.7513,-6.7667,-6.7705,-3.1357,-3.292,-3.2874,-3.4423,-3.674,-3.7234,-3.8299,-3.9579,-3.9355,-3.93,-3.942,-3.8366,-3.8778,-4.0101,-3.9594,-4.0008,-4.1004,-4.0339,-4.009,-4.0361,-4.061,-4.1329,-4.2284,-4.3438,-4.4437,-4.4766,-4.4884,-4.4952,-4.4952,-4.5093,-4.5995,-4.7531,-4.8359,-4.9342,-5.0435,-5.2234,-5.3495,-5.3824,-5.6123,-5.7766,-5.8885,-5.9786,-6.0366,-6.0586,-6.0781,-6.1165,-6.1718,-6.2652,-6.3504,-6.4219,-6.4897,-6.5342,-6.545,-6.5486,-6.5732,-6.6438,-6.6485,-6.6849,-6.7819,-6.8208,-6.851,-6.8715,-7.0288,-7.202,-7.3708,-7.5631,-7.6142,-7.5481,-7.6269,-7.5647,-7.3007,-7.2095,-7.1172,-6.9917,-6.9755,-6.974,-6.9767,-6.9639,-6.9571,-6.9571,-6.9571,-6.9571,-6.9571,-6.9555,-6.943,-6.9127,-6.8789,-6.8504,-6.8442,-6.8404,-6.8404,-6.8404,-6.8404,-6.8404,-6.8404,-6.8404,-6.8373,-6.8373,-6.8373,-6.8242,-6.7999,-6.7818,-6.7745,-6.752,-6.7595,-6.7892,-6.8036,-6.7928,-6.7743,-6.747,-6.7307,-6.7307,-6.7543,-6.7583,-6.7466,-3.3569,-3.6127,-3.3785,-3.4194,-3.6559,-3.7176,-3.7917,-3.851,-3.8461,-3.842,-3.8248,-3.7843,-3.8249,-3.9509,-4.0552,-4.1105,-4.1374,-4.2231,-4.2353,-4.1788,-4.2277,-4.274,-4.3222,-4.382,-4.4319,-4.4531,-4.4859,-4.4952,-4.5069,-4.5905,-4.6907,-4.7642,-4.9045,-5.0356,-5.1504,-5.2016,-5.316,-5.4988,-5.6986,-5.8388,-5.9225,-5.9898,-6.0211,-6.0321,-6.1469,-6.2347,-6.2619,-6.3755,-6.4644,-6.4876,-6.5122,-6.5288,-6.5378,-6.5921,-6.639,-6.6776,-6.7197,-6.7744,-6.8242,-6.8377,-6.8504,-6.8626,-7.0246,-7.1546,-7.2313,-7.4043,-7.5557,-7.6458,-7.5909,-7.5169,-7.4033,-7.203,-7.021,-6.9856,-6.9701,-6.9611,-6.9596,-6.9603,-6.9571,-6.9571,-6.9571,-6.9587,-6.9571,-6.9571,-6.9503,-6.9311,-6.8986,-6.8656,-6.8436,-6.8404,-6.8404,-6.8404,-6.8404,-6.8404,-6.8404,-6.8404,-6.8404,-6.8404,-6.8404,-6.834,-6.8308,-6.8275,-6.8208,-6.8066,-6.8208,-6.8208,-6.8275,-6.8174,-6.7855,-6.743,-6.7181,-6.7139,-6.7302,-6.726,-6.6973,-3.4946,-3.6975,-3.539,-3.5328,-3.6458,-3.7368,-3.7934,-3.8299,-3.7915,-3.8092,-3.8399,-3.8766,-3.942,-4.0317,-4.1919,-4.2768,-4.2888,-4.3962,-4.4129,-4.3318,-4.3796,-4.3915,-4.3844,-4.4176,-4.4413,-4.4742,-4.5418,-4.5765,-4.588,-4.6995,-4.7865,-4.8527,-4.9932,-5.1297,-5.265,-5.3119,-5.4163,-5.5851,-5.4986,-5.4887,-5.58,-5.5238,-5.5063,-5.5278,-5.6986,-5.815,-5.8692,-5.9573,-6.0291,-6.0863,-6.0967,-6.1775,-6.3496,-6.3787,-6.4921,-6.7133,-6.736,-6.7707,-6.8373,-6.8404,-6.8473,-6.8566,-6.9639,-7.0395,-7.0692,-7.2466,-7.3993,-7.498,-7.5019,-7.4556,-7.3712,-7.1976,-7.0512,-6.9754,-6.9609,-6.9571,-6.9571,-6.9571,-6.9571,-6.9587,-6.9656,-6.9656,-6.9587,-6.9656,-6.9571,-6.9273,-6.9034,-6.8789,-6.8467,-6.8498,-6.8566,-6.8473,-6.8404,-6.8404,-6.8404,-6.8404,-6.8404,-6.8404,-6.8404,-6.8404,-6.8404,-6.8242,-6.8174,-6.8174,-6.814,-6.8069,-6.7818,-6.7782,-6.7744,-6.7434,-6.7266,-6.7053,-6.7181,-6.7139,-6.6796,-3.5815,-3.7013,-3.6717,-3.6538,-3.6267,-3.7168,-3.7888,-3.813,-3.8187,-3.8662,-3.9567,-4.0522,-4.1285,-4.182,-4.3559,-4.4503,-4.4995,-4.5665,-4.555,-4.4786,-4.5112,-4.4903,-4.4295,-4.4624,-4.4859,-4.521,-4.6314,-4.6907,-4.7195,-4.8307,-4.9153,-4.9691,-5.0777,-5.2145,-5.3601,-5.4385,-5.5118,-5.5782,-5.2103,-5.0975,-5.25,-5.089,-5.0011,-4.9952,-5.1913,-5.3041,-5.321,-5.4069,-5.4558,-5.4728,-5.487,-5.6268,-5.9262,-5.9086,-6.0999,-6.5242,-6.5233,-6.5756,-6.7321,-6.7427,-6.7754,-6.8447,-6.8859,-6.8897,-6.8642,-7.0845,-7.2383,-7.2569,-7.369,-7.3874,-7.2545,-7.1962,-7.1029,-6.9792,-6.9571,-6.9571,-6.9571,-6.9571,-6.9571,-6.9571,-6.9686,-6.9701,-6.9641,-6.9686,-6.9603,-6.9215,-6.9044,-6.8899,-6.8677,-6.8685,-6.8685,-6.8535,-6.8504,-6.8467,-6.8404,-6.8404,-6.8404,-6.8404,-6.8404,-6.8373,-6.8308,-6.8071,-6.7892,-6.7744,-6.7744,-6.7593,-6.728,-6.7197,-6.728,-6.7357,-6.698,-6.6742,-6.6929,-6.6973,-6.6751,-3.7705,-3.7291,-3.5984,-3.5384,-3.5307,-3.546,-3.5842,-3.662,-3.9779,0.0,0.0,-4.2238,-4.2601,-4.2841,-4.4854,-4.5575,-4.4995,-4.6605,-4.6831,-4.601,-4.6491,-4.6174,-4.5112,-4.569,-4.592,-4.606,-4.6542,-4.7332,-4.8281,-4.9718,-5.054,-5.0909,-5.2174,-5.3136,-5.3601,-5.3767,-5.335,-5.2433,-5.1647,-5.3083,-5.6666,-5.672,-5.5002,-5.1224,-5.4656,-5.4577,-5.0419,-5.3378,-5.3498,-5.0082,-5.0302,-5.0152,-4.9372,-4.9829,-5.1697,-5.506,-5.5748,-5.7962,-6.249,-6.2826,-6.4582,-6.8819,-6.9221,-6.758,-6.3463,-6.8881,-7.2452,-7.2489,-7.2666,-7.2637,-7.2324,-7.1061,-6.9993,-6.9663,-6.9571,-6.9571,-6.9571,-6.9571,-6.9571,-6.9587,-6.9603,-6.9603,-6.9587,-6.9701,-6.9672,-6.9392,-6.9193,-6.9089,-6.8961,-6.887,-6.8789,-6.8771,-6.8806,-6.8779,-6.8529,-6.8442,-6.8404,-6.8404,-6.8404,-6.8308,-6.7999,-6.7892,-6.7706,-6.732,-6.7202,-6.7161,-6.7041,-6.7036,-6.695,-6.6485,-6.6247,-6.627,-6.6283,-6.6283,-6.6136,-3.7992,-3.7157,-3.6315,-3.5628,0.0,-3.654,-3.7534,-3.8536,-4.1262,-4.2841,-4.3559,-4.4621,-4.5087,-4.5228,-4.7082,-4.7668,-4.7332,-4.8663,-4.8636,-4.7702,-4.8307,-4.7813,-4.6667,-4.7255,-4.7505,-4.7505,-4.8197,-4.8881,-4.9531,-5.0805,-5.1018,-5.0178,-5.0888,-5.0506,-4.9127,-4.9654,-4.9687,-4.8902,-5.015,-5.176,-5.3709,-5.3616,-5.2655,-5.1124,-5.3773,0.0,0.0,0.0,0.0,0.0,0.0,0.0,0.0,-5.1117,0.0,-5.287,-4.9442,-4.8505,-5.1297,-5.1587,-5.3736,-5.8632,-5.9102,-5.7833,-5.4744,-6.0845,-6.4835,-6.4876,-6.7107,-6.9132,-7.0793,-7.0282,-6.9755,-6.9692,-6.9691,-6.9649,-6.9701,-6.9656,-6.9571,-6.9587,-6.9649,-6.9691,-6.9686,-6.9755,-6.9663,-6.9354,-6.9193,-6.9029,-6.8935,-6.8959,-6.9006,-6.9127,-6.9067,-6.8899,-6.8648,-6.8535,-6.8404,-6.8404,-6.8404,-6.8242,-6.7929,-6.7668,-6.728,-6.69,-6.6768,-6.6678,-6.6459,-6.6505,-6.6587,-6.6343,-6.6087,-6.5835,-6.5663,-6.561,-6.5504,-3.8206,-3.7538,-3.762,-3.69,-3.6008,-3.8853,-4.0522,-4.1507,-4.3081,-4.4386,-4.5575,-4.6856,-4.7556,-4.7668,-4.907,-4.9638,-4.9773,-5.0466,-5.0305,-4.9396,-4.9932,-4.945,-4.8447,-4.8719,-4.8963,-4.8963,-4.988,-5.0439,-5.065,-5.1747,-5.1381,-4.9959,-4.9995,-4.8507,-4.5753,0.0,0.0,0.0,-4.8698,-5.034,-5.118,-5.0494,-5.0302,-5.0605,-5.254,0.0,-5.3827,-5.4817,-5.5133,-5.468,-5.5192,0.0,0.0,0.0,0.0,0.0,0.0,0.0,0.0,0.0,0.0,0.0,-4.6507,-4.6243,-4.7023,-5.2155,-5.5314,-5.5202,-6.0931,-6.5263,-6.64,-6.7283,-6.8088,-6.8721,-6.8778,-6.9099,-6.9718,-6.9701,-6.9619,-6.9634,-6.9692,-6.974,-6.9781,-6.9778,-6.9604,-6.9279,-6.9139,-6.9059,-6.9014,-6.9126,-6.9297,-6.9425,-6.9239,-6.9048,-6.8827,-6.8596,-6.8404,-6.8404,-6.8404,-6.8205,-6.7745,-6.732,-6.6987,-6.639,-6.6295,-6.6185,-6.5835,-6.5936,-6.6185,-6.6283,-6.5972,-6.5557,-6.5213,-6.5102,-6.5046,-4.026,-3.9714,-4.0251,-3.9627,-3.8636,-4.217,-4.3748,-4.3985,-4.6124,-4.7082,-4.7307,-4.8138,-4.8469,-4.8825,-4.9585,-5.0041,-5.0254,-5.0887,-5.0992,-5.0887,-5.1118,-5.0645,-4.9584,-4.9986,-5.0093,-5.012,-5.0333,-5.0887,-5.185,-5.2405,-5.2664,-5.2448,-5.2842,-5.1834,-4.945,-4.7481,-4.5894,-4.4806,-4.8275,-5.1937,-5.5567,-5.5753,-5.4279,-5.1615,-5.4215,-5.3987,-5.0336,-5.2961,-5.3091,-4.9983,-5.0232,-5.0262,-4.9616,-4.4782,-4.156,0.0,-3.5799,0.0,0.0,0.0,0.0,0.0,0.0,0.0,0.0,-4.726,-4.7934,-4.6621,-5.7592,-6.1994,-5.5306,-5.8377,-6.1998,-6.499,-6.5295,-6.6429,-6.9369,-6.9776,-6.9755,-6.9778,-6.9752,-6.9762,-6.9649,-6.9755,-6.9589,-6.9297,-6.9118,-6.8808,-6.9301,-6.9156,-6.9188,-6.9717,-6.9517,-6.9247,-6.8908,-6.8596,-6.8404,-6.8404,-6.8404,-6.8137,-6.736,-6.7119,-6.674,-6.6051,-6.587,-6.5819,-6.5767,-6.5767,-6.5803,-6.5699,-6.561,-6.5504,-6.5323,-6.5213,-6.5137,-4.1281,-4.1512,-4.1404,-4.2062,-4.3479,-4.537,-4.6124,-4.6035,-4.7531,-4.8359,-4.8715,-4.8961,-4.9395,-4.9907,-5.0439,-5.065,-5.0782,-5.1173,-5.1353,-5.1353,-5.1691,-5.1588,-5.1041,-5.1201,-5.1305,-5.1305,-5.1409,-5.1747,-5.2287,-5.2664,-5.2247,-5.1214,-5.1347,-4.936,-4.5319,-4.6351,-4.722,-4.7661,-4.9333,-5.1904,-5.5547,-5.6986,-5.715,-5.6169,-5.8046,-5.8496,-5.7417,-5.9019,-5.931,-5.8066,-5.8585,-5.7514,-5.424,-4.5714,-4.0239,0.0,0.0,0.0,0.0,0.0,0.0,0.0,0.0,0.0,0.0,0.0,-3.7509,-4.0585,-5.2885,-5.8044,-5.1697,-5.4592,-5.6796,-5.6522,-5.2049,-5.2315,-6.0479,-6.0842,-6.1061,-6.2627,-6.5245,-6.6977,-6.6955,-6.697,-6.7519,-6.921,-6.6363,-6.4068,-6.4139,-6.575,-6.6948,-6.7061,-6.8468,-6.95,-6.9081,-6.8705,-6.8404,-6.8404,-6.8404,-6.8137,-6.7206,-6.7041,-6.674,-6.5936,-6.5715,-6.5715,-6.5715,-6.5715,-6.561,-6.5486,-6.554,-6.5593,-6.5486,-6.5288,-6.5158,-4.2865,-4.3804,-4.075,-4.2024,-4.5952,-4.6067,-4.6793,-4.7779,-4.8579,-4.8858,-4.8964,-4.961,-4.9164,-4.7698,-4.723,-4.7813,-4.9234,-4.9447,-5.0332,-5.1737,-5.2027,-5.2185,-5.2185,-5.2259,-5.2287,-5.2259,-5.235,-5.245,-5.2506,-5.2116,-5.0767,-4.8509,-4.8718,-4.6323,-4.1604,-4.4952,-4.792,-5.0304,-5.0769,-5.2186,-5.4646,-5.6543,-5.8368,-6.0237,-6.0596,-6.1508,-6.3144,-6.3623,-6.4209,-6.5031,-6.3911,-6.1557,-5.7704,-4.5955,0.0,0.0,0.0,0.0,0.0,0.0,0.0,0.0,0.0,-2.7205,-1.9126,0.0,-3.0164,0.0,-4.7744,-5.265,-4.859,-5.0379,0.0,0.0,-4.2165,-4.1247,-5.1138,-5.2281,-5.3101,-5.5161,-5.9832,-6.298,-6.297,-6.3274,-6.4763,-6.7874,-6.4071,-6.0541,-5.9719,-6.2605,-6.4578,-6.395,-6.5567,-6.7052,-6.6114,-6.6775,-6.7575,-6.8293,-6.8404,-6.8066,-6.7206,-6.7041,-6.6776,-6.5901,-6.5715,-6.5715,-6.5715,-6.5715,-6.561,-6.545,-6.5468,-6.5593,-6.545,-6.5342,-6.5213,-4.5621,-4.6794,-3.7714,-3.762,-4.3238,-4.246,-4.4597,-4.8854,-4.9531,-4.8792,-4.7147,-4.9791,-4.6651,-3.9209,-3.6396,0.0,-4.3676,-4.3874,-4.6979,-5.236,-5.236,-5.249,-5.249,-5.2664,-5.2635,-5.2462,-5.2225,-5.235,-5.2735,-5.0508,-4.7734,-4.466,-4.5791,-4.4888,-4.2185,-4.3858,-4.6923,-5.0954,-5.2562,-5.3466,-5.3767,-5.4735,-5.7397,-6.1815,-5.995,-5.9703,-6.1718,-6.2209,-6.2983,-6.4059,-5.7838,-5.3725,-5.2538,0.0,0.0,0.0,0.0,0.0,0.0,0.0,0.0,0.0,0.0,0.0,0.0,0.0,0.0,-3.6753,-4.2439,0.0,-4.3314,-4.3037,0.0,0.0,0.0,-4.1075,-4.5245,-4.8217,-5.0103,-5.0304,0.0,0.0,-5.795,-5.9161,-6.1347,-6.4687,-6.4646,-6.3173,-6.0094,-6.2299,-6.3592,-6.0668,-6.0427,-5.9911,-5.9354,-6.187,-6.5098,-6.742,-6.8404,-6.7915,-6.7104,-6.6973,-6.6695,-6.5886,-6.5715,-6.5715,-6.5715,-6.5715,-6.568,-6.5663,-6.5504,-6.5323,-6.5288,-6.5158,-6.5081,-3.9565,-3.9221,-3.4044,-3.4408,-3.8069,-3.6402,-3.949,-4.5839,-4.5925,-4.4739,-4.279,-4.4627,-4.0745,-3.2831,-3.1797,0.0,0.0,0.0,-4.137,-4.7195,-4.7252,-4.9197,-5.2621,-5.2836,-5.2836,-5.2707,-5.3309,-5.3787,-5.3903,-5.3644,-4.6375,-3.2725,0.0,-3.4532,-3.1617,-3.9269,-4.4593,-4.7391,-5.2855,-5.5762,-5.5792,-5.6895,-5.8383,-6.0223,-5.9287,-5.9656,-6.1575,-6.2381,-6.1144,-5.7505,-5.9434,-5.4612,0.0,0.0,0.0,0.0,0.0,0.0,0.0,0.0,0.0,0.0,0.0,-2.0907,-1.5257,0.0,0.0,0.0,-2.852,-3.0311,-3.1768,-3.637,0.0,0.0,0.0,0.0,0.0,0.0,0.0,-3.9213,-4.8073,-5.4253,-5.4212,-5.3855,-5.4467,-5.6786,-5.5366,-5.362,-5.2318,0.0,-5.8978,-5.9639,-5.9746,-6.011,-6.107,-6.0459,-6.0501,-6.2585,-6.4371,-6.53,-6.4863,-6.6044,-6.6827,-6.6295,-6.5886,-6.5715,-6.5715,-6.5522,-6.545,-6.5342,-6.5031,-6.4748,-6.4748,-6.4609,-6.4551,-3.1985,0.0,0.0,0.0,0.0,-3.0735,-3.4073,-4.0705,-4.0164,-3.8644,-3.6615,-3.7761,0.0,0.0,0.0,0.0,0.0,0.0,-3.6861,-4.2239,-4.5021,-4.8424,-5.2341,-5.2235,-5.2235,-5.2341,-5.223,-5.1669,-5.0807,-5.0763,-4.1737,-2.4546,0.0,0.0,0.0,0.0,-4.1614,-4.4743,-5.3128,-5.757,-5.757,-5.9526,-5.9975,-5.8697,-5.8575,-5.9418,-6.1245,-6.0112,-5.7055,-5.194,-5.2112,0.0,0.0,0.0,0.0,0.0,0.0,0.0,0.0,0.0,0.0,0.0,0.0,0.0,0.0,0.0,0.0,0.0,0.0,0.0,-2.3936,-3.0475,-3.2298,0.0,0.0,0.0,0.0,0.0,0.0,0.0,0.0,0.0,-4.8006,-4.9202,-5.1112,0.0,0.0,-5.1305,-4.8941,-5.3008,-5.6235,-5.6149,-5.6645,0.0,-5.9281,-5.7667,-5.6762,-5.8292,-6.1507,-6.3281,-6.1967,-6.3251,-6.4133,-6.2654,-6.3608,-6.4168,-6.349,-6.245,-6.1684,-6.2013,-6.1424,-6.0987,-6.1446,-6.194,-6.2116,0.0,0.0,0.0,0.0,-2.5634,0.0,0.0,0.0,-3.2218,-3.0524,0.0,-2.9742,0.0,0.0,0.0,0.0,-2.1844,-2.8632,0.0,0.0,-4.7532,-5.1818,-5.1012,-5.0364,-5.0542,-5.0979,-4.77,-4.4487,-4.1324,-3.8437,0.0,0.0,0.0,0.0,0.0,0.0,-3.8046,-4.3689,-5.3575,-5.8666,-5.8758,-6.2295,-6.2076,-5.7817,-5.7672,-5.8606,-6.03,-5.4292,-5.0282,-4.8998,-3.1005,0.0,0.0,0.0,0.0,0.0,0.0,0.0,0.0,0.0,0.0,0.0,0.0,0.0,0.0,0.0,0.0,0.0,0.0,0.0,0.0,-2.5638,0.0,0.0,0.0,0.0,0.0,0.0,0.0,0.0,0.0,-4.1307,-3.8446,-4.5964,-5.3233,-5.6376,0.0,0.0,0.0,0.0,-5.683,-4.9124,-4.92,-4.9924,-4.8546,-5.1733,-5.497,-5.6466,0.0,0.0,-5.8814,-5.8404,-5.7486,-5.3897,-5.7894,-6.0726,-5.8099,-5.4823,-5.3299,-5.4713,-5.3621,-5.3115,-5.4563,-5.6035,-5.7209,0.0,0.0,0.0,0.0,0.0,0.0,0.0,0.0,0.0,-2.4808,-2.225,-2.3126,0.0,0.0,0.0,0.0,0.0,0.0,0.0,0.0,-3.434,-3.8219,-4.1036,-4.2486,-4.2367,0.0,-4.0449,-3.589,0.0,0.0,0.0,0.0,0.0,0.0,0.0,0.0,-3.6331,-3.9157,-5.3374,-6.0613,-6.0114,-6.3703,-6.3828,-6.0239,-6.0571,-5.8596,-5.3927,-4.9037,-4.4194,0.0,0.0,0.0,0.0,0.0,0.0,0.0,0.0,0.0,0.0,0.0,0.0,0.0,0.0,0.0,0.0,0.0,0.0,0.0,0.0,0.0,0.0,0.0,-2.7658,0.0,0.0,0.0,0.0,0.0,0.0,0.0,0.0,0.0,-3.4057,-3.9936,-4.5759,-5.0129,-5.2198,-5.3101,-5.2342,0.0,0.0,0.0,0.0,0.0,0.0,0.0,-4.9564,-4.8975,-4.7593,-4.7108,-4.8942,-5.1564,-5.3407,-5.3214,0.0,0.0,-4.6479,-4.5364,-4.5875,-4.6481,-4.5166,-4.4372,-4.5621,-4.8815,-5.0545,0.0,0.0,0.0,0.0,0.0,0.0,0.0,0.0,0.0,-1.7949,-1.5908,0.0,0.0,0.0,0.0,0.0,0.0,0.0,0.0,0.0,0.0,0.0,-3.4175,-3.6083,0.0,0.0,0.0,0.0,0.0,0.0,0.0,0.0,0.0,0.0,0.0,0.0,-3.5477,-3.72,-5.2973,-6.1232,-6.0699,-6.3922,-6.4239,-6.1044,-6.24,-5.8791,-4.953,0.0,0.0,0.0,0.0,0.0,0.0,0.0,0.0,0.0,0.0,0.0,0.0,0.0,0.0,0.0,0.0,0.0,0.0,0.0,0.0,0.0,0.0,0.0,0.0,0.0,-2.5473,0.0,0.0,0.0,0.0,0.0,0.0,0.0,0.0,0.0,0.0,-3.4168,-3.9325,-4.4809,-4.7988,-5.0404,-5.2126,-5.4745,-5.7023,0.0,0.0,0.0,0.0,0.0,0.0,0.0,0.0,0.0,0.0,0.0,0.0,0.0,0.0,-4.5096,-3.8196,-3.7385,-3.8003,-3.8545,0.0,0.0,0.0,0.0,0.0,0.0,0.0,0.0,0.0,0.0,0.0,0.0,0.0,0.0,0.0,-0.969,0.0,0.0,-0.8004,0.0,0.0,0.0,0.0,0.0,0.0,0.0,0.0,0.0,0.0,0.0,0.0,0.0,0.0,0.0,0.0,0.0,0.0,0.0,0.0,0.0,0.0,-3.5479,-3.7646,-5.237,-6.0171,-6.0481,-6.3234,-6.3141,-6.0049,-6.2687,-5.8901,-4.7433,0.0,0.0,0.0,0.0,0.0,0.0,0.0,0.0,0.0,0.0,0.0,0.0,0.0,0.0,0.0,0.0,0.0,0.0,0.0,0.0,0.0,0.0,0.0,0.0,0.0,0.0,-1.8688,-2.0684,-2.2648,0.0,0.0,0.0,0.0,0.0,0.0,0.0,0.0,0.0,-4.1127,-4.9287,-5.4015,-5.2787,-5.3911,-5.4512,-5.3073,-5.1386,-5.0159,-5.0229,-5.1175,-5.0344,0.0,0.0,0.0,0.0,0.0,0.0,0.0,0.0,0.0,0.0,0.0,0.0,0.0,0.0,0.0,0.0,0.0,0.0,0.0,0.0,0.0,0.0,0.0,0.0,0.0,0.0,0.0,0.0,0.0,0.0,0.0,0.0,0.0,0.0,0.0,0.0,0.0,0.0,0.0,0.0,0.0,0.0,0.0,0.0,0.0,0.0,0.0,0.0,0.0,0.0,0.0,0.0,0.0,0.0,-3.6417,-3.755,-5.2415,-5.9765,-5.922,-6.1728,-6.1607,-5.8654,-5.8345,-5.3718,0.0,0.0,0.0,0.0,0.0,0.0,0.0,0.0,0.0,0.0,0.0,0.0,0.0,0.0,0.0,0.0,0.0,0.0,0.0,0.0,0.0,0.0,0.0,0.0,0.0,0.0,0.0,0.0,-2.6944,-2.6187,-2.2729,0.0,0.0,0.0,0.0,0.0,0.0,0.0,0.0,0.0,0.0,-4.937,-5.3554,-5.5493,-5.6401,-5.5965,-5.6337,-5.586,-5.3547,-5.2547,-5.0363,-4.5293,0.0,0.0,0.0,0.0,0.0,0.0,0.0,0.0,0.0,0.0,0.0,0.0,0.0,0.0,0.0,0.0,0.0,0.0,0.0,0.0,0.0,0.0,0.0,0.0,0.0,0.0,0.0,0.0,0.0,0.0,0.0,0.0,0.0,0.0,0.0,0.0,0.0,0.0,0.0,0.0,0.0,0.0,0.0,0.0,0.0,0.0,0.0,0.0,0.0,0.0,0.0,0.0,0.0,-3.6175,-3.7109,-5.1344,-5.8295,-5.7631,-5.993,-6.0145,-5.7886,-5.6532,-5.0967,0.0,0.0,0.0,0.0,0.0,0.0,0.0,0.0,0.0,0.0,0.0,0.0,0.0,0.0,0.0,0.0,0.0,0.0,0.0,0.0,0.0,0.0,0.0,0.0,0.0,0.0,0.0,0.0,-2.5373,-2.5692,-2.2693,0.0,0.0,0.0,0.0,0.0,0.0,0.0,0.0,0.0,0.0,-4.4988,-5.0266,-5.2466,0.0,0.0,-5.5533,-5.4617,-5.3746,-5.329,-5.0424,-4.2911,-3.8702,0.0,0.0,0.0,0.0,0.0,0.0,0.0,0.0,0.0,0.0,0.0,0.0,0.0,0.0,0.0,0.0,0.0,0.0,0.0,0.0,0.0,0.0,0.0,0.0,0.0,0.0,0.0,0.0,0.0,0.0,0.0,0.0,0.0,0.0,0.0,0.0,0.0,0.0,0.0,0.0,0.0,0.0,0.0,0.0,0.0,0.0,0.0,0.0,0.0,0.0,0.0,0.0,-3.5142,-3.6719,-4.9761,-5.6334,-5.5778,-5.7955,-5.8573,-5.7549,-5.5975,-4.9659,0.0,0.0,0.0,0.0,0.0,0.0,0.0,0.0,0.0,0.0,0.0,0.0,0.0,0.0,0.0,0.0,0.0,0.0,0.0,0.0,0.0,0.0,0.0,0.0,0.0,0.0,0.0,0.0,0.0,0.0,0.0,0.0,0.0,0.0,0.0,0.0,0.0,0.0,0.0,0.0,0.0,-4.1305,-4.4755,-4.6378,-4.897,0.0,-5.0217,-4.8049,-5.0823,-5.2704,-5.0152,-3.8953,0.0,0.0,0.0,0.0,0.0,0.0,0.0,0.0,0.0,0.0,0.0,0.0,0.0,0.0,0.0,0.0,0.0,0.0,0.0,0.0,0.0,0.0,0.0,0.0,0.0,0.0,0.0,0.0,0.0,0.0,0.0,0.0,0.0,0.0,0.0,0.0,0.0,0.0,0.0,0.0,0.0,0.0,0.0,0.0,0.0,0.0,0.0,0.0,0.0,0.0,0.0,0.0,0.0,0.0,-3.8443,-5.0981,-5.7234,-5.6398,-5.7005,-5.6673,-5.5241,-5.0223,0.0,0.0,0.0,0.0,0.0,0.0,0.0,0.0,0.0,0.0,0.0,0.0,0.0,0.0,0.0,0.0,0.0,0.0,0.0,0.0,0.0,0.0,0.0,0.0,0.0,0.0,0.0,-1.2552,0.0,0.0,0.0,0.0,0.0,0.0,0.0,0.0,0.0,0.0,0.0,0.0,0.0,0.0,-4.2033,-4.7872,-4.6914,-4.6431,0.0,0.0,-4.4787,-4.3184,-4.626,-4.622,0.0,0.0,0.0,0.0,0.0,0.0,0.0,0.0,0.0,0.0,0.0,0.0,0.0,0.0,0.0,0.0,0.0,0.0,0.0,0.0,0.0,0.0,0.0,0.0,0.0,0.0,0.0,0.0,0.0,0.0,0.0,0.0,0.0,0.0,0.0,0.0,0.0,0.0,0.0,0.0,0.0,0.0,0.0,0.0,0.0,0.0,0.0,0.0,0.0,0.0,0.0,0.0,0.0,0.0,-3.4184,-3.8462,-4.7912,-5.3842,-5.5821,-5.6094,-5.5851,-5.4984,-4.8311,-4.2262,0.0,0.0,0.0,0.0,0.0,0.0,0.0,0.0,0.0,0.0,0.0,0.0,0.0,0.0,0.0,0.0,0.0,0.0,0.0,0.0,0.0,0.0,0.0,0.0,0.0,0.0,0.0,0.0,0.0,0.0,0.0,0.0,0.0,0.0,0.0,0.0,0.0,0.0,0.0,0.0,0.0,0.0,-4.3962,-4.2912,0.0,0.0,0.0,-4.0873,-3.9994,0.0,0.0,0.0,0.0,0.0,0.0,0.0,0.0,0.0,0.0,0.0,0.0,0.0,0.0,0.0,0.0,0.0,0.0,0.0,0.0,0.0,0.0,0.0,0.0,0.0,0.0,0.0,0.0,0.0,0.0,0.0,0.0,0.0,0.0,0.0,0.0,0.0,0.0,0.0,0.0,0.0,0.0,0.0,0.0,0.0,0.0,0.0,0.0,0.0,0.0,0.0,0.0,0.0,0.0,0.0,0.0,0.0,-3.7623,-4.4085,-4.9955,-5.4907,-5.5421,-5.5514,-5.5485,-4.8817,-4.2728,0.0,0.0,0.0,0.0,0.0,0.0,0.0,0.0,0.0,0.0,0.0,0.0,0.0,0.0,0.0,0.0,0.0,0.0,0.0,0.0,0.0,0.0,0.0,0.0,0.0,0.0,0.0,0.0,0.0,0.0,0.0,0.0,0.0,0.0,0.0,0.0,0.0,0.0,0.0,0.0,0.0,-3.707,-3.7526,-3.7212,-3.6909,0.0,0.0,-3.6484,-3.8365,-4.0228,0.0,0.0,0.0,0.0,0.0,0.0,0.0,0.0,0.0,0.0,0.0,0.0,0.0,0.0,0.0,0.0,0.0,0.0,0.0,0.0,0.0,0.0,0.0,0.0,0.0,0.0,0.0,0.0,0.0,0.0,0.0,0.0,0.0,0.0,0.0,0.0,0.0,0.0,0.0,0.0,0.0,0.0,0.0,0.0,0.0,0.0,0.0,0.0,0.0,0.0,0.0,0.0,0.0,0.0,0.0,0.0,-3.8699,-4.8847,-5.4875,-5.6211,-5.6336,-5.582,-5.47,-5.0154,-4.4202,0.0,0.0,0.0,0.0,0.0,0.0,0.0,0.0,0.0,0.0,0.0,0.0,0.0,0.0,0.0,0.0,0.0,0.0,0.0,0.0,0.0,0.0,0.0,0.0,0.0,0.0,0.0,0.0,0.0,0.0,0.0,0.0,0.0,0.0,0.0,0.0,0.0,0.0,0.0,0.0,0.0,-3.4782,-3.8721,-3.5888,0.0,0.0,0.0,0.0,-3.1899,-3.2189,0.0,0.0,0.0,0.0,0.0,0.0,0.0,0.0,0.0,0.0,0.0,0.0,0.0,0.0,0.0,0.0,0.0,0.0,0.0,0.0,0.0,0.0,0.0,0.0,0.0,0.0,0.0,0.0,0.0,0.0,0.0,0.0,0.0,0.0,0.0,0.0,0.0,0.0,0.0,0.0,0.0,0.0,0.0,0.0,0.0,0.0,0.0,0.0,0.0,0.0,0.0,0.0,0.0,0.0,0.0,0.0,-4.0925,-4.7264,-5.2471,-5.6359,-5.6185,-5.5451,-5.4348,-5.0245,-4.4263,0.0,0.0,0.0,0.0,0.0,0.0,0.0,0.0,0.0,0.0,0.0,0.0,0.0,0.0,0.0,0.0,0.0,0.0,0.0,0.0,0.0,0.0,0.0,0.0,0.0,0.0,0.0,0.0,0.0,0.0,0.0,0.0,0.0,0.0,0.0,0.0,0.0,0.0,0.0,0.0,-2.9391,-3.1169,-3.4507,0.0,0.0,0.0,0.0,0.0,0.0,-2.9916,-2.9574,0.0,0.0,0.0,0.0,0.0,0.0,0.0,0.0,0.0,0.0,0.0,0.0,0.0,0.0,0.0,0.0,0.0,0.0,0.0,0.0,0.0,0.0,0.0,0.0,0.0,0.0,0.0,0.0,0.0,0.0,0.0,0.0,0.0,0.0,0.0,0.0,0.0,0.0,0.0,0.0,0.0,0.0,0.0,0.0,0.0,0.0,0.0,0.0,0.0,0.0,0.0,0.0,0.0,0.0,0.0,-4.2056,-4.4054,-4.8525,-5.5826,-5.573,-5.5295,-5.451,-5.0355,-4.4082,-3.6021,0.0,0.0,0.0,0.0,0.0,0.0,0.0,0.0,0.0,0.0,0.0,0.0,0.0,0.0,0.0,0.0,0.0,0.0,0.0,0.0,0.0,0.0,0.0,0.0,0.0,0.0,0.0,0.0,0.0,0.0,0.0,0.0,0.0,0.0,0.0,0.0,0.0,0.0,0.0,-2.619,-2.7148,0.0,0.0,0.0,0.0,0.0,0.0,0.0,0.0,-2.8474,0.0,0.0,0.0,0.0,0.0,0.0,0.0,0.0,0.0,0.0,0.0,0.0,0.0,0.0,0.0,0.0,0.0,0.0,0.0,0.0,0.0,0.0,0.0,0.0,0.0,0.0,0.0,0.0,0.0,0.0,0.0,0.0,0.0,0.0,0.0,0.0,0.0,0.0,0.0,0.0,0.0,0.0,0.0,0.0,0.0,0.0,0.0,0.0,0.0,0.0,0.0,0.0,0.0,0.0,0.0,0.0,-4.3927,-4.9628,-5.366,-5.5666,-5.6155,-5.5073,-5.2057,-4.5247,-3.4427,0.0,0.0,0.0,0.0,0.0,0.0,0.0,0.0,0.0,0.0,0.0,0.0,0.0,0.0,0.0,0.0,0.0,0.0,0.0,0.0,0.0,0.0,0.0,0.0,0.0,0.0,0.0,0.0,0.0,0.0,0.0,0.0,0.0,0.0,0.0,0.0,0.0,0.0,-1.889,-2.1367,0.0,0.0,0.0,0.0,0.0,0.0,0.0,0.0,-2.33,0.0,0.0,0.0,0.0,0.0,0.0,0.0,0.0,0.0,0.0,0.0,0.0,0.0,0.0,0.0,0.0,0.0,0.0,0.0,0.0,0.0,0.0,0.0,0.0,0.0,0.0,0.0,0.0,0.0,0.0,0.0,0.0,0.0,0.0,0.0,0.0,0.0,0.0,0.0,0.0,0.0,0.0,0.0,0.0,0.0,0.0,0.0,0.0,0.0,0.0,0.0,0.0,0.0,0.0,0.0,0.0,0.0,0.0,-4.8458,-5.1923,-5.5133,-5.579,-5.3694,-4.7972,-4.1526,0.0,0.0,0.0,0.0,0.0,0.0,0.0,0.0,0.0,0.0,0.0,0.0,0.0,0.0,0.0,0.0,0.0,0.0,0.0,0.0,0.0,0.0,0.0,0.0,0.0,0.0,0.0,0.0,0.0,0.0,0.0,0.0,0.0,0.0,0.0,0.0,0.0,0.0,0.0,0.0,0.0,0.0,0.0,0.0,0.0,0.0,0.0,0.0,0.0,0.0,0.0,0.0,0.0,0.0,0.0,0.0,0.0,0.0,0.0,0.0,0.0,0.0,0.0,0.0,0.0,0.0,0.0,0.0,0.0,0.0,0.0,0.0,0.0,0.0,0.0,0.0,0.0,0.0,0.0,0.0,0.0,0.0,0.0,0.0,0.0,0.0,0.0,0.0,0.0,0.0,0.0,0.0,0.0,0.0,0.0,0.0,0.0,0.0,0.0,0.0,0.0,0.0,0.0,0.0,0.0,0.0,0.0,0.0,-4.6035,-5.0049,-5.3812,-5.4697,-5.2552,-4.3693,-3.7171,0.0,0.0,0.0,0.0,0.0,0.0,0.0,0.0,0.0,0.0,0.0,0.0,0.0,0.0,0.0,0.0,0.0,0.0,0.0,0.0,0.0,0.0,0.0,0.0,0.0,0.0,0.0,0.0,0.0,0.0,0.0,0.0,0.0,0.0,0.0,0.0,0.0,0.0,0.0,0.0,0.0,0.0,0.0,0.0,0.0,0.0,0.0,0.0,-2.3425,0.0,0.0,0.0,0.0,0.0,0.0,0.0,0.0,0.0,0.0,0.0,0.0,0.0,0.0,0.0,0.0,0.0,0.0,0.0,0.0,0.0,0.0,0.0,0.0,0.0,0.0,0.0,0.0,0.0,0.0,0.0,0.0,0.0,0.0,0.0,0.0,0.0,0.0,0.0,0.0,0.0,0.0,0.0,0.0,0.0,0.0,0.0,0.0,0.0,0.0,0.0,0.0,0.0,0.0,0.0,0.0,0.0,0.0,0.0,-4.2171,-4.7546,-5.1095,-5.2784,-5.2412,-4.2637,-3.4496,0.0,0.0,0.0,0.0,0.0,0.0,0.0,0.0,0.0,0.0,0.0,0.0,0.0,0.0,0.0,0.0,0.0,0.0,0.0,0.0,0.0,0.0,0.0,0.0,0.0,0.0,0.0,0.0,0.0,0.0,0.0,0.0,0.0,0.0,0.0,0.0,0.0,0.0,0.0,0.0,0.0,0.0,0.0,0.0,0.0,0.0,0.0,0.0,0.0,0.0,0.0,0.0,0.0,0.0,0.0,0.0,0.0,0.0,0.0,0.0,0.0,0.0,0.0,0.0,0.0,0.0,0.0,0.0,0.0,0.0,0.0,0.0,0.0,0.0,0.0,0.0,0.0,0.0,0.0,0.0,0.0,0.0,0.0,0.0,0.0,0.0,0.0,0.0,0.0,0.0,0.0,0.0,0.0,0.0,0.0,0.0,0.0,0.0,0.0,0.0,0.0,0.0,0.0,0.0,0.0,0.0,0.0,0.0,-3.7878,-4.3436,-4.771,-4.7955,-4.3963,-3.6355,-3.1015,0.0,0.0,0.0,0.0,0.0,0.0,0.0,0.0,0.0,0.0,0.0,0.0,0.0,0.0,0.0,0.0,0.0,0.0,0.0,0.0,0.0,0.0,0.0,0.0,0.0,0.0,0.0,0.0,0.0,0.0,0.0,0.0,0.0,0.0,0.0,0.0,0.0,0.0,0.0,0.0,0.0,0.0,0.0,0.0,0.0,0.0,0.0,0.0,0.0,0.0,0.0,0.0,0.0,0.0,0.0,0.0,0.0,0.0,0.0,0.0,0.0,0.0,0.0,0.0,0.0,0.0,0.0,0.0,0.0,0.0,0.0,0.0,0.0,0.0,0.0,0.0,0.0,0.0,0.0,0.0,0.0,0.0,0.0,0.0,0.0,0.0,0.0,0.0,0.0,0.0,0.0,0.0,0.0,0.0,0.0,0.0,0.0,0.0,0.0,0.0,0.0,0.0,0.0,0.0,0.0,0.0,0.0,0.0,0.0,-3.826,-4.2813,-4.2184,-3.5751,-3.0799,-2.7264,0.0,0.0,0.0,0.0,0.0,0.0,0.0,0.0,0.0,0.0,0.0,0.0,0.0,0.0,0.0,0.0,0.0,0.0,0.0,0.0,0.0,0.0,0.0,0.0,0.0,0.0,0.0,0.0,0.0,0.0,0.0,0.0,0.0,0.0,0.0,0.0,0.0,0.0,0.0,0.0,0.0,0.0,0.0,0.0,0.0,0.0,0.0,0.0,0.0,0.0,0.0,0.0,0.0,0.0,0.0,0.0,0.0,0.0,0.0,0.0,0.0,0.0,0.0,0.0,0.0,0.0,0.0,0.0,0.0,0.0,0.0,0.0,0.0,0.0,0.0,0.0,0.0,0.0,0.0,0.0,0.0,0.0,0.0,0.0,0.0,0.0,0.0,0.0,0.0,0.0,0.0,0.0,0.0,0.0,0.0,0.0,0.0,0.0,0.0,0.0,0.0,0.0,0.0,0.0,0.0,0.0,0.0,0.0,0.0,-3.1755,-3.5826,-3.5544,-3.0635,-2.7695,-2.3306,0.0,0.0,0.0,0.0,0.0,0.0,0.0,0.0,0.0,0.0,0.0,0.0,0.0,0.0,0.0,0.0,0.0,0.0,0.0,0.0,0.0,0.0,0.0,0.0,0.0,0.0,0.0,0.0,0.0,0.0,0.0,0.0,0.0,0.0,0.0,0.0,0.0,0.0,0.0,0.0,0.0,0.0,0.0,0.0,0.0,0.0,0.0,0.0,0.0,0.0,0.0,0.0,0.0,0.0,0.0,0.0,0.0,0.0,0.0,0.0,0.0,0.0,0.0,0.0,0.0,0.0,0.0,0.0,0.0,0.0,0.0,0.0,0.0,0.0,0.0,0.0,0.0,0.0,0.0,0.0,0.0,0.0,0.0,0.0,0.0,0.0,0.0,0.0,0.0,0.0,0.0,0.0,0.0,0.0,0.0,0.0,0.0,0.0,0.0,0.0,0.0,0.0,0.0,0.0,0.0,0.0,0.0,0.0,0.0,-2.034,-2.4761,-2.6364,-2.4442,-2.276,-2.1023,-1.9168,0.0,0.0,0.0,0.0,0.0,0.0,0.0,0.0,0.0,0.0,0.0,0.0,0.0,0.0,0.0,0.0,0.0,0.0,0.0,0.0,0.0,0.0,0.0,0.0,0.0,0.0,0.0,0.0,0.0,0.0,0.0,0.0,0.0,0.0,0.0,0.0,0.0,0.0,0.0,0.0,0.0,0.0,0.0,0.0,0.0,0.0,0.0,0.0,0.0,0.0,0.0,0.0,0.0,0.0,0.0,0.0,0.0,0.0,0.0,0.0,0.0,0.0,0.0,0.0,0.0,0.0,0.0,0.0,0.0,0.0,0.0,0.0,0.0,0.0,0.0,0.0,0.0,0.0,0.0,0.0,0.0,0.0,0.0,0.0,0.0,0.0,0.0,0.0,0.0,0.0,0.0,0.0,0.0,0.0,0.0,0.0,0.0,0.0,0.0,0.0,0.0,0.0,0.0,0.0,0.0,0.0,0.0,0.0,-1.5271,-1.9981,-2.1891,-2.0578,-2.0108,-1.9022,0.0,0.0,0.0,0.0,0.0,0.0,0.0,0.0,0.0,0.0,0.0,0.0,0.0,0.0,0.0,0.0,0.0,0.0,0.0,0.0,0.0,0.0,0.0,0.0,0.0,0.0,0.0,0.0,0.0,0.0,0.0,0.0,0.0,0.0,0.0,0.0,0.0,0.0,0.0,0.0,0.0,0.0,0.0,0.0,0.0,0.0,0.0,0.0,0.0,0.0,0.0,0.0,0.0,0.0,0.0,0.0,0.0,0.0,0.0,0.0,0.0,0.0,0.0,0.0,0.0,0.0,0.0,0.0,0.0,0.0,0.0,0.0,0.0,0.0,0.0,0.0,0.0,0.0,0.0,0.0,0.0,0.0,0.0,0.0,0.0,0.0,0.0,0.0,0.0,0.0,0.0,0.0,0.0,0.0,0.0,0.0,0.0,0.0,0.0,0.0,0.0,0.0,0.0,0.0,0.0,0.0,0.0,0.0,-1.3603,-1.889,-2.267,-2.283,-1.9685,-2.0321,-1.7075,0.0,0.0,0.0,0.0,0.0,0.0,0.0,0.0,0.0,0.0,0.0,0.0,0.0,0.0,0.0,0.0,0.0,0.0,0.0,0.0,0.0,0.0,0.0,0.0,0.0,0.0,0.0,0.0,0.0,0.0,0.0,0.0,0.0,0.0,0.0,0.0,0.0,0.0,0.0,0.0,0.0,0.0,0.0,0.0,0.0,0.0,0.0,0.0,0.0,0.0,0.0,0.0,0.0,0.0,0.0,0.0,0.0,0.0,0.0,0.0,0.0,0.0,0.0,0.0,0.0,0.0,0.0,0.0,0.0,0.0,0.0,0.0,0.0,0.0,0.0,0.0,0.0,0.0,0.0,0.0,0.0,0.0,0.0,0.0,0.0,0.0,0.0,0.0,0.0,0.0,0.0,0.0,0.0,0.0,0.0,0.0,0.0,0.0,0.0,0.0,0.0,0.0,0.0,0.0,0.0,0.0,0.0,0.0,0.0,-1.3075,0.0,-1.73,0.0,-1.8391,-1.5701,0.0,0.0,0.0,0.0,0.0,0.0,0.0,0.0,0.0,0.0,0.0,0.0,0.0,0.0,0.0,0.0,0.0,0.0,0.0,0.0,0.0,0.0,0.0,0.0,0.0,0.0,0.0,0.0,0.0,0.0,0.0,0.0,0.0,0.0,0.0,0.0,0.0,0.0,0.0,0.0,0.0,0.0,0.0,0.0,0.0,0.0,0.0,0.0,0.0,0.0,0.0,0.0,0.0,0.0,0.0,0.0,0.0,0.0,0.0,0.0,0.0,0.0,0.0,0.0,0.0,0.0,0.0,0.0,0.0,0.0,0.0,0.0,0.0,0.0,0.0,0.0,0.0,0.0,0.0,0.0,0.0,0.0,0.0,0.0,0.0,0.0,0.0,0.0,0.0,0.0,0.0,0.0,0.0,0.0,0.0,0.0,0.0,0.0,0.0,0.0,0.0,0.0,0.0,0.0,0.0,0.0,0.0,0.0,0.0,-1.2638,-1.1698,-1.4452,-2.0716,-1.7859,-1.59,0.0,0.0,0.0,0.0,0.0,0.0,0.0,0.0,0.0,0.0,0.0,0.0,0.0,0.0,0.0,0.0,0.0,0.0,0.0,0.0,0.0,0.0,0.0,0.0,0.0,0.0,0.0,0.0,0.0,0.0,0.0,0.0,0.0,0.0,0.0,0.0,0.0,0.0,0.0,0.0,0.0,0.0,0.0,0.0,0.0,0.0,0.0,0.0,0.0,0.0,0.0,0.0,0.0,0.0,0.0,0.0,0.0,0.0,0.0,0.0,0.0,0.0,0.0,0.0,0.0,0.0,0.0,0.0,0.0,0.0,0.0,0.0,0.0,0.0,0.0,0.0,0.0,0.0,0.0,0.0,0.0,0.0,0.0,0.0,0.0,0.0,0.0,0.0,0.0,0.0,0.0,0.0,0.0,0.0,0.0,0.0,0.0,0.0,0.0,0.0,0.0,0.0,0.0,0.0,0.0,0.0,0.0,0.0,0.0,0.0,-1.5176,-1.4766,-1.5805,-1.8253,-1.7313,0.0,0.0,0.0,0.0,0.0,0.0,0.0,0.0,0.0,0.0,0.0,0.0,0.0,0.0,0.0,0.0,0.0,0.0,0.0,0.0,0.0,0.0,0.0,0.0,0.0,0.0,0.0,0.0,0.0,0.0,0.0,0.0,0.0,0.0,0.0,0.0,0.0,0.0,0.0,0.0,0.0,0.0,0.0,0.0,0.0,0.0,0.0,0.0,0.0,0.0,0.0,0.0,0.0,0.0,0.0,0.0,0.0,0.0,0.0,0.0,0.0,0.0,0.0,0.0,0.0,0.0,0.0,0.0,0.0,0.0,0.0,0.0,0.0,0.0,0.0,0.0,0.0,0.0,0.0,0.0,0.0,0.0,0.0,0.0,0.0,0.0,0.0,0.0,0.0,0.0,0.0,0.0,0.0,0.0,0.0,0.0,0.0,0.0,0.0,0.0,0.0,0.0,0.0,0.0,0.0,0.0,0.0,0.0,0.0,0.0,-1.6876,-1.6309,-1.2849,-1.3736,-1.4671,-1.5241,0.0,0.0,0.0,0.0,0.0,0.0,0.0,0.0,0.0,0.0,0.0,0.0,0.0,0.0,0.0,0.0,0.0,0.0,0.0,0.0,0.0,0.0,0.0,0.0,0.0,0.0,0.0,0.0,0.0,0.0,0.0,0.0,0.0,0.0,0.0,0.0,0.0,0.0,0.0,0.0,0.0,0.0,0.0,0.0,0.0,0.0,0.0,0.0,0.0,0.0,0.0,0.0,0.0,0.0,0.0,0.0,0.0,0.0,0.0,0.0,0.0,0.0,0.0,0.0,0.0,0.0,0.0,0.0,0.0,0.0,0.0,0.0,0.0,0.0,0.0,0.0,0.0,0.0,0.0,0.0,0.0,0.0,0.0,0.0,0.0,0.0,0.0,0.0,0.0,0.0,0.0,0.0,0.0,0.0,0.0,0.0,0.0,0.0,0.0,0.0,0.0,0.0,0.0,0.0,0.0,0.0,0.0,0.0,0.0,0.0,-1.5298,-1.1892,-1.2257,-1.3027,0.0,0.0,0.0,0.0,0.0,0.0,0.0,0.0,0.0,0.0,0.0,0.0,0.0,0.0,0.0,0.0,0.0,0.0,0.0,0.0,0.0,0.0,0.0,0.0,0.0,0.0,0.0,0.0,0.0,0.0,0.0,0.0,0.0,0.0,0.0,0.0,0.0,0.0,0.0,0.0,0.0,0.0,0.0,0.0,0.0,0.0,0.0,0.0,0.0,0.0,0.0,0.0,0.0,0.0,0.0,0.0,0.0,0.0,0.0,0.0,0.0,0.0,0.0,0.0,0.0,0.0,0.0,0.0,0.0,0.0,0.0,0.0,0.0,0.0,0.0,0.0,0.0,0.0,0.0,0.0,0.0,0.0,0.0,0.0,0.0,0.0,0.0,0.0,0.0,0.0,0.0,0.0,0.0,0.0,0.0,0.0,0.0,0.0,0.0,0.0,0.0,0.0,0.0,0.0,0.0,0.0,0.0,0.0,0.0,0.0,0.0,-1.307,-1.253,-1.2997,0.0,-1.0974,0.0,0.0,0.0,0.0,0.0,0.0,0.0,0.0,0.0,0.0,0.0,0.0,0.0,0.0,0.0,0.0,0.0,0.0,0.0,0.0,0.0,0.0,0.0,0.0,0.0,0.0,0.0,0.0,0.0,0.0,0.0,0.0,0.0,0.0,0.0,0.0,0.0,0.0,0.0,0.0,0.0,0.0,0.0,0.0,0.0,0.0,0.0,0.0,0.0,0.0,0.0,0.0,0.0,0.0,0.0,0.0,0.0,0.0,0.0,0.0,0.0,0.0,0.0,0.0,0.0,0.0,0.0,0.0,0.0,0.0,0.0,0.0,0.0,0.0,0.0,0.0,0.0,0.0,0.0,0.0,0.0,0.0,0.0,0.0,0.0,0.0,0.0,0.0,0.0,0.0,0.0,0.0,0.0,0.0,0.0,0.0,0.0,0.0,0.0,0.0,0.0,0.0,0.0,0.0,0.0,0.0,0.0,0.0,0.0,0.0,0.0,0.0,-1.4587,-1.3956,-0.9113,0.0,0.0,0.0,0.0,0.0,0.0,0.0,0.0,0.0,0.0,0.0,0.0,0.0,0.0,0.0,0.0,0.0,0.0,0.0,0.0,0.0,0.0,0.0,0.0,0.0,0.0,0.0,0.0,0.0,0.0,0.0,0.0,0.0,0.0,0.0,0.0,0.0,0.0,0.0,0.0,0.0,0.0,0.0,0.0,0.0,0.0,0.0,0.0,0.0,0.0,0.0,0.0,0.0,0.0,0.0,0.0,0.0,0.0,0.0,0.0,0.0,0.0,0.0,0.0,0.0,0.0,0.0,0.0,0.0,0.0,0.0,0.0,0.0,0.0,0.0,0.0,0.0,0.0,0.0,0.0,0.0,0.0,0.0,0.0,0.0,0.0,0.0,0.0,0.0,0.0,0.0,0.0,0.0,0.0,0.0,0.0,0.0,0.0,0.0,0.0,0.0,0.0,0.0,0.0,0.0,0.0,0.0,0.0,0.0,0.0,-1.4135,-1.1134,-1.2846,-1.1768,-0.7541,0.0,0.0,0.0,0.0,0.0,0.0,0.0,0.0,0.0,0.0,0.0,0.0,0.0,0.0,0.0,0.0,0.0,0.0,0.0,0.0,0.0,0.0,0.0,0.0,0.0,0.0,0.0,0.0,0.0,0.0,0.0,0.0,0.0,0.0,0.0,0.0,0.0,0.0,0.0,0.0,0.0,0.0,0.0,0.0,0.0,0.0,0.0,0.0,0.0,0.0,0.0,0.0,0.0,0.0,0.0,0.0,0.0,0.0,0.0,0.0,0.0,0.0,0.0,0.0,0.0,0.0,0.0,0.0,0.0,0.0,0.0,0.0,0.0,0.0,0.0,0.0,0.0,0.0,0.0,0.0,0.0,0.0,0.0,0.0,0.0,0.0,0.0,0.0,0.0,0.0,0.0,0.0,0.0,0.0,0.0,0.0,0.0,0.0,0.0,0.0,0.0,0.0,0.0,0.0,0.0,0.0,0.0,0.0,0.0,0.0,0.0,0.0,0.0,0.0,-0.6671,0.0,0.0,0.0,0.0,0.0,0.0,0.0,0.0,0.0,0.0,0.0,0.0,0.0,0.0,0.0,0.0,0.0,0.0,0.0,0.0,0.0,0.0,0.0,0.0,0.0,0.0,0.0,0.0,0.0,0.0,0.0,0.0,0.0,0.0,0.0,0.0,0.0,0.0,0.0,0.0,0.0,0.0,0.0,0.0,0.0,0.0,0.0,0.0,0.0,0.0,0.0,0.0,0.0,0.0,0.0,0.0,0.0,0.0,0.0,0.0,0.0,0.0,0.0,0.0,0.0,0.0,0.0,0.0,0.0,0.0,0.0,0.0,0.0,0.0,0.0,0.0,0.0,0.0,0.0,0.0,0.0,0.0,0.0,0.0,0.0,0.0,0.0,0.0,0.0,0.0,0.0,0.0,0.0,0.0,0.0,0.0,0.0,0.0,0.0,0.0,0.0,0.0,0.0,0.0,0.0,0.0,0.0,0.0,0.0,0.0,0.0,0.0,0.0,0.0,0.0,0.0,0.0,0.0,0.0,0.0,0.0,0.0,0.0,0.0,0.0,0.0,0.0,0.0,0.0,0.0,0.0,0.0,0.0,0.0,0.0,0.0,0.0,0.0,0.0,0.0,0.0,0.0,0.0,0.0,0.0,0.0,0.0,0.0,0.0,0.0,0.0,0.0,0.0,0.0,0.0,0.0,0.0,0.0,0.0,0.0,0.0,0.0,0.0,0.0,0.0,0.0,0.0,0.0,0.0,0.0,0.0,0.0,0.0,0.0,0.0,0.0,0.0,0.0,0.0,0.0,0.0,0.0,0.0,0.0,0.0,0.0,0.0,0.0,0.0,0.0,0.0,0.0,0.0,0.0,0.0,0.0,0.0,0.0,0.0,0.0,0.0,0.0,0.0,0.0,0.0,0.0,0.0,0.0,0.0,0.0,0.0,0.0,0.0,0.0,0.0,0.0,0.0,0.0,0.0,0.0,0.0,0.0,0.0,0.0,0.0,0.0,0.0,0.0,0.0,0.0,0.0,0.0,0.0,0.0,0.0,0.0,0.0,0.0,0.0,0.0,0.0,0.0,0.0,0.0,0.0,0.0,0.0,0.0,0.0,0.0,0.0,0.0,0.0,0.0,0.0,0.0,0.0,0.0,0.0,0.0,0.0,0.0,0.0,0.0,0.0,0.0,0.0,0.0,0.0,0.0,0.0,0.0,0.0,0.0,0.0,0.0,0.0,0.0,0.0,0.0,0.0,0.0,0.0,0.0,0.0,0.0,0.0,0.0,0.0,0.0,0.0,0.0,0.0,0.0,0.0,0.0,0.0,0.0,0.0,0.0,0.0,0.0,0.0,0.0,0.0,0.0,0.0,0.0,0.0,0.0,0.0,0.0,0.0,0.0,0.0,0.0,0.0,0.0,0.0,0.0,0.0,0.0,0.0,0.0,0.0,0.0,0.0,0.0,0.0,0.0,0.0,0.0,0.0,0.0,0.0,0.0,0.0,0.0,0.0,0.0,0.0,0.0,0.0,0.0,0.0,0.0,0.0,0.0,0.0,0.0,0.0,0.0,0.0,0.0,0.0,0.0,0.0,0.0,0.0,0.0,0.0,0.0,0.0,0.0,0.0,0.0,0.0,0.0,0.0,0.0,0.0,0.0,0.0,0.0,0.0,0.0,0.0,0.0,0.0,0.0,0.0,0.0,0.0,0.0,0.0,0.0,0.0,0.0,0.0,0.0,0.0,0.0,0.0,0.0,0.0,0.0,0.0,0.0,0.0,0.0,0.0,0.0,0.0,0.0,0.0,0.0,0.0,0.0,0.0,0.0,0.0,0.0,0.0,0.0,0.0,0.0,0.0,0.0,0.0,0.0,0.0,0.0,0.0,0.0,0.0,0.0,0.0,0.0,0.0,0.0,0.0,0.0,0.0,0.0,0.0,0.0,0.0,0.0,0.0,0.0,0.0,0.0,0.0,0.0,0.0,0.0,0.0,0.0,0.0,0.0,0.0,0.0,0.0,0.0,0.0,0.0,0.0,0.0,0.0,0.0,0.0,0.0,0.0,0.0,0.0,0.0,0.0,0.0,0.0,0.0,0.0,0.0,0.0,0.0,0.0,0.0,0.0,0.0,0.0,0.0,0.0,0.0,0.0,0.0,0.0,0.0,0.0,0.0,0.0,0.0,0.0,0.0,0.0,0.0,0.0,0.0,0.0,0.0,0.0,0.0,0.0,0.0,0.0,0.0,0.0,0.0,0.0,0.0,0.0,0.0,0.0,0.0,0.0,0.0,0.0,0.0,0.0,0.0,0.0,0.0,0.0,0.0,0.0,0.0,0.0,0.0,0.0,0.0,0.0,0.0,0.0,0.0,0.0,0.0,0.0,0.0,0.0,0.0,0.0,0.0,0.0,0.0,0.0,0.0,0.0,0.0,0.0,0.0,0.0,0.0,0.0,0.0,0.0,0.0,0.0,0.0,0.0,0.0,0.0,0.0,0.0,0.0,0.0,0.0,0.0,0.0,0.0,0.0,0.0,0.0,0.0,0.0,0.0,0.0,0.0,0.0,0.0,0.0,0.0,0.0,0.0,0.0,0.0,0.0,0.0,0.0,0.0,0.0,0.0,0.0,0.0,0.0,0.0,0.0,0.0,0.0,0.0,0.0,0.0,0.0,0.0,0.0,0.0,0.0,0.0,0.0,0.0,0.0,0.0,0.0,0.0,0.0,0.0,0.0,0.0,0.0,0.0,0.0,0.0,0.0,0.0,0.0,0.0,0.0,0.0,0.0,0.0,0.0,0.0,0.0,0.0,0.0,0.0,0.0,0.0,0.0,0.0,0.0,0.0,0.0,0.0,0.0,0.0,0.0,0.0,0.0,0.0,0.0,0.0,0.0,0.0,0.0,0.0,0.0,0.0,0.0,0.0,0.0,0.0,0.0,0.0,0.0,0.0,0.0,0.0,0.0,0.0,0.0,0.0,0.0,0.0,0.0,0.0,0.0,0.0,0.0,0.0,0.0,0.0,0.0,0.0,0.0,0.0,0.0,0.0,0.0,0.0,0.0,0.0,0.0,0.0,0.0,0.0,0.0,0.0,0.0,0.0,0.0,0.0,0.0,0.0,0.0,0.0,0.0,0.0,0.0,0.0,0.0,0.0,0.0,0.0,0.0,0.0,0.0,0.0,0.0,0.0,0.0,0.0,0.0,0.0,0.0,0.0,0.0,0.0,0.0,0.0,0.0,0.0,0.0,0.0,0.0,0.0,0.0,0.0,0.0,0.0,0.0,0.0,0.0,0.0,0.0,0.0,0.0,0.0,0.0,0.0,0.0,0.0,0.0,0.0,0.0,0.0,0.0,0.0,0.0,0.0,0.0,0.0,0.0,0.0,0.0,0.0,0.0,0.0,0.0,0.0,0.0,0.0,0.0,0.0,0.0,0.0,0.0,0.0,0.0,0.0,0.0,0.0,0.0,0.0,0.0,0.0,0.0,0.0,0.0,0.0,0.0,0.0,0.0,0.0,0.0,0.0,0.0,0.0,0.0,0.0,0.0,0.0,0.0,0.0,0.0,0.0,0.0,0.0,0.0,0.0,0.0,0.0,0.0,0.0,0.0,0.0,0.0,0.0,0.0,0.0,0.0,0.0,0.0,0.0,0.0,0.0,0.0,0.0,0.0,0.0,0.0,0.0,0.0,0.0,0.0,0.0,0.0,0.0,0.0,0.0,0.0,0.0,0.0,0.0,0.0,0.0,0.0,0.0,0.0,0.0,0.0,0.0,0.0,0.0,0.0,0.0,0.0,0.0,0.0,0.0,0.0,0.0,0.0,0.0,0.0,0.0,0.0,0.0,0.0,0.0,0.0,0.0,0.0,0.0,0.0,0.0,0.0,0.0,0.0,0.0,0.0,0.0,0.0,0.0,0.0,0.0,0.0,0.0,0.0,0.0,0.0,0.0,0.0,0.0,0.0,0.0,0.0,0.0,0.0,0.0,0.0,0.0,0.0,0.0,0.0,0.0,0.0,0.0,0.0,0.0,0.0,0.0,0.0,0.0,0.0,0.0,0.0,0.0,0.0,0.0,0.0,0.0,0.0,0.0,0.0,0.0,0.0,0.0,0.0,0.0,0.0,0.0,0.0,0.0,0.0,0.0,0.0,0.0,0.0,0.0,0.0,0.0,0.0,0.0,0.0,0.0,0.0,0.0,0.0,0.0,0.0,0.0,0.0,0.0,0.0,0.0,0.0,0.0,0.0,0.0,0.0,0.0,0.0,0.0,0.0,0.0,0.0,0.0,0.0,0.0,0.0,0.0,0.0,0.0,0.0,0.0,0.0,0.0,0.0,0.0,0.0,0.0,0.0,0.0,0.0,0.0,0.0,0.0,0.0,0.0,0.0]}]]]